<?xml version="1.0" encoding="UTF-8" standalone="no" ?>
<gpx xmlns="http://www.topografix.com/GPX/1/1" xmlns:xsi="http://www.w3.org/2001/XMLSchema-instance" xsi:schemaLocation="http://www.topografix.com/GPX/1/1 http://www.topografix.com/GPX/1/1/gpx.xsd" version="1.1" creator="VisuGPX - https://www.visugpx.com">
  <metadata>
    <name>2022-08-01 15:55:33</name>
  </metadata>
  <trk>
    <name><![CDATA[2022-08-01 15:55:33]]></name>
    <trkseg>
      <trkpt lat="45.04555" lon="3.88553">
        <ele>688.92</ele>
        <time>2022-07-31T13:47:56Z</time>
      </trkpt>
      <trkpt lat="45.04553" lon="3.88555">
        <ele>695.17</ele>
        <time>2022-07-31T13:48:25Z</time>
      </trkpt>
      <trkpt lat="45.04553" lon="3.88551">
        <ele>689.4</ele>
        <time>2022-07-31T13:48:57Z</time>
      </trkpt>
      <trkpt lat="45.04555" lon="3.88551">
        <ele>686.04</ele>
        <time>2022-07-31T13:49:22Z</time>
      </trkpt>
      <trkpt lat="45.04557" lon="3.8855">
        <ele>683.15</ele>
        <time>2022-07-31T13:49:45Z</time>
      </trkpt>
      <trkpt lat="45.04555" lon="3.88549">
        <ele>687.48</ele>
        <time>2022-07-31T13:50:21Z</time>
      </trkpt>
      <trkpt lat="45.04554" lon="3.88548">
        <ele>686.52</ele>
        <time>2022-07-31T13:50:48Z</time>
      </trkpt>
      <trkpt lat="45.04554" lon="3.88549">
        <ele>687</ele>
        <time>2022-07-31T13:51:16Z</time>
      </trkpt>
      <trkpt lat="45.04552" lon="3.88548">
        <ele>688.92</ele>
        <time>2022-07-31T13:51:42Z</time>
      </trkpt>
      <trkpt lat="45.04552" lon="3.88551">
        <ele>687.48</ele>
        <time>2022-07-31T13:52:14Z</time>
      </trkpt>
      <trkpt lat="45.04553" lon="3.88552">
        <ele>686.52</ele>
        <time>2022-07-31T13:52:44Z</time>
      </trkpt>
      <trkpt lat="45.04553" lon="3.88552">
        <ele>684.6</ele>
        <time>2022-07-31T13:53:14Z</time>
      </trkpt>
      <trkpt lat="45.04555" lon="3.88551">
        <ele>685.56</ele>
        <time>2022-07-31T13:53:45Z</time>
      </trkpt>
      <trkpt lat="45.04555" lon="3.88553">
        <ele>687.96</ele>
        <time>2022-07-31T13:54:05Z</time>
      </trkpt>
      <trkpt lat="45.04555" lon="3.88552">
        <ele>695.17</ele>
        <time>2022-07-31T13:54:40Z</time>
      </trkpt>
      <trkpt lat="45.04554" lon="3.8855">
        <ele>693.73</ele>
        <time>2022-07-31T13:55:14Z</time>
      </trkpt>
      <trkpt lat="45.04554" lon="3.88551">
        <ele>691.81</ele>
        <time>2022-07-31T13:55:40Z</time>
      </trkpt>
      <trkpt lat="45.04554" lon="3.8855">
        <ele>690.84</ele>
        <time>2022-07-31T13:56:13Z</time>
      </trkpt>
      <trkpt lat="45.04553" lon="3.88551">
        <ele>688.92</ele>
        <time>2022-07-31T13:56:47Z</time>
      </trkpt>
      <trkpt lat="45.04553" lon="3.88549">
        <ele>688.92</ele>
        <time>2022-07-31T13:56:58Z</time>
      </trkpt>
      <trkpt lat="45.04568" lon="3.88599">
        <ele>689.88</ele>
        <time>2022-08-01T05:10:33Z</time>
      </trkpt>
      <trkpt lat="45.04569" lon="3.88605">
        <ele>689.88</ele>
        <time>2022-08-01T05:11:03Z</time>
      </trkpt>
      <trkpt lat="45.04562" lon="3.88607">
        <ele>689.88</ele>
        <time>2022-08-01T05:11:11Z</time>
      </trkpt>
      <trkpt lat="45.04547" lon="3.88615">
        <ele>689.88</ele>
        <time>2022-08-01T05:11:29Z</time>
      </trkpt>
      <trkpt lat="45.04547" lon="3.88615">
        <ele>689.88</ele>
        <time>2022-08-01T05:11:30Z</time>
      </trkpt>
      <trkpt lat="45.04536" lon="3.88592">
        <ele>689.88</ele>
        <time>2022-08-01T05:11:45Z</time>
      </trkpt>
      <trkpt lat="45.04533" lon="3.88587">
        <ele>689.88</ele>
        <time>2022-08-01T05:11:49Z</time>
      </trkpt>
      <trkpt lat="45.04521" lon="3.88561">
        <ele>689.88</ele>
        <time>2022-08-01T05:12:06Z</time>
      </trkpt>
      <trkpt lat="45.04514" lon="3.88533">
        <ele>689.88</ele>
        <time>2022-08-01T05:12:22Z</time>
      </trkpt>
      <trkpt lat="45.04497" lon="3.88521">
        <ele>689.88</ele>
        <time>2022-08-01T05:12:36Z</time>
      </trkpt>
      <trkpt lat="45.04489" lon="3.88509">
        <ele>689.88</ele>
        <time>2022-08-01T05:12:46Z</time>
      </trkpt>
      <trkpt lat="45.04481" lon="3.88514">
        <ele>689.88</ele>
        <time>2022-08-01T05:12:55Z</time>
      </trkpt>
      <trkpt lat="45.04479" lon="3.88526">
        <ele>689.88</ele>
        <time>2022-08-01T05:13:07Z</time>
      </trkpt>
      <trkpt lat="45.04479" lon="3.88527">
        <ele>689.88</ele>
        <time>2022-08-01T05:13:08Z</time>
      </trkpt>
      <trkpt lat="45.04479" lon="3.88533">
        <ele>689.88</ele>
        <time>2022-08-01T05:13:11Z</time>
      </trkpt>
      <trkpt lat="45.04478" lon="3.88562">
        <ele>689.88</ele>
        <time>2022-08-01T05:13:28Z</time>
      </trkpt>
      <trkpt lat="45.04476" lon="3.88574">
        <ele>689.4</ele>
        <time>2022-08-01T05:13:38Z</time>
      </trkpt>
      <trkpt lat="45.04469" lon="3.88562">
        <ele>689.4</ele>
        <time>2022-08-01T05:13:49Z</time>
      </trkpt>
      <trkpt lat="45.04468" lon="3.88556">
        <ele>689.4</ele>
        <time>2022-08-01T05:13:52Z</time>
      </trkpt>
      <trkpt lat="45.04458" lon="3.88542">
        <ele>689.4</ele>
        <time>2022-08-01T05:14:07Z</time>
      </trkpt>
      <trkpt lat="45.04443" lon="3.8855">
        <ele>689.4</ele>
        <time>2022-08-01T05:14:24Z</time>
      </trkpt>
      <trkpt lat="45.04441" lon="3.88553">
        <ele>689.4</ele>
        <time>2022-08-01T05:14:27Z</time>
      </trkpt>
      <trkpt lat="45.04426" lon="3.88557">
        <ele>689.4</ele>
        <time>2022-08-01T05:14:43Z</time>
      </trkpt>
      <trkpt lat="45.04418" lon="3.88533">
        <ele>689.4</ele>
        <time>2022-08-01T05:14:59Z</time>
      </trkpt>
      <trkpt lat="45.04409" lon="3.88524">
        <ele>689.4</ele>
        <time>2022-08-01T05:15:11Z</time>
      </trkpt>
      <trkpt lat="45.04405" lon="3.88508">
        <ele>688.92</ele>
        <time>2022-08-01T05:15:23Z</time>
      </trkpt>
      <trkpt lat="45.04398" lon="3.88504">
        <ele>688.92</ele>
        <time>2022-08-01T05:15:38Z</time>
      </trkpt>
      <trkpt lat="45.04386" lon="3.8851">
        <ele>688.92</ele>
        <time>2022-08-01T05:15:58Z</time>
      </trkpt>
      <trkpt lat="45.0437" lon="3.8851">
        <ele>688.92</ele>
        <time>2022-08-01T05:16:18Z</time>
      </trkpt>
      <trkpt lat="45.04355" lon="3.88515">
        <ele>688.92</ele>
        <time>2022-08-01T05:16:36Z</time>
      </trkpt>
      <trkpt lat="45.0435" lon="3.88516">
        <ele>688.92</ele>
        <time>2022-08-01T05:16:42Z</time>
      </trkpt>
      <trkpt lat="45.04329" lon="3.88527">
        <ele>688.92</ele>
        <time>2022-08-01T05:16:59Z</time>
      </trkpt>
      <trkpt lat="45.04308" lon="3.88537">
        <ele>688.92</ele>
        <time>2022-08-01T05:17:18Z</time>
      </trkpt>
      <trkpt lat="45.04302" lon="3.88541">
        <ele>688.44</ele>
        <time>2022-08-01T05:17:33Z</time>
      </trkpt>
      <trkpt lat="45.0429" lon="3.88543">
        <ele>688.44</ele>
        <time>2022-08-01T05:17:48Z</time>
      </trkpt>
      <trkpt lat="45.04271" lon="3.88543">
        <ele>688.44</ele>
        <time>2022-08-01T05:18:04Z</time>
      </trkpt>
      <trkpt lat="45.04247" lon="3.88544">
        <ele>688.44</ele>
        <time>2022-08-01T05:18:22Z</time>
      </trkpt>
      <trkpt lat="45.04223" lon="3.88546">
        <ele>687.96</ele>
        <time>2022-08-01T05:18:39Z</time>
      </trkpt>
      <trkpt lat="45.04218" lon="3.88548">
        <ele>687.96</ele>
        <time>2022-08-01T05:18:43Z</time>
      </trkpt>
      <trkpt lat="45.04215" lon="3.88556">
        <ele>687.96</ele>
        <time>2022-08-01T05:18:48Z</time>
      </trkpt>
      <trkpt lat="45.04212" lon="3.88585">
        <ele>687.96</ele>
        <time>2022-08-01T05:19:03Z</time>
      </trkpt>
      <trkpt lat="45.0421" lon="3.88597">
        <ele>687.96</ele>
        <time>2022-08-01T05:19:17Z</time>
      </trkpt>
      <trkpt lat="45.04209" lon="3.88591">
        <ele>688.44</ele>
        <time>2022-08-01T05:19:31Z</time>
      </trkpt>
      <trkpt lat="45.04216" lon="3.88595">
        <ele>688.44</ele>
        <time>2022-08-01T05:19:56Z</time>
      </trkpt>
      <trkpt lat="45.04227" lon="3.88595">
        <ele>688.44</ele>
        <time>2022-08-01T05:20:17Z</time>
      </trkpt>
      <trkpt lat="45.04228" lon="3.88592">
        <ele>688.44</ele>
        <time>2022-08-01T05:20:43Z</time>
      </trkpt>
      <trkpt lat="45.04232" lon="3.88598">
        <ele>688.44</ele>
        <time>2022-08-01T05:21:06Z</time>
      </trkpt>
      <trkpt lat="45.04247" lon="3.88615">
        <ele>688.44</ele>
        <time>2022-08-01T05:22:12Z</time>
      </trkpt>
      <trkpt lat="45.04202" lon="3.8858">
        <ele>688.92</ele>
        <time>2022-08-01T05:23:30Z</time>
      </trkpt>
      <trkpt lat="45.04203" lon="3.88586">
        <ele>689.4</ele>
        <time>2022-08-01T05:23:31Z</time>
      </trkpt>
      <trkpt lat="45.04204" lon="3.88613">
        <ele>677.87</ele>
        <time>2022-08-01T05:23:45Z</time>
      </trkpt>
      <trkpt lat="45.04202" lon="3.88637">
        <ele>676.91</ele>
        <time>2022-08-01T05:24:01Z</time>
      </trkpt>
      <trkpt lat="45.04199" lon="3.88661">
        <ele>678.83</ele>
        <time>2022-08-01T05:24:16Z</time>
      </trkpt>
      <trkpt lat="45.04199" lon="3.88668">
        <ele>663.93</ele>
        <time>2022-08-01T05:24:19Z</time>
      </trkpt>
      <trkpt lat="45.04201" lon="3.88686">
        <ele>626.92</ele>
        <time>2022-08-01T05:24:26Z</time>
      </trkpt>
      <trkpt lat="45.04201" lon="3.88688">
        <ele>628.36</ele>
        <time>2022-08-01T05:24:28Z</time>
      </trkpt>
      <trkpt lat="45.04204" lon="3.88692">
        <ele>640.86</ele>
        <time>2022-08-01T05:24:43Z</time>
      </trkpt>
      <trkpt lat="45.04192" lon="3.88701">
        <ele>640.38</ele>
        <time>2022-08-01T05:24:58Z</time>
      </trkpt>
      <trkpt lat="45.0418" lon="3.88706">
        <ele>640.38</ele>
        <time>2022-08-01T05:25:14Z</time>
      </trkpt>
      <trkpt lat="45.04177" lon="3.88715">
        <ele>639.89</ele>
        <time>2022-08-01T05:25:19Z</time>
      </trkpt>
      <trkpt lat="45.04177" lon="3.88716">
        <ele>639.41</ele>
        <time>2022-08-01T05:25:20Z</time>
      </trkpt>
      <trkpt lat="45.04178" lon="3.88717">
        <ele>639.89</ele>
        <time>2022-08-01T05:25:21Z</time>
      </trkpt>
      <trkpt lat="45.04178" lon="3.88719">
        <ele>639.89</ele>
        <time>2022-08-01T05:25:22Z</time>
      </trkpt>
      <trkpt lat="45.04179" lon="3.8872">
        <ele>639.89</ele>
        <time>2022-08-01T05:25:23Z</time>
      </trkpt>
      <trkpt lat="45.04179" lon="3.88721">
        <ele>639.89</ele>
        <time>2022-08-01T05:25:24Z</time>
      </trkpt>
      <trkpt lat="45.04178" lon="3.88725">
        <ele>639.89</ele>
        <time>2022-08-01T05:25:27Z</time>
      </trkpt>
      <trkpt lat="45.04178" lon="3.88726">
        <ele>639.89</ele>
        <time>2022-08-01T05:25:28Z</time>
      </trkpt>
      <trkpt lat="45.04177" lon="3.88727">
        <ele>640.38</ele>
        <time>2022-08-01T05:25:29Z</time>
      </trkpt>
      <trkpt lat="45.04177" lon="3.88729">
        <ele>640.38</ele>
        <time>2022-08-01T05:25:30Z</time>
      </trkpt>
      <trkpt lat="45.04176" lon="3.8873">
        <ele>640.38</ele>
        <time>2022-08-01T05:25:31Z</time>
      </trkpt>
      <trkpt lat="45.0417" lon="3.88739">
        <ele>641.34</ele>
        <time>2022-08-01T05:25:45Z</time>
      </trkpt>
      <trkpt lat="45.04161" lon="3.88735">
        <ele>641.82</ele>
        <time>2022-08-01T05:26:02Z</time>
      </trkpt>
      <trkpt lat="45.04154" lon="3.88738">
        <ele>646.62</ele>
        <time>2022-08-01T05:26:15Z</time>
      </trkpt>
      <trkpt lat="45.04152" lon="3.88738">
        <ele>647.59</ele>
        <time>2022-08-01T05:26:17Z</time>
      </trkpt>
      <trkpt lat="45.04152" lon="3.8874">
        <ele>647.1</ele>
        <time>2022-08-01T05:26:18Z</time>
      </trkpt>
      <trkpt lat="45.04152" lon="3.88742">
        <ele>647.59</ele>
        <time>2022-08-01T05:26:19Z</time>
      </trkpt>
      <trkpt lat="45.04153" lon="3.88753">
        <ele>648.07</ele>
        <time>2022-08-01T05:26:24Z</time>
      </trkpt>
      <trkpt lat="45.04152" lon="3.88754">
        <ele>647.1</ele>
        <time>2022-08-01T05:26:25Z</time>
      </trkpt>
      <trkpt lat="45.04151" lon="3.88755">
        <ele>647.1</ele>
        <time>2022-08-01T05:26:26Z</time>
      </trkpt>
      <trkpt lat="45.0415" lon="3.88756">
        <ele>647.1</ele>
        <time>2022-08-01T05:26:27Z</time>
      </trkpt>
      <trkpt lat="45.04149" lon="3.88757">
        <ele>646.62</ele>
        <time>2022-08-01T05:26:28Z</time>
      </trkpt>
      <trkpt lat="45.04148" lon="3.88758">
        <ele>646.14</ele>
        <time>2022-08-01T05:26:29Z</time>
      </trkpt>
      <trkpt lat="45.04147" lon="3.88759">
        <ele>645.66</ele>
        <time>2022-08-01T05:26:30Z</time>
      </trkpt>
      <trkpt lat="45.04146" lon="3.88761">
        <ele>645.66</ele>
        <time>2022-08-01T05:26:31Z</time>
      </trkpt>
      <trkpt lat="45.04145" lon="3.88762">
        <ele>645.18</ele>
        <time>2022-08-01T05:26:32Z</time>
      </trkpt>
      <trkpt lat="45.04138" lon="3.88773">
        <ele>646.14</ele>
        <time>2022-08-01T05:26:41Z</time>
      </trkpt>
      <trkpt lat="45.04138" lon="3.88775">
        <ele>646.14</ele>
        <time>2022-08-01T05:26:42Z</time>
      </trkpt>
      <trkpt lat="45.04137" lon="3.88777">
        <ele>646.14</ele>
        <time>2022-08-01T05:26:43Z</time>
      </trkpt>
      <trkpt lat="45.04135" lon="3.88793">
        <ele>645.18</ele>
        <time>2022-08-01T05:26:51Z</time>
      </trkpt>
      <trkpt lat="45.04134" lon="3.88795">
        <ele>644.7</ele>
        <time>2022-08-01T05:26:52Z</time>
      </trkpt>
      <trkpt lat="45.04134" lon="3.88797">
        <ele>644.7</ele>
        <time>2022-08-01T05:26:53Z</time>
      </trkpt>
      <trkpt lat="45.04134" lon="3.88799">
        <ele>644.7</ele>
        <time>2022-08-01T05:26:54Z</time>
      </trkpt>
      <trkpt lat="45.04134" lon="3.88801">
        <ele>644.7</ele>
        <time>2022-08-01T05:26:55Z</time>
      </trkpt>
      <trkpt lat="45.04134" lon="3.88803">
        <ele>644.7</ele>
        <time>2022-08-01T05:26:56Z</time>
      </trkpt>
      <trkpt lat="45.04134" lon="3.88805">
        <ele>644.22</ele>
        <time>2022-08-01T05:26:57Z</time>
      </trkpt>
      <trkpt lat="45.04134" lon="3.88807">
        <ele>644.22</ele>
        <time>2022-08-01T05:26:58Z</time>
      </trkpt>
      <trkpt lat="45.04134" lon="3.88811">
        <ele>643.74</ele>
        <time>2022-08-01T05:26:59Z</time>
      </trkpt>
      <trkpt lat="45.04134" lon="3.88814">
        <ele>642.78</ele>
        <time>2022-08-01T05:27:00Z</time>
      </trkpt>
      <trkpt lat="45.04133" lon="3.88821">
        <ele>641.34</ele>
        <time>2022-08-01T05:27:08Z</time>
      </trkpt>
      <trkpt lat="45.04131" lon="3.88822">
        <ele>641.34</ele>
        <time>2022-08-01T05:27:10Z</time>
      </trkpt>
      <trkpt lat="45.0413" lon="3.88823">
        <ele>640.86</ele>
        <time>2022-08-01T05:27:11Z</time>
      </trkpt>
      <trkpt lat="45.04129" lon="3.88824">
        <ele>640.86</ele>
        <time>2022-08-01T05:27:12Z</time>
      </trkpt>
      <trkpt lat="45.04128" lon="3.88826">
        <ele>640.86</ele>
        <time>2022-08-01T05:27:13Z</time>
      </trkpt>
      <trkpt lat="45.04127" lon="3.88827">
        <ele>640.86</ele>
        <time>2022-08-01T05:27:14Z</time>
      </trkpt>
      <trkpt lat="45.04126" lon="3.88828">
        <ele>640.86</ele>
        <time>2022-08-01T05:27:15Z</time>
      </trkpt>
      <trkpt lat="45.0412" lon="3.88843">
        <ele>638.45</ele>
        <time>2022-08-01T05:27:25Z</time>
      </trkpt>
      <trkpt lat="45.04114" lon="3.88867">
        <ele>641.82</ele>
        <time>2022-08-01T05:27:41Z</time>
      </trkpt>
      <trkpt lat="45.04111" lon="3.8888">
        <ele>642.3</ele>
        <time>2022-08-01T05:27:50Z</time>
      </trkpt>
      <trkpt lat="45.0411" lon="3.88882">
        <ele>642.78</ele>
        <time>2022-08-01T05:27:51Z</time>
      </trkpt>
      <trkpt lat="45.0411" lon="3.88883">
        <ele>642.78</ele>
        <time>2022-08-01T05:27:52Z</time>
      </trkpt>
      <trkpt lat="45.0411" lon="3.88885">
        <ele>643.74</ele>
        <time>2022-08-01T05:27:53Z</time>
      </trkpt>
      <trkpt lat="45.04109" lon="3.88898">
        <ele>644.22</ele>
        <time>2022-08-01T05:28:01Z</time>
      </trkpt>
      <trkpt lat="45.0411" lon="3.889">
        <ele>644.22</ele>
        <time>2022-08-01T05:28:02Z</time>
      </trkpt>
      <trkpt lat="45.0411" lon="3.88902">
        <ele>644.22</ele>
        <time>2022-08-01T05:28:03Z</time>
      </trkpt>
      <trkpt lat="45.04109" lon="3.88904">
        <ele>644.22</ele>
        <time>2022-08-01T05:28:04Z</time>
      </trkpt>
      <trkpt lat="45.04109" lon="3.88906">
        <ele>644.22</ele>
        <time>2022-08-01T05:28:05Z</time>
      </trkpt>
      <trkpt lat="45.04109" lon="3.88909">
        <ele>643.74</ele>
        <time>2022-08-01T05:28:06Z</time>
      </trkpt>
      <trkpt lat="45.04107" lon="3.88931">
        <ele>646.62</ele>
        <time>2022-08-01T05:28:19Z</time>
      </trkpt>
      <trkpt lat="45.04107" lon="3.88939">
        <ele>647.59</ele>
        <time>2022-08-01T05:28:24Z</time>
      </trkpt>
      <trkpt lat="45.04108" lon="3.88943">
        <ele>647.59</ele>
        <time>2022-08-01T05:28:26Z</time>
      </trkpt>
      <trkpt lat="45.04108" lon="3.88944">
        <ele>647.59</ele>
        <time>2022-08-01T05:28:27Z</time>
      </trkpt>
      <trkpt lat="45.04109" lon="3.88959">
        <ele>648.07</ele>
        <time>2022-08-01T05:28:35Z</time>
      </trkpt>
      <trkpt lat="45.04109" lon="3.88961">
        <ele>647.59</ele>
        <time>2022-08-01T05:28:36Z</time>
      </trkpt>
      <trkpt lat="45.04109" lon="3.88983">
        <ele>649.03</ele>
        <time>2022-08-01T05:28:52Z</time>
      </trkpt>
      <trkpt lat="45.04116" lon="3.89004">
        <ele>649.03</ele>
        <time>2022-08-01T05:29:04Z</time>
      </trkpt>
      <trkpt lat="45.04125" lon="3.89015">
        <ele>648.55</ele>
        <time>2022-08-01T05:29:12Z</time>
      </trkpt>
      <trkpt lat="45.04125" lon="3.89017">
        <ele>648.07</ele>
        <time>2022-08-01T05:29:13Z</time>
      </trkpt>
      <trkpt lat="45.04124" lon="3.89031">
        <ele>647.59</ele>
        <time>2022-08-01T05:29:21Z</time>
      </trkpt>
      <trkpt lat="45.04124" lon="3.89034">
        <ele>647.1</ele>
        <time>2022-08-01T05:29:22Z</time>
      </trkpt>
      <trkpt lat="45.04129" lon="3.89064">
        <ele>647.1</ele>
        <time>2022-08-01T05:29:39Z</time>
      </trkpt>
      <trkpt lat="45.04129" lon="3.89066">
        <ele>647.1</ele>
        <time>2022-08-01T05:29:40Z</time>
      </trkpt>
      <trkpt lat="45.0413" lon="3.89068">
        <ele>647.1</ele>
        <time>2022-08-01T05:29:41Z</time>
      </trkpt>
      <trkpt lat="45.04135" lon="3.8909">
        <ele>647.59</ele>
        <time>2022-08-01T05:29:56Z</time>
      </trkpt>
      <trkpt lat="45.04137" lon="3.8911">
        <ele>649.03</ele>
        <time>2022-08-01T05:30:08Z</time>
      </trkpt>
      <trkpt lat="45.04138" lon="3.89117">
        <ele>647.59</ele>
        <time>2022-08-01T05:30:12Z</time>
      </trkpt>
      <trkpt lat="45.04138" lon="3.8912">
        <ele>646.62</ele>
        <time>2022-08-01T05:30:13Z</time>
      </trkpt>
      <trkpt lat="45.04141" lon="3.89148">
        <ele>641.82</ele>
        <time>2022-08-01T05:30:28Z</time>
      </trkpt>
      <trkpt lat="45.04144" lon="3.89153">
        <ele>641.82</ele>
        <time>2022-08-01T05:30:39Z</time>
      </trkpt>
      <trkpt lat="45.04143" lon="3.89154">
        <ele>643.26</ele>
        <time>2022-08-01T05:30:42Z</time>
      </trkpt>
      <trkpt lat="45.04143" lon="3.89155">
        <ele>643.74</ele>
        <time>2022-08-01T05:30:43Z</time>
      </trkpt>
      <trkpt lat="45.04142" lon="3.89156">
        <ele>643.74</ele>
        <time>2022-08-01T05:30:44Z</time>
      </trkpt>
      <trkpt lat="45.04142" lon="3.89158">
        <ele>644.22</ele>
        <time>2022-08-01T05:30:45Z</time>
      </trkpt>
      <trkpt lat="45.04143" lon="3.89175">
        <ele>647.1</ele>
        <time>2022-08-01T05:30:58Z</time>
      </trkpt>
      <trkpt lat="45.04134" lon="3.89192">
        <ele>647.59</ele>
        <time>2022-08-01T05:31:13Z</time>
      </trkpt>
      <trkpt lat="45.0412" lon="3.89208">
        <ele>649.03</ele>
        <time>2022-08-01T05:31:31Z</time>
      </trkpt>
      <trkpt lat="45.04105" lon="3.89224">
        <ele>651.43</ele>
        <time>2022-08-01T05:31:47Z</time>
      </trkpt>
      <trkpt lat="45.04093" lon="3.89243">
        <ele>657.68</ele>
        <time>2022-08-01T05:32:04Z</time>
      </trkpt>
      <trkpt lat="45.0408" lon="3.89258">
        <ele>660.56</ele>
        <time>2022-08-01T05:32:20Z</time>
      </trkpt>
      <trkpt lat="45.04067" lon="3.89278">
        <ele>661.52</ele>
        <time>2022-08-01T05:32:36Z</time>
      </trkpt>
      <trkpt lat="45.04056" lon="3.89296">
        <ele>662.01</ele>
        <time>2022-08-01T05:32:51Z</time>
      </trkpt>
      <trkpt lat="45.04049" lon="3.89314">
        <ele>662.97</ele>
        <time>2022-08-01T05:33:06Z</time>
      </trkpt>
      <trkpt lat="45.04049" lon="3.89315">
        <ele>662.97</ele>
        <time>2022-08-01T05:33:07Z</time>
      </trkpt>
      <trkpt lat="45.04049" lon="3.89324">
        <ele>664.41</ele>
        <time>2022-08-01T05:33:13Z</time>
      </trkpt>
      <trkpt lat="45.04049" lon="3.89325">
        <ele>664.89</ele>
        <time>2022-08-01T05:33:14Z</time>
      </trkpt>
      <trkpt lat="45.04048" lon="3.89327">
        <ele>665.37</ele>
        <time>2022-08-01T05:33:15Z</time>
      </trkpt>
      <trkpt lat="45.0404" lon="3.89352">
        <ele>673.54</ele>
        <time>2022-08-01T05:33:35Z</time>
      </trkpt>
      <trkpt lat="45.04034" lon="3.89386">
        <ele>675.94</ele>
        <time>2022-08-01T05:33:53Z</time>
      </trkpt>
      <trkpt lat="45.0403" lon="3.89416">
        <ele>677.39</ele>
        <time>2022-08-01T05:34:12Z</time>
      </trkpt>
      <trkpt lat="45.04024" lon="3.89444">
        <ele>674.02</ele>
        <time>2022-08-01T05:34:29Z</time>
      </trkpt>
      <trkpt lat="45.04022" lon="3.89449">
        <ele>674.5</ele>
        <time>2022-08-01T05:34:32Z</time>
      </trkpt>
      <trkpt lat="45.04019" lon="3.89472">
        <ele>674.5</ele>
        <time>2022-08-01T05:34:46Z</time>
      </trkpt>
      <trkpt lat="45.04018" lon="3.89473">
        <ele>674.5</ele>
        <time>2022-08-01T05:34:47Z</time>
      </trkpt>
      <trkpt lat="45.0401" lon="3.89498">
        <ele>674.5</ele>
        <time>2022-08-01T05:35:04Z</time>
      </trkpt>
      <trkpt lat="45.04" lon="3.89525">
        <ele>676.91</ele>
        <time>2022-08-01T05:35:21Z</time>
      </trkpt>
      <trkpt lat="45.03999" lon="3.89545">
        <ele>676.42</ele>
        <time>2022-08-01T05:35:35Z</time>
      </trkpt>
      <trkpt lat="45.03997" lon="3.89552">
        <ele>677.39</ele>
        <time>2022-08-01T05:35:40Z</time>
      </trkpt>
      <trkpt lat="45.03996" lon="3.89555">
        <ele>677.87</ele>
        <time>2022-08-01T05:35:42Z</time>
      </trkpt>
      <trkpt lat="45.03995" lon="3.89558">
        <ele>678.35</ele>
        <time>2022-08-01T05:35:45Z</time>
      </trkpt>
      <trkpt lat="45.03994" lon="3.8956">
        <ele>678.83</ele>
        <time>2022-08-01T05:35:46Z</time>
      </trkpt>
      <trkpt lat="45.03994" lon="3.89561">
        <ele>678.83</ele>
        <time>2022-08-01T05:35:47Z</time>
      </trkpt>
      <trkpt lat="45.03993" lon="3.89563">
        <ele>679.31</ele>
        <time>2022-08-01T05:35:49Z</time>
      </trkpt>
      <trkpt lat="45.03992" lon="3.89565">
        <ele>679.31</ele>
        <time>2022-08-01T05:35:50Z</time>
      </trkpt>
      <trkpt lat="45.03991" lon="3.89566">
        <ele>679.79</ele>
        <time>2022-08-01T05:35:51Z</time>
      </trkpt>
      <trkpt lat="45.03983" lon="3.89577">
        <ele>681.71</ele>
        <time>2022-08-01T05:36:03Z</time>
      </trkpt>
      <trkpt lat="45.03982" lon="3.89578">
        <ele>682.19</ele>
        <time>2022-08-01T05:36:04Z</time>
      </trkpt>
      <trkpt lat="45.03981" lon="3.89579">
        <ele>682.67</ele>
        <time>2022-08-01T05:36:05Z</time>
      </trkpt>
      <trkpt lat="45.03965" lon="3.89584">
        <ele>688.44</ele>
        <time>2022-08-01T05:36:23Z</time>
      </trkpt>
      <trkpt lat="45.03949" lon="3.89594">
        <ele>692.77</ele>
        <time>2022-08-01T05:36:41Z</time>
      </trkpt>
      <trkpt lat="45.03934" lon="3.896">
        <ele>695.17</ele>
        <time>2022-08-01T05:36:56Z</time>
      </trkpt>
      <trkpt lat="45.03925" lon="3.89609">
        <ele>697.09</ele>
        <time>2022-08-01T05:37:06Z</time>
      </trkpt>
      <trkpt lat="45.03924" lon="3.8961">
        <ele>697.57</ele>
        <time>2022-08-01T05:37:07Z</time>
      </trkpt>
      <trkpt lat="45.03923" lon="3.89611">
        <ele>697.57</ele>
        <time>2022-08-01T05:37:08Z</time>
      </trkpt>
      <trkpt lat="45.03911" lon="3.89628">
        <ele>700.94</ele>
        <time>2022-08-01T05:37:24Z</time>
      </trkpt>
      <trkpt lat="45.03901" lon="3.89643">
        <ele>703.34</ele>
        <time>2022-08-01T05:37:38Z</time>
      </trkpt>
      <trkpt lat="45.03887" lon="3.89658">
        <ele>705.26</ele>
        <time>2022-08-01T05:37:55Z</time>
      </trkpt>
      <trkpt lat="45.03877" lon="3.89677">
        <ele>706.71</ele>
        <time>2022-08-01T05:38:10Z</time>
      </trkpt>
      <trkpt lat="45.03872" lon="3.89686">
        <ele>705.75</ele>
        <time>2022-08-01T05:38:18Z</time>
      </trkpt>
      <trkpt lat="45.03871" lon="3.89686">
        <ele>705.75</ele>
        <time>2022-08-01T05:38:19Z</time>
      </trkpt>
      <trkpt lat="45.03869" lon="3.89687">
        <ele>706.23</ele>
        <time>2022-08-01T05:38:21Z</time>
      </trkpt>
      <trkpt lat="45.03856" lon="3.89704">
        <ele>704.78</ele>
        <time>2022-08-01T05:38:35Z</time>
      </trkpt>
      <trkpt lat="45.03846" lon="3.8971">
        <ele>704.78</ele>
        <time>2022-08-01T05:38:46Z</time>
      </trkpt>
      <trkpt lat="45.03845" lon="3.8971">
        <ele>704.3</ele>
        <time>2022-08-01T05:38:48Z</time>
      </trkpt>
      <trkpt lat="45.03844" lon="3.8971">
        <ele>704.3</ele>
        <time>2022-08-01T05:38:49Z</time>
      </trkpt>
      <trkpt lat="45.03824" lon="3.89709">
        <ele>706.23</ele>
        <time>2022-08-01T05:39:07Z</time>
      </trkpt>
      <trkpt lat="45.03819" lon="3.89709">
        <ele>706.71</ele>
        <time>2022-08-01T05:39:11Z</time>
      </trkpt>
      <trkpt lat="45.03818" lon="3.89709">
        <ele>707.19</ele>
        <time>2022-08-01T05:39:12Z</time>
      </trkpt>
      <trkpt lat="45.03799" lon="3.89706">
        <ele>709.11</ele>
        <time>2022-08-01T05:39:28Z</time>
      </trkpt>
      <trkpt lat="45.03784" lon="3.89702">
        <ele>711.99</ele>
        <time>2022-08-01T05:39:42Z</time>
      </trkpt>
      <trkpt lat="45.03765" lon="3.89704">
        <ele>712.95</ele>
        <time>2022-08-01T05:39:59Z</time>
      </trkpt>
      <trkpt lat="45.03751" lon="3.8972">
        <ele>712.47</ele>
        <time>2022-08-01T05:40:13Z</time>
      </trkpt>
      <trkpt lat="45.03742" lon="3.89739">
        <ele>711.99</ele>
        <time>2022-08-01T05:40:29Z</time>
      </trkpt>
      <trkpt lat="45.03728" lon="3.89752">
        <ele>715.84</ele>
        <time>2022-08-01T05:40:47Z</time>
      </trkpt>
      <trkpt lat="45.03717" lon="3.89763">
        <ele>719.2</ele>
        <time>2022-08-01T05:41:03Z</time>
      </trkpt>
      <trkpt lat="45.03705" lon="3.89771">
        <ele>725.45</ele>
        <time>2022-08-01T05:41:18Z</time>
      </trkpt>
      <trkpt lat="45.03693" lon="3.89779">
        <ele>730.26</ele>
        <time>2022-08-01T05:41:35Z</time>
      </trkpt>
      <trkpt lat="45.03682" lon="3.89785">
        <ele>733.62</ele>
        <time>2022-08-01T05:41:50Z</time>
      </trkpt>
      <trkpt lat="45.03671" lon="3.89793">
        <ele>737.95</ele>
        <time>2022-08-01T05:42:05Z</time>
      </trkpt>
      <trkpt lat="45.03664" lon="3.89801">
        <ele>739.87</ele>
        <time>2022-08-01T05:42:19Z</time>
      </trkpt>
      <trkpt lat="45.03661" lon="3.89805">
        <ele>741.31</ele>
        <time>2022-08-01T05:42:37Z</time>
      </trkpt>
      <trkpt lat="45.03663" lon="3.89809">
        <ele>737.95</ele>
        <time>2022-08-01T05:43:12Z</time>
      </trkpt>
      <trkpt lat="45.03665" lon="3.89806">
        <ele>739.87</ele>
        <time>2022-08-01T05:43:35Z</time>
      </trkpt>
      <trkpt lat="45.0366" lon="3.89808">
        <ele>740.83</ele>
        <time>2022-08-01T05:44:01Z</time>
      </trkpt>
      <trkpt lat="45.03653" lon="3.89821">
        <ele>741.31</ele>
        <time>2022-08-01T05:44:17Z</time>
      </trkpt>
      <trkpt lat="45.03643" lon="3.89829">
        <ele>743.72</ele>
        <time>2022-08-01T05:44:32Z</time>
      </trkpt>
      <trkpt lat="45.0363" lon="3.89834">
        <ele>746.6</ele>
        <time>2022-08-01T05:44:48Z</time>
      </trkpt>
      <trkpt lat="45.03617" lon="3.89846">
        <ele>750.45</ele>
        <time>2022-08-01T05:45:07Z</time>
      </trkpt>
      <trkpt lat="45.03607" lon="3.89857">
        <ele>753.81</ele>
        <time>2022-08-01T05:45:23Z</time>
      </trkpt>
      <trkpt lat="45.03596" lon="3.89868">
        <ele>757.66</ele>
        <time>2022-08-01T05:45:41Z</time>
      </trkpt>
      <trkpt lat="45.03586" lon="3.89883">
        <ele>759.1</ele>
        <time>2022-08-01T05:45:58Z</time>
      </trkpt>
      <trkpt lat="45.03575" lon="3.89896">
        <ele>760.54</ele>
        <time>2022-08-01T05:46:12Z</time>
      </trkpt>
      <trkpt lat="45.0357" lon="3.89903">
        <ele>761.98</ele>
        <time>2022-08-01T05:46:19Z</time>
      </trkpt>
      <trkpt lat="45.03556" lon="3.89923">
        <ele>760.06</ele>
        <time>2022-08-01T05:46:36Z</time>
      </trkpt>
      <trkpt lat="45.03551" lon="3.89942">
        <ele>761.98</ele>
        <time>2022-08-01T05:46:49Z</time>
      </trkpt>
      <trkpt lat="45.03546" lon="3.89965">
        <ele>764.39</ele>
        <time>2022-08-01T05:47:03Z</time>
      </trkpt>
      <trkpt lat="45.03542" lon="3.89989">
        <ele>766.31</ele>
        <time>2022-08-01T05:47:18Z</time>
      </trkpt>
      <trkpt lat="45.03541" lon="3.89993">
        <ele>766.31</ele>
        <time>2022-08-01T05:47:20Z</time>
      </trkpt>
      <trkpt lat="45.03541" lon="3.90001">
        <ele>766.31</ele>
        <time>2022-08-01T05:47:33Z</time>
      </trkpt>
      <trkpt lat="45.03533" lon="3.90021">
        <ele>770.15</ele>
        <time>2022-08-01T05:47:48Z</time>
      </trkpt>
      <trkpt lat="45.03529" lon="3.90041">
        <ele>770.15</ele>
        <time>2022-08-01T05:48:01Z</time>
      </trkpt>
      <trkpt lat="45.0353" lon="3.90046">
        <ele>771.6</ele>
        <time>2022-08-01T05:48:17Z</time>
      </trkpt>
      <trkpt lat="45.03535" lon="3.90047">
        <ele>768.23</ele>
        <time>2022-08-01T05:48:51Z</time>
      </trkpt>
      <trkpt lat="45.03532" lon="3.90042">
        <ele>766.31</ele>
        <time>2022-08-01T05:49:20Z</time>
      </trkpt>
      <trkpt lat="45.03525" lon="3.90047">
        <ele>766.79</ele>
        <time>2022-08-01T05:49:29Z</time>
      </trkpt>
      <trkpt lat="45.03521" lon="3.90048">
        <ele>767.27</ele>
        <time>2022-08-01T05:49:47Z</time>
      </trkpt>
      <trkpt lat="45.03509" lon="3.90054">
        <ele>767.27</ele>
        <time>2022-08-01T05:49:58Z</time>
      </trkpt>
      <trkpt lat="45.03497" lon="3.90068">
        <ele>771.6</ele>
        <time>2022-08-01T05:50:13Z</time>
      </trkpt>
      <trkpt lat="45.03495" lon="3.90069">
        <ele>772.08</ele>
        <time>2022-08-01T05:50:15Z</time>
      </trkpt>
      <trkpt lat="45.03489" lon="3.9009">
        <ele>776.88</ele>
        <time>2022-08-01T05:50:31Z</time>
      </trkpt>
      <trkpt lat="45.03488" lon="3.901">
        <ele>777.36</ele>
        <time>2022-08-01T05:50:38Z</time>
      </trkpt>
      <trkpt lat="45.03485" lon="3.90112">
        <ele>777.36</ele>
        <time>2022-08-01T05:50:48Z</time>
      </trkpt>
      <trkpt lat="45.0347" lon="3.90118">
        <ele>782.65</ele>
        <time>2022-08-01T05:51:03Z</time>
      </trkpt>
      <trkpt lat="45.03452" lon="3.90127">
        <ele>785.53</ele>
        <time>2022-08-01T05:51:19Z</time>
      </trkpt>
      <trkpt lat="45.03432" lon="3.90133">
        <ele>786.98</ele>
        <time>2022-08-01T05:51:36Z</time>
      </trkpt>
      <trkpt lat="45.03411" lon="3.90142">
        <ele>784.57</ele>
        <time>2022-08-01T05:51:51Z</time>
      </trkpt>
      <trkpt lat="45.03391" lon="3.90148">
        <ele>783.61</ele>
        <time>2022-08-01T05:52:08Z</time>
      </trkpt>
      <trkpt lat="45.03365" lon="3.90157">
        <ele>785.05</ele>
        <time>2022-08-01T05:52:25Z</time>
      </trkpt>
      <trkpt lat="45.03348" lon="3.90174">
        <ele>786.02</ele>
        <time>2022-08-01T05:52:41Z</time>
      </trkpt>
      <trkpt lat="45.03323" lon="3.9019">
        <ele>786.5</ele>
        <time>2022-08-01T05:53:00Z</time>
      </trkpt>
      <trkpt lat="45.03302" lon="3.90203">
        <ele>786.02</ele>
        <time>2022-08-01T05:53:17Z</time>
      </trkpt>
      <trkpt lat="45.03287" lon="3.90193">
        <ele>781.21</ele>
        <time>2022-08-01T05:53:33Z</time>
      </trkpt>
      <trkpt lat="45.03274" lon="3.90183">
        <ele>778.81</ele>
        <time>2022-08-01T05:53:45Z</time>
      </trkpt>
      <trkpt lat="45.03263" lon="3.90174">
        <ele>776.4</ele>
        <time>2022-08-01T05:53:59Z</time>
      </trkpt>
      <trkpt lat="45.0325" lon="3.90178">
        <ele>773.04</ele>
        <time>2022-08-01T05:54:13Z</time>
      </trkpt>
      <trkpt lat="45.03244" lon="3.9018">
        <ele>774</ele>
        <time>2022-08-01T05:54:19Z</time>
      </trkpt>
      <trkpt lat="45.03222" lon="3.902">
        <ele>773.52</ele>
        <time>2022-08-01T05:54:37Z</time>
      </trkpt>
      <trkpt lat="45.03217" lon="3.90228">
        <ele>769.19</ele>
        <time>2022-08-01T05:54:55Z</time>
      </trkpt>
      <trkpt lat="45.03218" lon="3.90236">
        <ele>767.75</ele>
        <time>2022-08-01T05:55:00Z</time>
      </trkpt>
      <trkpt lat="45.03204" lon="3.90258">
        <ele>763.9</ele>
        <time>2022-08-01T05:55:18Z</time>
      </trkpt>
      <trkpt lat="45.03185" lon="3.90259">
        <ele>758.14</ele>
        <time>2022-08-01T05:55:36Z</time>
      </trkpt>
      <trkpt lat="45.03164" lon="3.90264">
        <ele>756.21</ele>
        <time>2022-08-01T05:55:52Z</time>
      </trkpt>
      <trkpt lat="45.0315" lon="3.90288">
        <ele>755.73</ele>
        <time>2022-08-01T05:56:09Z</time>
      </trkpt>
      <trkpt lat="45.03154" lon="3.90322">
        <ele>753.33</ele>
        <time>2022-08-01T05:56:27Z</time>
      </trkpt>
      <trkpt lat="45.03158" lon="3.90354">
        <ele>751.89</ele>
        <time>2022-08-01T05:56:44Z</time>
      </trkpt>
      <trkpt lat="45.03163" lon="3.90388">
        <ele>751.89</ele>
        <time>2022-08-01T05:57:02Z</time>
      </trkpt>
      <trkpt lat="45.03166" lon="3.90418">
        <ele>752.37</ele>
        <time>2022-08-01T05:57:18Z</time>
      </trkpt>
      <trkpt lat="45.03171" lon="3.90447">
        <ele>750.93</ele>
        <time>2022-08-01T05:57:33Z</time>
      </trkpt>
      <trkpt lat="45.03173" lon="3.90474">
        <ele>750.45</ele>
        <time>2022-08-01T05:57:48Z</time>
      </trkpt>
      <trkpt lat="45.03174" lon="3.90506">
        <ele>749.49</ele>
        <time>2022-08-01T05:58:04Z</time>
      </trkpt>
      <trkpt lat="45.03173" lon="3.90529">
        <ele>749</ele>
        <time>2022-08-01T05:58:18Z</time>
      </trkpt>
      <trkpt lat="45.03152" lon="3.90543">
        <ele>749.97</ele>
        <time>2022-08-01T05:58:35Z</time>
      </trkpt>
      <trkpt lat="45.03128" lon="3.90545">
        <ele>749.97</ele>
        <time>2022-08-01T05:58:54Z</time>
      </trkpt>
      <trkpt lat="45.03106" lon="3.90548">
        <ele>750.45</ele>
        <time>2022-08-01T05:59:11Z</time>
      </trkpt>
      <trkpt lat="45.03099" lon="3.90572">
        <ele>752.37</ele>
        <time>2022-08-01T05:59:26Z</time>
      </trkpt>
      <trkpt lat="45.03102" lon="3.90602">
        <ele>753.33</ele>
        <time>2022-08-01T05:59:43Z</time>
      </trkpt>
      <trkpt lat="45.03101" lon="3.90631">
        <ele>753.33</ele>
        <time>2022-08-01T06:00:00Z</time>
      </trkpt>
      <trkpt lat="45.03103" lon="3.90661">
        <ele>756.21</ele>
        <time>2022-08-01T06:00:17Z</time>
      </trkpt>
      <trkpt lat="45.03112" lon="3.90685">
        <ele>758.14</ele>
        <time>2022-08-01T06:00:33Z</time>
      </trkpt>
      <trkpt lat="45.03116" lon="3.90696">
        <ele>759.1</ele>
        <time>2022-08-01T06:00:41Z</time>
      </trkpt>
      <trkpt lat="45.03099" lon="3.90715">
        <ele>759.58</ele>
        <time>2022-08-01T06:00:58Z</time>
      </trkpt>
      <trkpt lat="45.03081" lon="3.90731">
        <ele>760.54</ele>
        <time>2022-08-01T06:01:15Z</time>
      </trkpt>
      <trkpt lat="45.03062" lon="3.9074">
        <ele>761.5</ele>
        <time>2022-08-01T06:01:31Z</time>
      </trkpt>
      <trkpt lat="45.03045" lon="3.90745">
        <ele>761.98</ele>
        <time>2022-08-01T06:01:47Z</time>
      </trkpt>
      <trkpt lat="45.03036" lon="3.90748">
        <ele>762.46</ele>
        <time>2022-08-01T06:02:06Z</time>
      </trkpt>
      <trkpt lat="45.03018" lon="3.90759">
        <ele>763.9</ele>
        <time>2022-08-01T06:02:21Z</time>
      </trkpt>
      <trkpt lat="45.03003" lon="3.90775">
        <ele>764.87</ele>
        <time>2022-08-01T06:02:36Z</time>
      </trkpt>
      <trkpt lat="45.02991" lon="3.90789">
        <ele>766.31</ele>
        <time>2022-08-01T06:02:49Z</time>
      </trkpt>
      <trkpt lat="45.02978" lon="3.90807">
        <ele>770.63</ele>
        <time>2022-08-01T06:03:04Z</time>
      </trkpt>
      <trkpt lat="45.02965" lon="3.90823">
        <ele>773.04</ele>
        <time>2022-08-01T06:03:22Z</time>
      </trkpt>
      <trkpt lat="45.02954" lon="3.90839">
        <ele>776.88</ele>
        <time>2022-08-01T06:03:37Z</time>
      </trkpt>
      <trkpt lat="45.02945" lon="3.90856">
        <ele>779.29</ele>
        <time>2022-08-01T06:03:51Z</time>
      </trkpt>
      <trkpt lat="45.02936" lon="3.90871">
        <ele>782.65</ele>
        <time>2022-08-01T06:04:07Z</time>
      </trkpt>
      <trkpt lat="45.02926" lon="3.90883">
        <ele>784.57</ele>
        <time>2022-08-01T06:04:24Z</time>
      </trkpt>
      <trkpt lat="45.02916" lon="3.90895">
        <ele>786.98</ele>
        <time>2022-08-01T06:04:41Z</time>
      </trkpt>
      <trkpt lat="45.02904" lon="3.90902">
        <ele>787.94</ele>
        <time>2022-08-01T06:04:56Z</time>
      </trkpt>
      <trkpt lat="45.02893" lon="3.90909">
        <ele>790.82</ele>
        <time>2022-08-01T06:05:11Z</time>
      </trkpt>
      <trkpt lat="45.02883" lon="3.90914">
        <ele>793.71</ele>
        <time>2022-08-01T06:05:25Z</time>
      </trkpt>
      <trkpt lat="45.02871" lon="3.90923">
        <ele>795.15</ele>
        <time>2022-08-01T06:05:39Z</time>
      </trkpt>
      <trkpt lat="45.02866" lon="3.90926">
        <ele>796.59</ele>
        <time>2022-08-01T06:05:44Z</time>
      </trkpt>
      <trkpt lat="45.02853" lon="3.9094">
        <ele>799.95</ele>
        <time>2022-08-01T06:06:01Z</time>
      </trkpt>
      <trkpt lat="45.0284" lon="3.90947">
        <ele>801.88</ele>
        <time>2022-08-01T06:06:17Z</time>
      </trkpt>
      <trkpt lat="45.02827" lon="3.90955">
        <ele>805.24</ele>
        <time>2022-08-01T06:06:31Z</time>
      </trkpt>
      <trkpt lat="45.02823" lon="3.90958">
        <ele>806.2</ele>
        <time>2022-08-01T06:06:36Z</time>
      </trkpt>
      <trkpt lat="45.02807" lon="3.90968">
        <ele>809.09</ele>
        <time>2022-08-01T06:06:53Z</time>
      </trkpt>
      <trkpt lat="45.02788" lon="3.90975">
        <ele>810.53</ele>
        <time>2022-08-01T06:07:10Z</time>
      </trkpt>
      <trkpt lat="45.02767" lon="3.90984">
        <ele>811.97</ele>
        <time>2022-08-01T06:07:28Z</time>
      </trkpt>
      <trkpt lat="45.02748" lon="3.9099">
        <ele>812.93</ele>
        <time>2022-08-01T06:07:44Z</time>
      </trkpt>
      <trkpt lat="45.02739" lon="3.90994">
        <ele>813.41</ele>
        <time>2022-08-01T06:07:52Z</time>
      </trkpt>
      <trkpt lat="45.02726" lon="3.9101">
        <ele>816.3</ele>
        <time>2022-08-01T06:08:07Z</time>
      </trkpt>
      <trkpt lat="45.02721" lon="3.91013">
        <ele>816.78</ele>
        <time>2022-08-01T06:08:12Z</time>
      </trkpt>
      <trkpt lat="45.02703" lon="3.91019">
        <ele>817.74</ele>
        <time>2022-08-01T06:08:29Z</time>
      </trkpt>
      <trkpt lat="45.02696" lon="3.91019">
        <ele>817.26</ele>
        <time>2022-08-01T06:08:36Z</time>
      </trkpt>
      <trkpt lat="45.02677" lon="3.91015">
        <ele>816.78</ele>
        <time>2022-08-01T06:08:52Z</time>
      </trkpt>
      <trkpt lat="45.02657" lon="3.91015">
        <ele>817.26</ele>
        <time>2022-08-01T06:09:08Z</time>
      </trkpt>
      <trkpt lat="45.02641" lon="3.91015">
        <ele>818.7</ele>
        <time>2022-08-01T06:09:20Z</time>
      </trkpt>
      <trkpt lat="45.02635" lon="3.91015">
        <ele>819.66</ele>
        <time>2022-08-01T06:09:24Z</time>
      </trkpt>
      <trkpt lat="45.02614" lon="3.91016">
        <ele>822.06</ele>
        <time>2022-08-01T06:09:41Z</time>
      </trkpt>
      <trkpt lat="45.02595" lon="3.91022">
        <ele>822.55</ele>
        <time>2022-08-01T06:09:57Z</time>
      </trkpt>
      <trkpt lat="45.02575" lon="3.91025">
        <ele>823.03</ele>
        <time>2022-08-01T06:10:13Z</time>
      </trkpt>
      <trkpt lat="45.02552" lon="3.91032">
        <ele>825.43</ele>
        <time>2022-08-01T06:10:31Z</time>
      </trkpt>
      <trkpt lat="45.02531" lon="3.91041">
        <ele>826.39</ele>
        <time>2022-08-01T06:10:48Z</time>
      </trkpt>
      <trkpt lat="45.02514" lon="3.9105">
        <ele>828.31</ele>
        <time>2022-08-01T06:11:03Z</time>
      </trkpt>
      <trkpt lat="45.02498" lon="3.9106">
        <ele>830.72</ele>
        <time>2022-08-01T06:11:18Z</time>
      </trkpt>
      <trkpt lat="45.0248" lon="3.91056">
        <ele>828.31</ele>
        <time>2022-08-01T06:11:34Z</time>
      </trkpt>
      <trkpt lat="45.02464" lon="3.91051">
        <ele>827.83</ele>
        <time>2022-08-01T06:11:49Z</time>
      </trkpt>
      <trkpt lat="45.02462" lon="3.91051">
        <ele>827.83</ele>
        <time>2022-08-01T06:11:51Z</time>
      </trkpt>
      <trkpt lat="45.02438" lon="3.91052">
        <ele>830.24</ele>
        <time>2022-08-01T06:12:11Z</time>
      </trkpt>
      <trkpt lat="45.02415" lon="3.91057">
        <ele>831.2</ele>
        <time>2022-08-01T06:12:28Z</time>
      </trkpt>
      <trkpt lat="45.02396" lon="3.91064">
        <ele>830.72</ele>
        <time>2022-08-01T06:12:46Z</time>
      </trkpt>
      <trkpt lat="45.02391" lon="3.9107">
        <ele>833.6</ele>
        <time>2022-08-01T06:13:00Z</time>
      </trkpt>
      <trkpt lat="45.0238" lon="3.91077">
        <ele>834.08</ele>
        <time>2022-08-01T06:13:14Z</time>
      </trkpt>
      <trkpt lat="45.02367" lon="3.91085">
        <ele>835.52</ele>
        <time>2022-08-01T06:13:29Z</time>
      </trkpt>
      <trkpt lat="45.02358" lon="3.9109">
        <ele>836.96</ele>
        <time>2022-08-01T06:13:44Z</time>
      </trkpt>
      <trkpt lat="45.02351" lon="3.91097">
        <ele>837.93</ele>
        <time>2022-08-01T06:14:06Z</time>
      </trkpt>
      <trkpt lat="45.0234" lon="3.91103">
        <ele>836.96</ele>
        <time>2022-08-01T06:14:20Z</time>
      </trkpt>
      <trkpt lat="45.02328" lon="3.91112">
        <ele>836.96</ele>
        <time>2022-08-01T06:14:34Z</time>
      </trkpt>
      <trkpt lat="45.02309" lon="3.91127">
        <ele>836.96</ele>
        <time>2022-08-01T06:14:51Z</time>
      </trkpt>
      <trkpt lat="45.0229" lon="3.91137">
        <ele>836.48</ele>
        <time>2022-08-01T06:15:07Z</time>
      </trkpt>
      <trkpt lat="45.02269" lon="3.91147">
        <ele>836</ele>
        <time>2022-08-01T06:15:24Z</time>
      </trkpt>
      <trkpt lat="45.02247" lon="3.9116">
        <ele>835.52</ele>
        <time>2022-08-01T06:15:42Z</time>
      </trkpt>
      <trkpt lat="45.02225" lon="3.91176">
        <ele>835.52</ele>
        <time>2022-08-01T06:16:00Z</time>
      </trkpt>
      <trkpt lat="45.02204" lon="3.9119">
        <ele>835.52</ele>
        <time>2022-08-01T06:16:18Z</time>
      </trkpt>
      <trkpt lat="45.02185" lon="3.91206">
        <ele>835.04</ele>
        <time>2022-08-01T06:16:35Z</time>
      </trkpt>
      <trkpt lat="45.02168" lon="3.91223">
        <ele>834.08</ele>
        <time>2022-08-01T06:16:53Z</time>
      </trkpt>
      <trkpt lat="45.02152" lon="3.91246">
        <ele>834.56</ele>
        <time>2022-08-01T06:17:13Z</time>
      </trkpt>
      <trkpt lat="45.02139" lon="3.91263">
        <ele>834.08</ele>
        <time>2022-08-01T06:17:30Z</time>
      </trkpt>
      <trkpt lat="45.02128" lon="3.91282">
        <ele>833.6</ele>
        <time>2022-08-01T06:17:46Z</time>
      </trkpt>
      <trkpt lat="45.02115" lon="3.91305">
        <ele>832.16</ele>
        <time>2022-08-01T06:18:04Z</time>
      </trkpt>
      <trkpt lat="45.02102" lon="3.91322">
        <ele>830.72</ele>
        <time>2022-08-01T06:18:20Z</time>
      </trkpt>
      <trkpt lat="45.02087" lon="3.91337">
        <ele>829.27</ele>
        <time>2022-08-01T06:18:37Z</time>
      </trkpt>
      <trkpt lat="45.02084" lon="3.91338">
        <ele>828.31</ele>
        <time>2022-08-01T06:18:41Z</time>
      </trkpt>
      <trkpt lat="45.02066" lon="3.91337">
        <ele>822.55</ele>
        <time>2022-08-01T06:18:56Z</time>
      </trkpt>
      <trkpt lat="45.02047" lon="3.91336">
        <ele>819.66</ele>
        <time>2022-08-01T06:19:12Z</time>
      </trkpt>
      <trkpt lat="45.02028" lon="3.91333">
        <ele>816.78</ele>
        <time>2022-08-01T06:19:28Z</time>
      </trkpt>
      <trkpt lat="45.02011" lon="3.91341">
        <ele>816.3</ele>
        <time>2022-08-01T06:19:43Z</time>
      </trkpt>
      <trkpt lat="45.01994" lon="3.91347">
        <ele>815.82</ele>
        <time>2022-08-01T06:20:00Z</time>
      </trkpt>
      <trkpt lat="45.0198" lon="3.91353">
        <ele>814.37</ele>
        <time>2022-08-01T06:20:15Z</time>
      </trkpt>
      <trkpt lat="45.01964" lon="3.91358">
        <ele>813.89</ele>
        <time>2022-08-01T06:20:33Z</time>
      </trkpt>
      <trkpt lat="45.0196" lon="3.9136">
        <ele>813.41</ele>
        <time>2022-08-01T06:20:38Z</time>
      </trkpt>
      <trkpt lat="45.01947" lon="3.91366">
        <ele>811.01</ele>
        <time>2022-08-01T06:20:52Z</time>
      </trkpt>
      <trkpt lat="45.01942" lon="3.91367">
        <ele>809.57</ele>
        <time>2022-08-01T06:20:58Z</time>
      </trkpt>
      <trkpt lat="45.01921" lon="3.91375">
        <ele>806.68</ele>
        <time>2022-08-01T06:21:16Z</time>
      </trkpt>
      <trkpt lat="45.01904" lon="3.91383">
        <ele>802.36</ele>
        <time>2022-08-01T06:21:33Z</time>
      </trkpt>
      <trkpt lat="45.01883" lon="3.91391">
        <ele>800.92</ele>
        <time>2022-08-01T06:21:51Z</time>
      </trkpt>
      <trkpt lat="45.01866" lon="3.91389">
        <ele>798.51</ele>
        <time>2022-08-01T06:22:06Z</time>
      </trkpt>
      <trkpt lat="45.01845" lon="3.91393">
        <ele>796.59</ele>
        <time>2022-08-01T06:22:24Z</time>
      </trkpt>
      <trkpt lat="45.0182" lon="3.91396">
        <ele>795.15</ele>
        <time>2022-08-01T06:22:44Z</time>
      </trkpt>
      <trkpt lat="45.018" lon="3.914">
        <ele>794.67</ele>
        <time>2022-08-01T06:23:00Z</time>
      </trkpt>
      <trkpt lat="45.01785" lon="3.91405">
        <ele>794.67</ele>
        <time>2022-08-01T06:23:13Z</time>
      </trkpt>
      <trkpt lat="45.01766" lon="3.9141">
        <ele>794.67</ele>
        <time>2022-08-01T06:23:29Z</time>
      </trkpt>
      <trkpt lat="45.01743" lon="3.91412">
        <ele>793.71</ele>
        <time>2022-08-01T06:23:47Z</time>
      </trkpt>
      <trkpt lat="45.01726" lon="3.91415">
        <ele>793.22</ele>
        <time>2022-08-01T06:24:01Z</time>
      </trkpt>
      <trkpt lat="45.0171" lon="3.91424">
        <ele>793.22</ele>
        <time>2022-08-01T06:24:15Z</time>
      </trkpt>
      <trkpt lat="45.01708" lon="3.91425">
        <ele>793.22</ele>
        <time>2022-08-01T06:24:17Z</time>
      </trkpt>
      <trkpt lat="45.01691" lon="3.91442">
        <ele>793.22</ele>
        <time>2022-08-01T06:24:34Z</time>
      </trkpt>
      <trkpt lat="45.01675" lon="3.91458">
        <ele>794.19</ele>
        <time>2022-08-01T06:24:50Z</time>
      </trkpt>
      <trkpt lat="45.01657" lon="3.91473">
        <ele>795.63</ele>
        <time>2022-08-01T06:25:06Z</time>
      </trkpt>
      <trkpt lat="45.01637" lon="3.91484">
        <ele>795.15</ele>
        <time>2022-08-01T06:25:23Z</time>
      </trkpt>
      <trkpt lat="45.01614" lon="3.91489">
        <ele>794.67</ele>
        <time>2022-08-01T06:25:41Z</time>
      </trkpt>
      <trkpt lat="45.01595" lon="3.91485">
        <ele>794.19</ele>
        <time>2022-08-01T06:25:56Z</time>
      </trkpt>
      <trkpt lat="45.01588" lon="3.9146">
        <ele>794.19</ele>
        <time>2022-08-01T06:26:10Z</time>
      </trkpt>
      <trkpt lat="45.01584" lon="3.91445">
        <ele>795.15</ele>
        <time>2022-08-01T06:26:20Z</time>
      </trkpt>
      <trkpt lat="45.01575" lon="3.9142">
        <ele>797.07</ele>
        <time>2022-08-01T06:26:36Z</time>
      </trkpt>
      <trkpt lat="45.01567" lon="3.91395">
        <ele>796.11</ele>
        <time>2022-08-01T06:26:52Z</time>
      </trkpt>
      <trkpt lat="45.01553" lon="3.9137">
        <ele>793.71</ele>
        <time>2022-08-01T06:27:09Z</time>
      </trkpt>
      <trkpt lat="45.01535" lon="3.91367">
        <ele>790.82</ele>
        <time>2022-08-01T06:27:25Z</time>
      </trkpt>
      <trkpt lat="45.01515" lon="3.9138">
        <ele>788.9</ele>
        <time>2022-08-01T06:27:42Z</time>
      </trkpt>
      <trkpt lat="45.01497" lon="3.91383">
        <ele>788.42</ele>
        <time>2022-08-01T06:27:56Z</time>
      </trkpt>
      <trkpt lat="45.01477" lon="3.91378">
        <ele>788.42</ele>
        <time>2022-08-01T06:28:12Z</time>
      </trkpt>
      <trkpt lat="45.01458" lon="3.91372">
        <ele>787.94</ele>
        <time>2022-08-01T06:28:27Z</time>
      </trkpt>
      <trkpt lat="45.0144" lon="3.9136">
        <ele>787.46</ele>
        <time>2022-08-01T06:28:43Z</time>
      </trkpt>
      <trkpt lat="45.01422" lon="3.91346">
        <ele>788.9</ele>
        <time>2022-08-01T06:28:59Z</time>
      </trkpt>
      <trkpt lat="45.01406" lon="3.91356">
        <ele>786.98</ele>
        <time>2022-08-01T06:29:14Z</time>
      </trkpt>
      <trkpt lat="45.01396" lon="3.91376">
        <ele>789.38</ele>
        <time>2022-08-01T06:29:29Z</time>
      </trkpt>
      <trkpt lat="45.01374" lon="3.91386">
        <ele>790.82</ele>
        <time>2022-08-01T06:29:48Z</time>
      </trkpt>
      <trkpt lat="45.01369" lon="3.91384">
        <ele>790.34</ele>
        <time>2022-08-01T06:29:53Z</time>
      </trkpt>
      <trkpt lat="45.01353" lon="3.9137">
        <ele>788.9</ele>
        <time>2022-08-01T06:30:08Z</time>
      </trkpt>
      <trkpt lat="45.01336" lon="3.91355">
        <ele>789.38</ele>
        <time>2022-08-01T06:30:24Z</time>
      </trkpt>
      <trkpt lat="45.01323" lon="3.9133">
        <ele>790.82</ele>
        <time>2022-08-01T06:30:41Z</time>
      </trkpt>
      <trkpt lat="45.01313" lon="3.91309">
        <ele>792.26</ele>
        <time>2022-08-01T06:30:56Z</time>
      </trkpt>
      <trkpt lat="45.01303" lon="3.91281">
        <ele>792.26</ele>
        <time>2022-08-01T06:31:13Z</time>
      </trkpt>
      <trkpt lat="45.01298" lon="3.91248">
        <ele>793.22</ele>
        <time>2022-08-01T06:31:32Z</time>
      </trkpt>
      <trkpt lat="45.01302" lon="3.91217">
        <ele>793.22</ele>
        <time>2022-08-01T06:31:49Z</time>
      </trkpt>
      <trkpt lat="45.01307" lon="3.91191">
        <ele>793.22</ele>
        <time>2022-08-01T06:32:04Z</time>
      </trkpt>
      <trkpt lat="45.01313" lon="3.9116">
        <ele>793.22</ele>
        <time>2022-08-01T06:32:23Z</time>
      </trkpt>
      <trkpt lat="45.01318" lon="3.91133">
        <ele>793.22</ele>
        <time>2022-08-01T06:32:39Z</time>
      </trkpt>
      <trkpt lat="45.01324" lon="3.91106">
        <ele>793.22</ele>
        <time>2022-08-01T06:32:55Z</time>
      </trkpt>
      <trkpt lat="45.01328" lon="3.91075">
        <ele>794.67</ele>
        <time>2022-08-01T06:33:13Z</time>
      </trkpt>
      <trkpt lat="45.01334" lon="3.91047">
        <ele>796.11</ele>
        <time>2022-08-01T06:33:30Z</time>
      </trkpt>
      <trkpt lat="45.01339" lon="3.91017">
        <ele>796.59</ele>
        <time>2022-08-01T06:33:48Z</time>
      </trkpt>
      <trkpt lat="45.0134" lon="3.90988">
        <ele>798.03</ele>
        <time>2022-08-01T06:34:06Z</time>
      </trkpt>
      <trkpt lat="45.01338" lon="3.90963">
        <ele>798.51</ele>
        <time>2022-08-01T06:34:22Z</time>
      </trkpt>
      <trkpt lat="45.0134" lon="3.90948">
        <ele>798.51</ele>
        <time>2022-08-01T06:34:32Z</time>
      </trkpt>
      <trkpt lat="45.01342" lon="3.9093">
        <ele>799.47</ele>
        <time>2022-08-01T06:34:44Z</time>
      </trkpt>
      <trkpt lat="45.01342" lon="3.90921">
        <ele>799.95</ele>
        <time>2022-08-01T06:34:49Z</time>
      </trkpt>
      <trkpt lat="45.0135" lon="3.90897">
        <ele>799.95</ele>
        <time>2022-08-01T06:35:05Z</time>
      </trkpt>
      <trkpt lat="45.01345" lon="3.90877">
        <ele>801.88</ele>
        <time>2022-08-01T06:35:21Z</time>
      </trkpt>
      <trkpt lat="45.01333" lon="3.90859">
        <ele>802.36</ele>
        <time>2022-08-01T06:35:37Z</time>
      </trkpt>
      <trkpt lat="45.01322" lon="3.90836">
        <ele>803.8</ele>
        <time>2022-08-01T06:35:55Z</time>
      </trkpt>
      <trkpt lat="45.01316" lon="3.90827">
        <ele>804.76</ele>
        <time>2022-08-01T06:36:02Z</time>
      </trkpt>
      <trkpt lat="45.01304" lon="3.90804">
        <ele>806.68</ele>
        <time>2022-08-01T06:36:20Z</time>
      </trkpt>
      <trkpt lat="45.01293" lon="3.90783">
        <ele>807.16</ele>
        <time>2022-08-01T06:36:36Z</time>
      </trkpt>
      <trkpt lat="45.01283" lon="3.90762">
        <ele>807.64</ele>
        <time>2022-08-01T06:36:50Z</time>
      </trkpt>
      <trkpt lat="45.01269" lon="3.90741">
        <ele>809.09</ele>
        <time>2022-08-01T06:37:06Z</time>
      </trkpt>
      <trkpt lat="45.01255" lon="3.90718">
        <ele>809.09</ele>
        <time>2022-08-01T06:37:24Z</time>
      </trkpt>
      <trkpt lat="45.01245" lon="3.9069">
        <ele>810.53</ele>
        <time>2022-08-01T06:37:42Z</time>
      </trkpt>
      <trkpt lat="45.01243" lon="3.90674">
        <ele>811.01</ele>
        <time>2022-08-01T06:37:51Z</time>
      </trkpt>
      <trkpt lat="45.01239" lon="3.90672">
        <ele>811.49</ele>
        <time>2022-08-01T06:37:54Z</time>
      </trkpt>
      <trkpt lat="45.01235" lon="3.90674">
        <ele>811.49</ele>
        <time>2022-08-01T06:37:58Z</time>
      </trkpt>
      <trkpt lat="45.01218" lon="3.90694">
        <ele>812.45</ele>
        <time>2022-08-01T06:38:14Z</time>
      </trkpt>
      <trkpt lat="45.01199" lon="3.90716">
        <ele>812.93</ele>
        <time>2022-08-01T06:38:33Z</time>
      </trkpt>
      <trkpt lat="45.01181" lon="3.90735">
        <ele>811.01</ele>
        <time>2022-08-01T06:38:50Z</time>
      </trkpt>
      <trkpt lat="45.01165" lon="3.90751">
        <ele>808.61</ele>
        <time>2022-08-01T06:39:06Z</time>
      </trkpt>
      <trkpt lat="45.0115" lon="3.9077">
        <ele>806.68</ele>
        <time>2022-08-01T06:39:22Z</time>
      </trkpt>
      <trkpt lat="45.01136" lon="3.90791">
        <ele>805.72</ele>
        <time>2022-08-01T06:39:38Z</time>
      </trkpt>
      <trkpt lat="45.01124" lon="3.90817">
        <ele>806.2</ele>
        <time>2022-08-01T06:39:55Z</time>
      </trkpt>
      <trkpt lat="45.01112" lon="3.90844">
        <ele>805.72</ele>
        <time>2022-08-01T06:40:12Z</time>
      </trkpt>
      <trkpt lat="45.01101" lon="3.90869">
        <ele>805.24</ele>
        <time>2022-08-01T06:40:28Z</time>
      </trkpt>
      <trkpt lat="45.0109" lon="3.90896">
        <ele>804.76</ele>
        <time>2022-08-01T06:40:45Z</time>
      </trkpt>
      <trkpt lat="45.0108" lon="3.90926">
        <ele>804.28</ele>
        <time>2022-08-01T06:41:04Z</time>
      </trkpt>
      <trkpt lat="45.0107" lon="3.90957">
        <ele>803.32</ele>
        <time>2022-08-01T06:41:23Z</time>
      </trkpt>
      <trkpt lat="45.0106" lon="3.90985">
        <ele>801.4</ele>
        <time>2022-08-01T06:41:40Z</time>
      </trkpt>
      <trkpt lat="45.01049" lon="3.91012">
        <ele>802.36</ele>
        <time>2022-08-01T06:41:57Z</time>
      </trkpt>
      <trkpt lat="45.01038" lon="3.91036">
        <ele>801.88</ele>
        <time>2022-08-01T06:42:12Z</time>
      </trkpt>
      <trkpt lat="45.01026" lon="3.91058">
        <ele>800.92</ele>
        <time>2022-08-01T06:42:28Z</time>
      </trkpt>
      <trkpt lat="45.01011" lon="3.91082">
        <ele>798.99</ele>
        <time>2022-08-01T06:42:45Z</time>
      </trkpt>
      <trkpt lat="45.00998" lon="3.91099">
        <ele>797.07</ele>
        <time>2022-08-01T06:43:00Z</time>
      </trkpt>
      <trkpt lat="45.00995" lon="3.91102">
        <ele>796.59</ele>
        <time>2022-08-01T06:43:03Z</time>
      </trkpt>
      <trkpt lat="45.00991" lon="3.91106">
        <ele>796.11</ele>
        <time>2022-08-01T06:43:07Z</time>
      </trkpt>
      <trkpt lat="45.00971" lon="3.91107">
        <ele>793.22</ele>
        <time>2022-08-01T06:43:24Z</time>
      </trkpt>
      <trkpt lat="45.00952" lon="3.91099">
        <ele>792.74</ele>
        <time>2022-08-01T06:43:38Z</time>
      </trkpt>
      <trkpt lat="45.00936" lon="3.91091">
        <ele>790.82</ele>
        <time>2022-08-01T06:43:52Z</time>
      </trkpt>
      <trkpt lat="45.00914" lon="3.91075">
        <ele>786.98</ele>
        <time>2022-08-01T06:44:11Z</time>
      </trkpt>
      <trkpt lat="45.00896" lon="3.91069">
        <ele>785.53</ele>
        <time>2022-08-01T06:44:26Z</time>
      </trkpt>
      <trkpt lat="45.00873" lon="3.91064">
        <ele>784.09</ele>
        <time>2022-08-01T06:44:44Z</time>
      </trkpt>
      <trkpt lat="45.00855" lon="3.91062">
        <ele>784.09</ele>
        <time>2022-08-01T06:44:59Z</time>
      </trkpt>
      <trkpt lat="45.00841" lon="3.91063">
        <ele>782.17</ele>
        <time>2022-08-01T06:45:10Z</time>
      </trkpt>
      <trkpt lat="45.00833" lon="3.91063">
        <ele>781.69</ele>
        <time>2022-08-01T06:45:17Z</time>
      </trkpt>
      <trkpt lat="45.00813" lon="3.91062">
        <ele>782.17</ele>
        <time>2022-08-01T06:45:32Z</time>
      </trkpt>
      <trkpt lat="45.00792" lon="3.91062">
        <ele>779.77</ele>
        <time>2022-08-01T06:45:48Z</time>
      </trkpt>
      <trkpt lat="45.00772" lon="3.91066">
        <ele>775.44</ele>
        <time>2022-08-01T06:46:05Z</time>
      </trkpt>
      <trkpt lat="45.00757" lon="3.91069">
        <ele>772.08</ele>
        <time>2022-08-01T06:46:18Z</time>
      </trkpt>
      <trkpt lat="45.00739" lon="3.91075">
        <ele>768.71</ele>
        <time>2022-08-01T06:46:34Z</time>
      </trkpt>
      <trkpt lat="45.00717" lon="3.91085">
        <ele>763.42</ele>
        <time>2022-08-01T06:46:53Z</time>
      </trkpt>
      <trkpt lat="45.00701" lon="3.91102">
        <ele>761.5</ele>
        <time>2022-08-01T06:47:10Z</time>
      </trkpt>
      <trkpt lat="45.00692" lon="3.9111">
        <ele>760.54</ele>
        <time>2022-08-01T06:47:19Z</time>
      </trkpt>
      <trkpt lat="45.00677" lon="3.91126">
        <ele>759.1</ele>
        <time>2022-08-01T06:47:35Z</time>
      </trkpt>
      <trkpt lat="45.0066" lon="3.91141">
        <ele>757.18</ele>
        <time>2022-08-01T06:47:51Z</time>
      </trkpt>
      <trkpt lat="45.00648" lon="3.91152">
        <ele>755.73</ele>
        <time>2022-08-01T06:48:03Z</time>
      </trkpt>
      <trkpt lat="45.00644" lon="3.91157">
        <ele>754.77</ele>
        <time>2022-08-01T06:48:08Z</time>
      </trkpt>
      <trkpt lat="45.00623" lon="3.91175">
        <ele>753.33</ele>
        <time>2022-08-01T06:48:28Z</time>
      </trkpt>
      <trkpt lat="45.00611" lon="3.91185">
        <ele>752.37</ele>
        <time>2022-08-01T06:48:40Z</time>
      </trkpt>
      <trkpt lat="45.00607" lon="3.91193">
        <ele>750.93</ele>
        <time>2022-08-01T06:48:47Z</time>
      </trkpt>
      <trkpt lat="45.00608" lon="3.91213">
        <ele>749.49</ele>
        <time>2022-08-01T06:49:01Z</time>
      </trkpt>
      <trkpt lat="45.00611" lon="3.91223">
        <ele>748.52</ele>
        <time>2022-08-01T06:49:07Z</time>
      </trkpt>
      <trkpt lat="45.00607" lon="3.9123">
        <ele>747.08</ele>
        <time>2022-08-01T06:49:12Z</time>
      </trkpt>
      <trkpt lat="45.00589" lon="3.91238">
        <ele>742.28</ele>
        <time>2022-08-01T06:49:29Z</time>
      </trkpt>
      <trkpt lat="45.00569" lon="3.91239">
        <ele>739.39</ele>
        <time>2022-08-01T06:49:46Z</time>
      </trkpt>
      <trkpt lat="45.00561" lon="3.91236">
        <ele>737.95</ele>
        <time>2022-08-01T06:49:53Z</time>
      </trkpt>
      <trkpt lat="45.00544" lon="3.91244">
        <ele>736.99</ele>
        <time>2022-08-01T06:50:08Z</time>
      </trkpt>
      <trkpt lat="45.00528" lon="3.91252">
        <ele>735.07</ele>
        <time>2022-08-01T06:50:23Z</time>
      </trkpt>
      <trkpt lat="45.00511" lon="3.91264">
        <ele>734.58</ele>
        <time>2022-08-01T06:50:39Z</time>
      </trkpt>
      <trkpt lat="45.00495" lon="3.91279">
        <ele>732.66</ele>
        <time>2022-08-01T06:50:55Z</time>
      </trkpt>
      <trkpt lat="45.00481" lon="3.91296">
        <ele>730.74</ele>
        <time>2022-08-01T06:51:11Z</time>
      </trkpt>
      <trkpt lat="45.00469" lon="3.91309">
        <ele>729.78</ele>
        <time>2022-08-01T06:51:24Z</time>
      </trkpt>
      <trkpt lat="45.00465" lon="3.91311">
        <ele>729.3</ele>
        <time>2022-08-01T06:51:28Z</time>
      </trkpt>
      <trkpt lat="45.00456" lon="3.91305">
        <ele>725.93</ele>
        <time>2022-08-01T06:51:43Z</time>
      </trkpt>
      <trkpt lat="45.00453" lon="3.91303">
        <ele>724.49</ele>
        <time>2022-08-01T06:51:48Z</time>
      </trkpt>
      <trkpt lat="45.00455" lon="3.91317">
        <ele>724.01</ele>
        <time>2022-08-01T06:51:57Z</time>
      </trkpt>
      <trkpt lat="45.00445" lon="3.9133">
        <ele>724.97</ele>
        <time>2022-08-01T06:52:10Z</time>
      </trkpt>
      <trkpt lat="45.0044" lon="3.91336">
        <ele>725.45</ele>
        <time>2022-08-01T06:52:21Z</time>
      </trkpt>
      <trkpt lat="45.00443" lon="3.91325">
        <ele>725.45</ele>
        <time>2022-08-01T06:52:36Z</time>
      </trkpt>
      <trkpt lat="45.00442" lon="3.91326">
        <ele>724.49</ele>
        <time>2022-08-01T06:52:41Z</time>
      </trkpt>
      <trkpt lat="45.00429" lon="3.91337">
        <ele>724.49</ele>
        <time>2022-08-01T06:52:53Z</time>
      </trkpt>
      <trkpt lat="45.00418" lon="3.91332">
        <ele>724.49</ele>
        <time>2022-08-01T06:53:03Z</time>
      </trkpt>
      <trkpt lat="45.00408" lon="3.91336">
        <ele>724.01</ele>
        <time>2022-08-01T06:53:11Z</time>
      </trkpt>
      <trkpt lat="45.00403" lon="3.91334">
        <ele>724.01</ele>
        <time>2022-08-01T06:53:16Z</time>
      </trkpt>
      <trkpt lat="45.00386" lon="3.91325">
        <ele>723.05</ele>
        <time>2022-08-01T06:53:33Z</time>
      </trkpt>
      <trkpt lat="45.00364" lon="3.91314">
        <ele>721.61</ele>
        <time>2022-08-01T06:53:51Z</time>
      </trkpt>
      <trkpt lat="45.00351" lon="3.91303">
        <ele>721.61</ele>
        <time>2022-08-01T06:54:05Z</time>
      </trkpt>
      <trkpt lat="45.00346" lon="3.91302">
        <ele>720.16</ele>
        <time>2022-08-01T06:54:11Z</time>
      </trkpt>
      <trkpt lat="45.00345" lon="3.91305">
        <ele>719.2</ele>
        <time>2022-08-01T06:54:15Z</time>
      </trkpt>
      <trkpt lat="45.0034" lon="3.91302">
        <ele>718.72</ele>
        <time>2022-08-01T06:54:20Z</time>
      </trkpt>
      <trkpt lat="45.00326" lon="3.91298">
        <ele>716.8</ele>
        <time>2022-08-01T06:54:34Z</time>
      </trkpt>
      <trkpt lat="45.00323" lon="3.91296">
        <ele>716.32</ele>
        <time>2022-08-01T06:54:37Z</time>
      </trkpt>
      <trkpt lat="45.00321" lon="3.91296">
        <ele>715.84</ele>
        <time>2022-08-01T06:54:39Z</time>
      </trkpt>
      <trkpt lat="45.00319" lon="3.91299">
        <ele>715.36</ele>
        <time>2022-08-01T06:54:43Z</time>
      </trkpt>
      <trkpt lat="45.00312" lon="3.91302">
        <ele>715.36</ele>
        <time>2022-08-01T06:54:49Z</time>
      </trkpt>
      <trkpt lat="45.00303" lon="3.91318">
        <ele>711.99</ele>
        <time>2022-08-01T06:55:03Z</time>
      </trkpt>
      <trkpt lat="45.00306" lon="3.91344">
        <ele>709.59</ele>
        <time>2022-08-01T06:55:20Z</time>
      </trkpt>
      <trkpt lat="45.00309" lon="3.91364">
        <ele>706.71</ele>
        <time>2022-08-01T06:55:35Z</time>
      </trkpt>
      <trkpt lat="45.0031" lon="3.91365">
        <ele>705.75</ele>
        <time>2022-08-01T06:55:47Z</time>
      </trkpt>
      <trkpt lat="45.00312" lon="3.91375">
        <ele>706.71</ele>
        <time>2022-08-01T06:55:58Z</time>
      </trkpt>
      <trkpt lat="45.00313" lon="3.91399">
        <ele>703.34</ele>
        <time>2022-08-01T06:56:13Z</time>
      </trkpt>
      <trkpt lat="45.00307" lon="3.91424">
        <ele>699.98</ele>
        <time>2022-08-01T06:56:29Z</time>
      </trkpt>
      <trkpt lat="45.00294" lon="3.91442">
        <ele>697.09</ele>
        <time>2022-08-01T06:56:45Z</time>
      </trkpt>
      <trkpt lat="45.00293" lon="3.91444">
        <ele>697.09</ele>
        <time>2022-08-01T06:56:47Z</time>
      </trkpt>
      <trkpt lat="45.00277" lon="3.91458">
        <ele>695.65</ele>
        <time>2022-08-01T06:57:03Z</time>
      </trkpt>
      <trkpt lat="45.00256" lon="3.91472">
        <ele>695.65</ele>
        <time>2022-08-01T06:57:21Z</time>
      </trkpt>
      <trkpt lat="45.00242" lon="3.91483">
        <ele>694.21</ele>
        <time>2022-08-01T06:57:35Z</time>
      </trkpt>
      <trkpt lat="45.00224" lon="3.91496">
        <ele>693.73</ele>
        <time>2022-08-01T06:57:50Z</time>
      </trkpt>
      <trkpt lat="45.00209" lon="3.91504">
        <ele>692.29</ele>
        <time>2022-08-01T06:58:04Z</time>
      </trkpt>
      <trkpt lat="45.00191" lon="3.91515">
        <ele>688.92</ele>
        <time>2022-08-01T06:58:22Z</time>
      </trkpt>
      <trkpt lat="45.00174" lon="3.91526">
        <ele>687.48</ele>
        <time>2022-08-01T06:58:37Z</time>
      </trkpt>
      <trkpt lat="45.00157" lon="3.91536">
        <ele>686.04</ele>
        <time>2022-08-01T06:58:53Z</time>
      </trkpt>
      <trkpt lat="45.0014" lon="3.91545">
        <ele>686.04</ele>
        <time>2022-08-01T06:59:08Z</time>
      </trkpt>
      <trkpt lat="45.00122" lon="3.91556">
        <ele>687</ele>
        <time>2022-08-01T06:59:24Z</time>
      </trkpt>
      <trkpt lat="45.00105" lon="3.91566">
        <ele>687</ele>
        <time>2022-08-01T06:59:40Z</time>
      </trkpt>
      <trkpt lat="45.00087" lon="3.9157">
        <ele>684.6</ele>
        <time>2022-08-01T06:59:56Z</time>
      </trkpt>
      <trkpt lat="45.00074" lon="3.91582">
        <ele>680.75</ele>
        <time>2022-08-01T07:00:11Z</time>
      </trkpt>
      <trkpt lat="45.0008" lon="3.91598">
        <ele>677.39</ele>
        <time>2022-08-01T07:00:23Z</time>
      </trkpt>
      <trkpt lat="45.0009" lon="3.91609">
        <ele>674.98</ele>
        <time>2022-08-01T07:00:34Z</time>
      </trkpt>
      <trkpt lat="45.00103" lon="3.91626">
        <ele>672.1</ele>
        <time>2022-08-01T07:00:50Z</time>
      </trkpt>
      <trkpt lat="45.00106" lon="3.91651">
        <ele>668.25</ele>
        <time>2022-08-01T07:01:06Z</time>
      </trkpt>
      <trkpt lat="45.00104" lon="3.91676">
        <ele>665.37</ele>
        <time>2022-08-01T07:01:21Z</time>
      </trkpt>
      <trkpt lat="45.00097" lon="3.91698">
        <ele>663.93</ele>
        <time>2022-08-01T07:01:38Z</time>
      </trkpt>
      <trkpt lat="45.00094" lon="3.91699">
        <ele>663.93</ele>
        <time>2022-08-01T07:01:40Z</time>
      </trkpt>
      <trkpt lat="45.00078" lon="3.91702">
        <ele>664.41</ele>
        <time>2022-08-01T07:01:53Z</time>
      </trkpt>
      <trkpt lat="45.00059" lon="3.91703">
        <ele>664.89</ele>
        <time>2022-08-01T07:02:09Z</time>
      </trkpt>
      <trkpt lat="45.00042" lon="3.91703">
        <ele>663.93</ele>
        <time>2022-08-01T07:02:22Z</time>
      </trkpt>
      <trkpt lat="45.00038" lon="3.91704">
        <ele>663.93</ele>
        <time>2022-08-01T07:02:26Z</time>
      </trkpt>
      <trkpt lat="45.00019" lon="3.91704">
        <ele>663.93</ele>
        <time>2022-08-01T07:02:41Z</time>
      </trkpt>
      <trkpt lat="45.00001" lon="3.91704">
        <ele>663.45</ele>
        <time>2022-08-01T07:02:56Z</time>
      </trkpt>
      <trkpt lat="44.99983" lon="3.91705">
        <ele>662.01</ele>
        <time>2022-08-01T07:03:11Z</time>
      </trkpt>
      <trkpt lat="44.99963" lon="3.91705">
        <ele>657.68</ele>
        <time>2022-08-01T07:03:28Z</time>
      </trkpt>
      <trkpt lat="44.99947" lon="3.91701">
        <ele>654.8</ele>
        <time>2022-08-01T07:03:44Z</time>
      </trkpt>
      <trkpt lat="44.99928" lon="3.91705">
        <ele>652.87</ele>
        <time>2022-08-01T07:04:00Z</time>
      </trkpt>
      <trkpt lat="44.99915" lon="3.91718">
        <ele>649.51</ele>
        <time>2022-08-01T07:04:15Z</time>
      </trkpt>
      <trkpt lat="44.99909" lon="3.91723">
        <ele>649.51</ele>
        <time>2022-08-01T07:04:21Z</time>
      </trkpt>
      <trkpt lat="44.99896" lon="3.91734">
        <ele>647.1</ele>
        <time>2022-08-01T07:04:35Z</time>
      </trkpt>
      <trkpt lat="44.99887" lon="3.91743">
        <ele>645.18</ele>
        <time>2022-08-01T07:04:45Z</time>
      </trkpt>
      <trkpt lat="44.99886" lon="3.91737">
        <ele>642.78</ele>
        <time>2022-08-01T07:04:52Z</time>
      </trkpt>
      <trkpt lat="44.99882" lon="3.91726">
        <ele>642.3</ele>
        <time>2022-08-01T07:05:01Z</time>
      </trkpt>
      <trkpt lat="44.99878" lon="3.91721">
        <ele>641.34</ele>
        <time>2022-08-01T07:05:05Z</time>
      </trkpt>
      <trkpt lat="44.99871" lon="3.91707">
        <ele>639.41</ele>
        <time>2022-08-01T07:05:15Z</time>
      </trkpt>
      <trkpt lat="44.99868" lon="3.91705">
        <ele>638.93</ele>
        <time>2022-08-01T07:05:18Z</time>
      </trkpt>
      <trkpt lat="44.99845" lon="3.91711">
        <ele>641.34</ele>
        <time>2022-08-01T07:05:35Z</time>
      </trkpt>
      <trkpt lat="44.99825" lon="3.91718">
        <ele>642.3</ele>
        <time>2022-08-01T07:05:53Z</time>
      </trkpt>
      <trkpt lat="44.99809" lon="3.91723">
        <ele>640.86</ele>
        <time>2022-08-01T07:06:08Z</time>
      </trkpt>
      <trkpt lat="44.99793" lon="3.91728">
        <ele>639.89</ele>
        <time>2022-08-01T07:06:23Z</time>
      </trkpt>
      <trkpt lat="44.99776" lon="3.91733">
        <ele>640.38</ele>
        <time>2022-08-01T07:06:38Z</time>
      </trkpt>
      <trkpt lat="44.99755" lon="3.91737">
        <ele>638.93</ele>
        <time>2022-08-01T07:06:54Z</time>
      </trkpt>
      <trkpt lat="44.99736" lon="3.91746">
        <ele>638.93</ele>
        <time>2022-08-01T07:07:08Z</time>
      </trkpt>
      <trkpt lat="44.99731" lon="3.91768">
        <ele>638.93</ele>
        <time>2022-08-01T07:07:21Z</time>
      </trkpt>
      <trkpt lat="44.99727" lon="3.91773">
        <ele>638.45</ele>
        <time>2022-08-01T07:07:25Z</time>
      </trkpt>
      <trkpt lat="44.99723" lon="3.91791">
        <ele>639.89</ele>
        <time>2022-08-01T07:07:40Z</time>
      </trkpt>
      <trkpt lat="44.99723" lon="3.918">
        <ele>640.86</ele>
        <time>2022-08-01T07:07:51Z</time>
      </trkpt>
      <trkpt lat="44.99721" lon="3.91799">
        <ele>641.34</ele>
        <time>2022-08-01T07:07:52Z</time>
      </trkpt>
      <trkpt lat="44.99714" lon="3.91801">
        <ele>642.3</ele>
        <time>2022-08-01T07:07:58Z</time>
      </trkpt>
      <trkpt lat="44.99696" lon="3.91811">
        <ele>642.3</ele>
        <time>2022-08-01T07:08:12Z</time>
      </trkpt>
      <trkpt lat="44.9969" lon="3.91821">
        <ele>642.78</ele>
        <time>2022-08-01T07:08:20Z</time>
      </trkpt>
      <trkpt lat="44.99687" lon="3.91822">
        <ele>642.78</ele>
        <time>2022-08-01T07:08:23Z</time>
      </trkpt>
      <trkpt lat="44.99685" lon="3.91823">
        <ele>642.78</ele>
        <time>2022-08-01T07:08:25Z</time>
      </trkpt>
      <trkpt lat="44.99674" lon="3.91832">
        <ele>642.78</ele>
        <time>2022-08-01T07:08:38Z</time>
      </trkpt>
      <trkpt lat="44.99667" lon="3.91834">
        <ele>643.26</ele>
        <time>2022-08-01T07:08:44Z</time>
      </trkpt>
      <trkpt lat="44.99656" lon="3.91839">
        <ele>646.14</ele>
        <time>2022-08-01T07:08:56Z</time>
      </trkpt>
      <trkpt lat="44.99635" lon="3.91832">
        <ele>652.39</ele>
        <time>2022-08-01T07:09:11Z</time>
      </trkpt>
      <trkpt lat="44.99623" lon="3.91825">
        <ele>658.16</ele>
        <time>2022-08-01T07:09:21Z</time>
      </trkpt>
      <trkpt lat="44.99606" lon="3.91814">
        <ele>666.33</ele>
        <time>2022-08-01T07:09:34Z</time>
      </trkpt>
      <trkpt lat="44.99607" lon="3.91824">
        <ele>668.25</ele>
        <time>2022-08-01T07:09:44Z</time>
      </trkpt>
      <trkpt lat="44.99609" lon="3.91825">
        <ele>668.25</ele>
        <time>2022-08-01T07:09:45Z</time>
      </trkpt>
      <trkpt lat="44.99609" lon="3.91825">
        <ele>667.77</ele>
        <time>2022-08-01T07:09:46Z</time>
      </trkpt>
      <trkpt lat="44.99608" lon="3.91825">
        <ele>666.81</ele>
        <time>2022-08-01T07:09:47Z</time>
      </trkpt>
      <trkpt lat="44.99607" lon="3.91824">
        <ele>667.29</ele>
        <time>2022-08-01T07:09:50Z</time>
      </trkpt>
      <trkpt lat="44.9959" lon="3.91823">
        <ele>662.97</ele>
        <time>2022-08-01T07:10:02Z</time>
      </trkpt>
      <trkpt lat="44.9957" lon="3.91819">
        <ele>653.35</ele>
        <time>2022-08-01T07:10:15Z</time>
      </trkpt>
      <trkpt lat="44.99557" lon="3.91813">
        <ele>650.95</ele>
        <time>2022-08-01T07:10:27Z</time>
      </trkpt>
      <trkpt lat="44.99544" lon="3.91804">
        <ele>650.47</ele>
        <time>2022-08-01T07:10:41Z</time>
      </trkpt>
      <trkpt lat="44.99531" lon="3.91798">
        <ele>651.91</ele>
        <time>2022-08-01T07:10:57Z</time>
      </trkpt>
      <trkpt lat="44.99516" lon="3.91788">
        <ele>652.39</ele>
        <time>2022-08-01T07:11:11Z</time>
      </trkpt>
      <trkpt lat="44.99501" lon="3.91781">
        <ele>655.76</ele>
        <time>2022-08-01T07:11:26Z</time>
      </trkpt>
      <trkpt lat="44.99485" lon="3.91778">
        <ele>659.12</ele>
        <time>2022-08-01T07:11:41Z</time>
      </trkpt>
      <trkpt lat="44.9947" lon="3.91775">
        <ele>660.56</ele>
        <time>2022-08-01T07:11:54Z</time>
      </trkpt>
      <trkpt lat="44.99453" lon="3.91786">
        <ele>661.52</ele>
        <time>2022-08-01T07:12:10Z</time>
      </trkpt>
      <trkpt lat="44.9945" lon="3.9179">
        <ele>662.97</ele>
        <time>2022-08-01T07:12:14Z</time>
      </trkpt>
      <trkpt lat="44.9944" lon="3.9181">
        <ele>667.77</ele>
        <time>2022-08-01T07:12:30Z</time>
      </trkpt>
      <trkpt lat="44.9943" lon="3.91824">
        <ele>670.18</ele>
        <time>2022-08-01T07:12:44Z</time>
      </trkpt>
      <trkpt lat="44.99415" lon="3.91838">
        <ele>668.73</ele>
        <time>2022-08-01T07:12:58Z</time>
      </trkpt>
      <trkpt lat="44.99401" lon="3.91851">
        <ele>668.25</ele>
        <time>2022-08-01T07:13:13Z</time>
      </trkpt>
      <trkpt lat="44.99391" lon="3.91864">
        <ele>669.22</ele>
        <time>2022-08-01T07:13:28Z</time>
      </trkpt>
      <trkpt lat="44.99381" lon="3.91869">
        <ele>671.62</ele>
        <time>2022-08-01T07:13:37Z</time>
      </trkpt>
      <trkpt lat="44.99368" lon="3.91885">
        <ele>673.06</ele>
        <time>2022-08-01T07:13:52Z</time>
      </trkpt>
      <trkpt lat="44.99357" lon="3.91899">
        <ele>673.06</ele>
        <time>2022-08-01T07:14:05Z</time>
      </trkpt>
      <trkpt lat="44.99356" lon="3.91901">
        <ele>673.06</ele>
        <time>2022-08-01T07:14:07Z</time>
      </trkpt>
      <trkpt lat="44.99353" lon="3.91915">
        <ele>673.06</ele>
        <time>2022-08-01T07:14:16Z</time>
      </trkpt>
      <trkpt lat="44.99352" lon="3.91917">
        <ele>673.06</ele>
        <time>2022-08-01T07:14:17Z</time>
      </trkpt>
      <trkpt lat="44.99351" lon="3.91919">
        <ele>673.54</ele>
        <time>2022-08-01T07:14:19Z</time>
      </trkpt>
      <trkpt lat="44.9935" lon="3.91922">
        <ele>673.54</ele>
        <time>2022-08-01T07:14:21Z</time>
      </trkpt>
      <trkpt lat="44.99341" lon="3.91942">
        <ele>674.98</ele>
        <time>2022-08-01T07:14:37Z</time>
      </trkpt>
      <trkpt lat="44.99333" lon="3.91961">
        <ele>676.91</ele>
        <time>2022-08-01T07:14:52Z</time>
      </trkpt>
      <trkpt lat="44.99325" lon="3.91977">
        <ele>679.31</ele>
        <time>2022-08-01T07:15:06Z</time>
      </trkpt>
      <trkpt lat="44.99324" lon="3.91979">
        <ele>679.79</ele>
        <time>2022-08-01T07:15:08Z</time>
      </trkpt>
      <trkpt lat="44.99322" lon="3.91982">
        <ele>679.79</ele>
        <time>2022-08-01T07:15:11Z</time>
      </trkpt>
      <trkpt lat="44.99319" lon="3.91988">
        <ele>679.31</ele>
        <time>2022-08-01T07:15:15Z</time>
      </trkpt>
      <trkpt lat="44.99312" lon="3.92007">
        <ele>681.71</ele>
        <time>2022-08-01T07:15:29Z</time>
      </trkpt>
      <trkpt lat="44.9931" lon="3.9201">
        <ele>682.19</ele>
        <time>2022-08-01T07:15:32Z</time>
      </trkpt>
      <trkpt lat="44.99307" lon="3.92013">
        <ele>683.15</ele>
        <time>2022-08-01T07:15:36Z</time>
      </trkpt>
      <trkpt lat="44.99306" lon="3.92015">
        <ele>683.15</ele>
        <time>2022-08-01T07:15:37Z</time>
      </trkpt>
      <trkpt lat="44.99305" lon="3.92016">
        <ele>683.15</ele>
        <time>2022-08-01T07:15:38Z</time>
      </trkpt>
      <trkpt lat="44.99305" lon="3.92017">
        <ele>683.15</ele>
        <time>2022-08-01T07:15:39Z</time>
      </trkpt>
      <trkpt lat="44.99304" lon="3.92019">
        <ele>683.15</ele>
        <time>2022-08-01T07:15:40Z</time>
      </trkpt>
      <trkpt lat="44.99303" lon="3.9202">
        <ele>683.15</ele>
        <time>2022-08-01T07:15:41Z</time>
      </trkpt>
      <trkpt lat="44.99302" lon="3.92021">
        <ele>683.63</ele>
        <time>2022-08-01T07:15:43Z</time>
      </trkpt>
      <trkpt lat="44.99301" lon="3.92023">
        <ele>684.12</ele>
        <time>2022-08-01T07:15:45Z</time>
      </trkpt>
      <trkpt lat="44.99297" lon="3.92032">
        <ele>685.08</ele>
        <time>2022-08-01T07:15:52Z</time>
      </trkpt>
      <trkpt lat="44.99286" lon="3.9205">
        <ele>686.04</ele>
        <time>2022-08-01T07:16:06Z</time>
      </trkpt>
      <trkpt lat="44.99268" lon="3.92065">
        <ele>687.48</ele>
        <time>2022-08-01T07:16:24Z</time>
      </trkpt>
      <trkpt lat="44.9925" lon="3.92065">
        <ele>688.44</ele>
        <time>2022-08-01T07:16:39Z</time>
      </trkpt>
      <trkpt lat="44.99236" lon="3.92064">
        <ele>688.44</ele>
        <time>2022-08-01T07:16:52Z</time>
      </trkpt>
      <trkpt lat="44.99231" lon="3.92063">
        <ele>689.88</ele>
        <time>2022-08-01T07:16:58Z</time>
      </trkpt>
      <trkpt lat="44.9922" lon="3.92058">
        <ele>691.33</ele>
        <time>2022-08-01T07:17:10Z</time>
      </trkpt>
      <trkpt lat="44.99203" lon="3.92055">
        <ele>693.25</ele>
        <time>2022-08-01T07:17:25Z</time>
      </trkpt>
      <trkpt lat="44.99188" lon="3.9205">
        <ele>695.65</ele>
        <time>2022-08-01T07:17:41Z</time>
      </trkpt>
      <trkpt lat="44.99173" lon="3.92045">
        <ele>700.46</ele>
        <time>2022-08-01T07:17:56Z</time>
      </trkpt>
      <trkpt lat="44.99168" lon="3.92036">
        <ele>701.9</ele>
        <time>2022-08-01T07:18:08Z</time>
      </trkpt>
      <trkpt lat="44.99166" lon="3.92032">
        <ele>702.38</ele>
        <time>2022-08-01T07:18:13Z</time>
      </trkpt>
      <trkpt lat="44.99164" lon="3.92019">
        <ele>700.46</ele>
        <time>2022-08-01T07:18:26Z</time>
      </trkpt>
      <trkpt lat="44.99157" lon="3.92002">
        <ele>698.05</ele>
        <time>2022-08-01T07:18:40Z</time>
      </trkpt>
      <trkpt lat="44.99152" lon="3.91984">
        <ele>700.46</ele>
        <time>2022-08-01T07:18:55Z</time>
      </trkpt>
      <trkpt lat="44.9915" lon="3.91967">
        <ele>706.71</ele>
        <time>2022-08-01T07:19:11Z</time>
      </trkpt>
      <trkpt lat="44.99143" lon="3.91943">
        <ele>707.19</ele>
        <time>2022-08-01T07:19:28Z</time>
      </trkpt>
      <trkpt lat="44.99132" lon="3.9193">
        <ele>710.55</ele>
        <time>2022-08-01T07:19:43Z</time>
      </trkpt>
      <trkpt lat="44.99129" lon="3.91928">
        <ele>711.51</ele>
        <time>2022-08-01T07:19:46Z</time>
      </trkpt>
      <trkpt lat="44.9912" lon="3.9192">
        <ele>712.47</ele>
        <time>2022-08-01T07:19:56Z</time>
      </trkpt>
      <trkpt lat="44.99104" lon="3.91905">
        <ele>714.88</ele>
        <time>2022-08-01T07:20:13Z</time>
      </trkpt>
      <trkpt lat="44.99089" lon="3.91888">
        <ele>717.76</ele>
        <time>2022-08-01T07:20:30Z</time>
      </trkpt>
      <trkpt lat="44.99077" lon="3.91876">
        <ele>720.65</ele>
        <time>2022-08-01T07:20:44Z</time>
      </trkpt>
      <trkpt lat="44.9907" lon="3.91863">
        <ele>723.05</ele>
        <time>2022-08-01T07:20:58Z</time>
      </trkpt>
      <trkpt lat="44.99066" lon="3.91843">
        <ele>724.01</ele>
        <time>2022-08-01T07:21:15Z</time>
      </trkpt>
      <trkpt lat="44.99065" lon="3.91841">
        <ele>724.01</ele>
        <time>2022-08-01T07:21:16Z</time>
      </trkpt>
      <trkpt lat="44.99065" lon="3.91826">
        <ele>726.41</ele>
        <time>2022-08-01T07:21:29Z</time>
      </trkpt>
      <trkpt lat="44.99066" lon="3.91808">
        <ele>728.34</ele>
        <time>2022-08-01T07:21:43Z</time>
      </trkpt>
      <trkpt lat="44.99069" lon="3.91788">
        <ele>729.78</ele>
        <time>2022-08-01T07:21:57Z</time>
      </trkpt>
      <trkpt lat="44.99071" lon="3.9177">
        <ele>730.74</ele>
        <time>2022-08-01T07:22:11Z</time>
      </trkpt>
      <trkpt lat="44.99073" lon="3.91765">
        <ele>730.26</ele>
        <time>2022-08-01T07:22:16Z</time>
      </trkpt>
      <trkpt lat="44.99075" lon="3.91744">
        <ele>733.62</ele>
        <time>2022-08-01T07:22:29Z</time>
      </trkpt>
      <trkpt lat="44.9908" lon="3.91723">
        <ele>735.55</ele>
        <time>2022-08-01T07:22:43Z</time>
      </trkpt>
      <trkpt lat="44.99084" lon="3.91707">
        <ele>738.91</ele>
        <time>2022-08-01T07:22:58Z</time>
      </trkpt>
      <trkpt lat="44.9908" lon="3.91698">
        <ele>740.83</ele>
        <time>2022-08-01T07:23:05Z</time>
      </trkpt>
      <trkpt lat="44.99076" lon="3.91697">
        <ele>741.79</ele>
        <time>2022-08-01T07:23:07Z</time>
      </trkpt>
      <trkpt lat="44.99074" lon="3.91696">
        <ele>741.79</ele>
        <time>2022-08-01T07:23:08Z</time>
      </trkpt>
      <trkpt lat="44.99072" lon="3.91695">
        <ele>741.79</ele>
        <time>2022-08-01T07:23:09Z</time>
      </trkpt>
      <trkpt lat="44.9907" lon="3.91695">
        <ele>741.79</ele>
        <time>2022-08-01T07:23:10Z</time>
      </trkpt>
      <trkpt lat="44.99069" lon="3.91694">
        <ele>741.79</ele>
        <time>2022-08-01T07:23:11Z</time>
      </trkpt>
      <trkpt lat="44.99068" lon="3.91694">
        <ele>741.79</ele>
        <time>2022-08-01T07:23:12Z</time>
      </trkpt>
      <trkpt lat="44.99053" lon="3.91684">
        <ele>742.76</ele>
        <time>2022-08-01T07:23:26Z</time>
      </trkpt>
      <trkpt lat="44.99037" lon="3.91675">
        <ele>746.12</ele>
        <time>2022-08-01T07:23:44Z</time>
      </trkpt>
      <trkpt lat="44.99029" lon="3.91666">
        <ele>747.56</ele>
        <time>2022-08-01T07:23:57Z</time>
      </trkpt>
      <trkpt lat="44.9903" lon="3.91659">
        <ele>749.49</ele>
        <time>2022-08-01T07:24:04Z</time>
      </trkpt>
      <trkpt lat="44.99039" lon="3.91654">
        <ele>748.04</ele>
        <time>2022-08-01T07:24:16Z</time>
      </trkpt>
      <trkpt lat="44.9905" lon="3.9164">
        <ele>749.49</ele>
        <time>2022-08-01T07:24:31Z</time>
      </trkpt>
      <trkpt lat="44.99062" lon="3.91624">
        <ele>750.45</ele>
        <time>2022-08-01T07:24:46Z</time>
      </trkpt>
      <trkpt lat="44.99074" lon="3.91611">
        <ele>751.89</ele>
        <time>2022-08-01T07:25:00Z</time>
      </trkpt>
      <trkpt lat="44.99084" lon="3.91597">
        <ele>753.81</ele>
        <time>2022-08-01T07:25:13Z</time>
      </trkpt>
      <trkpt lat="44.99096" lon="3.91583">
        <ele>753.33</ele>
        <time>2022-08-01T07:25:28Z</time>
      </trkpt>
      <trkpt lat="44.99098" lon="3.91577">
        <ele>753.33</ele>
        <time>2022-08-01T07:25:32Z</time>
      </trkpt>
      <trkpt lat="44.99099" lon="3.91574">
        <ele>753.33</ele>
        <time>2022-08-01T07:25:34Z</time>
      </trkpt>
      <trkpt lat="44.99091" lon="3.91564">
        <ele>755.73</ele>
        <time>2022-08-01T07:25:45Z</time>
      </trkpt>
      <trkpt lat="44.9909" lon="3.91564">
        <ele>755.73</ele>
        <time>2022-08-01T07:25:46Z</time>
      </trkpt>
      <trkpt lat="44.99075" lon="3.91558">
        <ele>758.14</ele>
        <time>2022-08-01T07:26:00Z</time>
      </trkpt>
      <trkpt lat="44.9906" lon="3.91554">
        <ele>759.1</ele>
        <time>2022-08-01T07:26:15Z</time>
      </trkpt>
      <trkpt lat="44.99044" lon="3.91549">
        <ele>761.98</ele>
        <time>2022-08-01T07:26:31Z</time>
      </trkpt>
      <trkpt lat="44.99028" lon="3.91546">
        <ele>763.9</ele>
        <time>2022-08-01T07:26:47Z</time>
      </trkpt>
      <trkpt lat="44.99029" lon="3.91548">
        <ele>765.35</ele>
        <time>2022-08-01T07:27:05Z</time>
      </trkpt>
      <trkpt lat="44.99025" lon="3.91547">
        <ele>765.35</ele>
        <time>2022-08-01T07:27:19Z</time>
      </trkpt>
      <trkpt lat="44.9902" lon="3.91544">
        <ele>764.87</ele>
        <time>2022-08-01T07:27:40Z</time>
      </trkpt>
      <trkpt lat="44.99007" lon="3.9154">
        <ele>766.79</ele>
        <time>2022-08-01T07:27:53Z</time>
      </trkpt>
      <trkpt lat="44.98992" lon="3.91529">
        <ele>770.15</ele>
        <time>2022-08-01T07:28:10Z</time>
      </trkpt>
      <trkpt lat="44.98983" lon="3.91519">
        <ele>773.04</ele>
        <time>2022-08-01T07:28:24Z</time>
      </trkpt>
      <trkpt lat="44.98978" lon="3.91505">
        <ele>776.88</ele>
        <time>2022-08-01T07:28:37Z</time>
      </trkpt>
      <trkpt lat="44.98971" lon="3.91491">
        <ele>780.25</ele>
        <time>2022-08-01T07:28:50Z</time>
      </trkpt>
      <trkpt lat="44.98962" lon="3.91473">
        <ele>782.17</ele>
        <time>2022-08-01T07:29:05Z</time>
      </trkpt>
      <trkpt lat="44.98955" lon="3.91457">
        <ele>785.05</ele>
        <time>2022-08-01T07:29:19Z</time>
      </trkpt>
      <trkpt lat="44.98947" lon="3.9144">
        <ele>790.34</ele>
        <time>2022-08-01T07:29:34Z</time>
      </trkpt>
      <trkpt lat="44.98938" lon="3.91423">
        <ele>793.71</ele>
        <time>2022-08-01T07:29:49Z</time>
      </trkpt>
      <trkpt lat="44.98924" lon="3.91408">
        <ele>792.74</ele>
        <time>2022-08-01T07:30:03Z</time>
      </trkpt>
      <trkpt lat="44.98917" lon="3.91401">
        <ele>793.71</ele>
        <time>2022-08-01T07:30:10Z</time>
      </trkpt>
      <trkpt lat="44.98914" lon="3.91395">
        <ele>794.67</ele>
        <time>2022-08-01T07:30:15Z</time>
      </trkpt>
      <trkpt lat="44.98905" lon="3.91377">
        <ele>798.03</ele>
        <time>2022-08-01T07:30:29Z</time>
      </trkpt>
      <trkpt lat="44.98896" lon="3.91363">
        <ele>800.92</ele>
        <time>2022-08-01T07:30:42Z</time>
      </trkpt>
      <trkpt lat="44.98892" lon="3.91358">
        <ele>801.88</ele>
        <time>2022-08-01T07:30:47Z</time>
      </trkpt>
      <trkpt lat="44.98875" lon="3.91343">
        <ele>797.55</ele>
        <time>2022-08-01T07:31:00Z</time>
      </trkpt>
      <trkpt lat="44.9886" lon="3.91339">
        <ele>794.19</ele>
        <time>2022-08-01T07:31:10Z</time>
      </trkpt>
      <trkpt lat="44.98844" lon="3.91337">
        <ele>791.3</ele>
        <time>2022-08-01T07:31:21Z</time>
      </trkpt>
      <trkpt lat="44.98828" lon="3.91335">
        <ele>790.34</ele>
        <time>2022-08-01T07:31:33Z</time>
      </trkpt>
      <trkpt lat="44.98808" lon="3.91334">
        <ele>786.98</ele>
        <time>2022-08-01T07:31:46Z</time>
      </trkpt>
      <trkpt lat="44.98803" lon="3.91335">
        <ele>786.02</ele>
        <time>2022-08-01T07:31:50Z</time>
      </trkpt>
      <trkpt lat="44.988" lon="3.91335">
        <ele>785.53</ele>
        <time>2022-08-01T07:31:52Z</time>
      </trkpt>
      <trkpt lat="44.98781" lon="3.9134">
        <ele>784.57</ele>
        <time>2022-08-01T07:32:07Z</time>
      </trkpt>
      <trkpt lat="44.98766" lon="3.91342">
        <ele>786.5</ele>
        <time>2022-08-01T07:32:23Z</time>
      </trkpt>
      <trkpt lat="44.98748" lon="3.91352">
        <ele>785.53</ele>
        <time>2022-08-01T07:32:37Z</time>
      </trkpt>
      <trkpt lat="44.98734" lon="3.91359">
        <ele>785.05</ele>
        <time>2022-08-01T07:32:51Z</time>
      </trkpt>
      <trkpt lat="44.98716" lon="3.91366">
        <ele>786.98</ele>
        <time>2022-08-01T07:33:07Z</time>
      </trkpt>
      <trkpt lat="44.98702" lon="3.91373">
        <ele>786.5</ele>
        <time>2022-08-01T07:33:22Z</time>
      </trkpt>
      <trkpt lat="44.98687" lon="3.91375">
        <ele>792.74</ele>
        <time>2022-08-01T07:33:38Z</time>
      </trkpt>
      <trkpt lat="44.98681" lon="3.91374">
        <ele>792.74</ele>
        <time>2022-08-01T07:33:46Z</time>
      </trkpt>
      <trkpt lat="44.98669" lon="3.91371">
        <ele>795.63</ele>
        <time>2022-08-01T07:34:01Z</time>
      </trkpt>
      <trkpt lat="44.9866" lon="3.91372">
        <ele>796.59</ele>
        <time>2022-08-01T07:34:09Z</time>
      </trkpt>
      <trkpt lat="44.98647" lon="3.91379">
        <ele>796.59</ele>
        <time>2022-08-01T07:34:20Z</time>
      </trkpt>
      <trkpt lat="44.98646" lon="3.9138">
        <ele>796.59</ele>
        <time>2022-08-01T07:34:21Z</time>
      </trkpt>
      <trkpt lat="44.98633" lon="3.91384">
        <ele>798.99</ele>
        <time>2022-08-01T07:34:35Z</time>
      </trkpt>
      <trkpt lat="44.98626" lon="3.91383">
        <ele>800.44</ele>
        <time>2022-08-01T07:34:44Z</time>
      </trkpt>
      <trkpt lat="44.98607" lon="3.91386">
        <ele>802.84</ele>
        <time>2022-08-01T07:35:02Z</time>
      </trkpt>
      <trkpt lat="44.98588" lon="3.91394">
        <ele>807.16</ele>
        <time>2022-08-01T07:35:21Z</time>
      </trkpt>
      <trkpt lat="44.98573" lon="3.91404">
        <ele>808.61</ele>
        <time>2022-08-01T07:35:36Z</time>
      </trkpt>
      <trkpt lat="44.9856" lon="3.91417">
        <ele>809.09</ele>
        <time>2022-08-01T07:35:51Z</time>
      </trkpt>
      <trkpt lat="44.98548" lon="3.91426">
        <ele>810.53</ele>
        <time>2022-08-01T07:36:05Z</time>
      </trkpt>
      <trkpt lat="44.98536" lon="3.91437">
        <ele>811.01</ele>
        <time>2022-08-01T07:36:19Z</time>
      </trkpt>
      <trkpt lat="44.98523" lon="3.91446">
        <ele>812.93</ele>
        <time>2022-08-01T07:36:33Z</time>
      </trkpt>
      <trkpt lat="44.98509" lon="3.91442">
        <ele>815.34</ele>
        <time>2022-08-01T07:36:48Z</time>
      </trkpt>
      <trkpt lat="44.98509" lon="3.91447">
        <ele>817.26</ele>
        <time>2022-08-01T07:37:00Z</time>
      </trkpt>
      <trkpt lat="44.98506" lon="3.91448">
        <ele>816.78</ele>
        <time>2022-08-01T07:37:24Z</time>
      </trkpt>
      <trkpt lat="44.98501" lon="3.91449">
        <ele>816.3</ele>
        <time>2022-08-01T07:37:38Z</time>
      </trkpt>
      <trkpt lat="44.985" lon="3.91455">
        <ele>815.82</ele>
        <time>2022-08-01T07:37:52Z</time>
      </trkpt>
      <trkpt lat="44.985" lon="3.91456">
        <ele>816.3</ele>
        <time>2022-08-01T07:38:16Z</time>
      </trkpt>
      <trkpt lat="44.985" lon="3.91456">
        <ele>814.85</ele>
        <time>2022-08-01T07:38:37Z</time>
      </trkpt>
      <trkpt lat="44.98499" lon="3.91458">
        <ele>813.41</ele>
        <time>2022-08-01T07:39:26Z</time>
      </trkpt>
      <trkpt lat="44.98498" lon="3.91457">
        <ele>813.89</ele>
        <time>2022-08-01T07:40:13Z</time>
      </trkpt>
      <trkpt lat="44.98499" lon="3.91455">
        <ele>818.22</ele>
        <time>2022-08-01T07:40:52Z</time>
      </trkpt>
      <trkpt lat="44.98499" lon="3.91456">
        <ele>815.82</ele>
        <time>2022-08-01T07:41:34Z</time>
      </trkpt>
      <trkpt lat="44.985" lon="3.91455">
        <ele>816.78</ele>
        <time>2022-08-01T07:42:07Z</time>
      </trkpt>
      <trkpt lat="44.98499" lon="3.91455">
        <ele>812.93</ele>
        <time>2022-08-01T07:42:48Z</time>
      </trkpt>
      <trkpt lat="44.98498" lon="3.91454">
        <ele>811.97</ele>
        <time>2022-08-01T07:43:30Z</time>
      </trkpt>
      <trkpt lat="44.98501" lon="3.91456">
        <ele>812.93</ele>
        <time>2022-08-01T07:44:18Z</time>
      </trkpt>
      <trkpt lat="44.98499" lon="3.91453">
        <ele>814.37</ele>
        <time>2022-08-01T07:44:55Z</time>
      </trkpt>
      <trkpt lat="44.98499" lon="3.91451">
        <ele>815.34</ele>
        <time>2022-08-01T07:45:24Z</time>
      </trkpt>
      <trkpt lat="44.98498" lon="3.91451">
        <ele>816.78</ele>
        <time>2022-08-01T07:45:53Z</time>
      </trkpt>
      <trkpt lat="44.98498" lon="3.91453">
        <ele>816.3</ele>
        <time>2022-08-01T07:46:26Z</time>
      </trkpt>
      <trkpt lat="44.985" lon="3.91453">
        <ele>817.26</ele>
        <time>2022-08-01T07:47:05Z</time>
      </trkpt>
      <trkpt lat="44.985" lon="3.91454">
        <ele>815.34</ele>
        <time>2022-08-01T07:47:47Z</time>
      </trkpt>
      <trkpt lat="44.98499" lon="3.91454">
        <ele>814.37</ele>
        <time>2022-08-01T07:48:34Z</time>
      </trkpt>
      <trkpt lat="44.98499" lon="3.91453">
        <ele>812.45</ele>
        <time>2022-08-01T07:49:07Z</time>
      </trkpt>
      <trkpt lat="44.98499" lon="3.91453">
        <ele>817.74</ele>
        <time>2022-08-01T07:49:52Z</time>
      </trkpt>
      <trkpt lat="44.985" lon="3.91454">
        <ele>818.22</ele>
        <time>2022-08-01T07:50:29Z</time>
      </trkpt>
      <trkpt lat="44.98502" lon="3.91456">
        <ele>817.26</ele>
        <time>2022-08-01T07:51:07Z</time>
      </trkpt>
      <trkpt lat="44.98499" lon="3.91455">
        <ele>817.26</ele>
        <time>2022-08-01T07:51:45Z</time>
      </trkpt>
      <trkpt lat="44.98497" lon="3.91458">
        <ele>817.74</ele>
        <time>2022-08-01T07:52:00Z</time>
      </trkpt>
      <trkpt lat="44.98499" lon="3.91457">
        <ele>819.18</ele>
        <time>2022-08-01T07:52:17Z</time>
      </trkpt>
      <trkpt lat="44.98504" lon="3.91448">
        <ele>817.26</ele>
        <time>2022-08-01T07:52:34Z</time>
      </trkpt>
      <trkpt lat="44.98505" lon="3.91446">
        <ele>817.26</ele>
        <time>2022-08-01T07:52:35Z</time>
      </trkpt>
      <trkpt lat="44.98508" lon="3.9144">
        <ele>815.82</ele>
        <time>2022-08-01T07:52:40Z</time>
      </trkpt>
      <trkpt lat="44.98508" lon="3.91438">
        <ele>816.3</ele>
        <time>2022-08-01T07:52:41Z</time>
      </trkpt>
      <trkpt lat="44.98507" lon="3.91437">
        <ele>816.3</ele>
        <time>2022-08-01T07:52:42Z</time>
      </trkpt>
      <trkpt lat="44.98507" lon="3.91435">
        <ele>816.3</ele>
        <time>2022-08-01T07:52:43Z</time>
      </trkpt>
      <trkpt lat="44.985" lon="3.91423">
        <ele>816.78</ele>
        <time>2022-08-01T07:52:54Z</time>
      </trkpt>
      <trkpt lat="44.98485" lon="3.91407">
        <ele>815.34</ele>
        <time>2022-08-01T07:53:11Z</time>
      </trkpt>
      <trkpt lat="44.98473" lon="3.91393">
        <ele>815.82</ele>
        <time>2022-08-01T07:53:24Z</time>
      </trkpt>
      <trkpt lat="44.98472" lon="3.91393">
        <ele>815.82</ele>
        <time>2022-08-01T07:53:25Z</time>
      </trkpt>
      <trkpt lat="44.98458" lon="3.91375">
        <ele>816.78</ele>
        <time>2022-08-01T07:53:42Z</time>
      </trkpt>
      <trkpt lat="44.98448" lon="3.91363">
        <ele>816.78</ele>
        <time>2022-08-01T07:53:56Z</time>
      </trkpt>
      <trkpt lat="44.98443" lon="3.91356">
        <ele>815.82</ele>
        <time>2022-08-01T07:54:02Z</time>
      </trkpt>
      <trkpt lat="44.98442" lon="3.91355">
        <ele>815.34</ele>
        <time>2022-08-01T07:54:03Z</time>
      </trkpt>
      <trkpt lat="44.98427" lon="3.91352">
        <ele>813.89</ele>
        <time>2022-08-01T07:54:12Z</time>
      </trkpt>
      <trkpt lat="44.98414" lon="3.91365">
        <ele>814.85</ele>
        <time>2022-08-01T07:54:25Z</time>
      </trkpt>
      <trkpt lat="44.98413" lon="3.91366">
        <ele>814.85</ele>
        <time>2022-08-01T07:54:26Z</time>
      </trkpt>
      <trkpt lat="44.98412" lon="3.91367">
        <ele>814.85</ele>
        <time>2022-08-01T07:54:27Z</time>
      </trkpt>
      <trkpt lat="44.98406" lon="3.91393">
        <ele>813.41</ele>
        <time>2022-08-01T07:54:43Z</time>
      </trkpt>
      <trkpt lat="44.98405" lon="3.9141">
        <ele>815.82</ele>
        <time>2022-08-01T07:54:54Z</time>
      </trkpt>
      <trkpt lat="44.98405" lon="3.91412">
        <ele>816.3</ele>
        <time>2022-08-01T07:54:55Z</time>
      </trkpt>
      <trkpt lat="44.98404" lon="3.91416">
        <ele>816.78</ele>
        <time>2022-08-01T07:54:58Z</time>
      </trkpt>
      <trkpt lat="44.98402" lon="3.91445">
        <ele>816.78</ele>
        <time>2022-08-01T07:55:15Z</time>
      </trkpt>
      <trkpt lat="44.98403" lon="3.91448">
        <ele>816.78</ele>
        <time>2022-08-01T07:55:17Z</time>
      </trkpt>
      <trkpt lat="44.98403" lon="3.9145">
        <ele>816.3</ele>
        <time>2022-08-01T07:55:18Z</time>
      </trkpt>
      <trkpt lat="44.98407" lon="3.9147">
        <ele>815.34</ele>
        <time>2022-08-01T07:55:30Z</time>
      </trkpt>
      <trkpt lat="44.98407" lon="3.91483">
        <ele>815.34</ele>
        <time>2022-08-01T07:55:38Z</time>
      </trkpt>
      <trkpt lat="44.98401" lon="3.91502">
        <ele>815.82</ele>
        <time>2022-08-01T07:55:52Z</time>
      </trkpt>
      <trkpt lat="44.98398" lon="3.91513">
        <ele>816.3</ele>
        <time>2022-08-01T07:56:00Z</time>
      </trkpt>
      <trkpt lat="44.98391" lon="3.91531">
        <ele>819.66</ele>
        <time>2022-08-01T07:56:15Z</time>
      </trkpt>
      <trkpt lat="44.98383" lon="3.91547">
        <ele>821.58</ele>
        <time>2022-08-01T07:56:29Z</time>
      </trkpt>
      <trkpt lat="44.98374" lon="3.91563">
        <ele>822.06</ele>
        <time>2022-08-01T07:56:43Z</time>
      </trkpt>
      <trkpt lat="44.98372" lon="3.91567">
        <ele>822.06</ele>
        <time>2022-08-01T07:56:46Z</time>
      </trkpt>
      <trkpt lat="44.98365" lon="3.91576">
        <ele>822.06</ele>
        <time>2022-08-01T07:56:54Z</time>
      </trkpt>
      <trkpt lat="44.98353" lon="3.91589">
        <ele>821.58</ele>
        <time>2022-08-01T07:57:07Z</time>
      </trkpt>
      <trkpt lat="44.98349" lon="3.91596">
        <ele>822.55</ele>
        <time>2022-08-01T07:57:13Z</time>
      </trkpt>
      <trkpt lat="44.98348" lon="3.91598">
        <ele>822.55</ele>
        <time>2022-08-01T07:57:14Z</time>
      </trkpt>
      <trkpt lat="44.98347" lon="3.91599">
        <ele>822.55</ele>
        <time>2022-08-01T07:57:15Z</time>
      </trkpt>
      <trkpt lat="44.98346" lon="3.916">
        <ele>823.03</ele>
        <time>2022-08-01T07:57:16Z</time>
      </trkpt>
      <trkpt lat="44.98346" lon="3.91601">
        <ele>823.03</ele>
        <time>2022-08-01T07:57:17Z</time>
      </trkpt>
      <trkpt lat="44.98345" lon="3.91602">
        <ele>823.03</ele>
        <time>2022-08-01T07:57:18Z</time>
      </trkpt>
      <trkpt lat="44.98339" lon="3.91607">
        <ele>823.03</ele>
        <time>2022-08-01T07:57:24Z</time>
      </trkpt>
      <trkpt lat="44.98339" lon="3.91609">
        <ele>823.51</ele>
        <time>2022-08-01T07:57:25Z</time>
      </trkpt>
      <trkpt lat="44.98338" lon="3.9161">
        <ele>823.51</ele>
        <time>2022-08-01T07:57:26Z</time>
      </trkpt>
      <trkpt lat="44.98337" lon="3.91611">
        <ele>823.51</ele>
        <time>2022-08-01T07:57:27Z</time>
      </trkpt>
      <trkpt lat="44.98336" lon="3.91612">
        <ele>823.51</ele>
        <time>2022-08-01T07:57:28Z</time>
      </trkpt>
      <trkpt lat="44.98321" lon="3.91629">
        <ele>823.51</ele>
        <time>2022-08-01T07:57:45Z</time>
      </trkpt>
      <trkpt lat="44.98316" lon="3.91632">
        <ele>823.03</ele>
        <time>2022-08-01T07:57:49Z</time>
      </trkpt>
      <trkpt lat="44.98315" lon="3.91633">
        <ele>823.03</ele>
        <time>2022-08-01T07:57:50Z</time>
      </trkpt>
      <trkpt lat="44.98301" lon="3.91651">
        <ele>824.95</ele>
        <time>2022-08-01T07:58:08Z</time>
      </trkpt>
      <trkpt lat="44.98289" lon="3.91667">
        <ele>825.43</ele>
        <time>2022-08-01T07:58:23Z</time>
      </trkpt>
      <trkpt lat="44.98277" lon="3.91683">
        <ele>825.91</ele>
        <time>2022-08-01T07:58:38Z</time>
      </trkpt>
      <trkpt lat="44.98261" lon="3.91693">
        <ele>827.35</ele>
        <time>2022-08-01T07:58:53Z</time>
      </trkpt>
      <trkpt lat="44.98246" lon="3.91698">
        <ele>828.79</ele>
        <time>2022-08-01T07:59:08Z</time>
      </trkpt>
      <trkpt lat="44.98233" lon="3.91693">
        <ele>830.72</ele>
        <time>2022-08-01T07:59:22Z</time>
      </trkpt>
      <trkpt lat="44.98219" lon="3.91686">
        <ele>833.6</ele>
        <time>2022-08-01T07:59:39Z</time>
      </trkpt>
      <trkpt lat="44.98204" lon="3.91679">
        <ele>836</ele>
        <time>2022-08-01T07:59:52Z</time>
      </trkpt>
      <trkpt lat="44.98188" lon="3.9168">
        <ele>839.37</ele>
        <time>2022-08-01T08:00:08Z</time>
      </trkpt>
      <trkpt lat="44.98171" lon="3.9169">
        <ele>843.69</ele>
        <time>2022-08-01T08:00:25Z</time>
      </trkpt>
      <trkpt lat="44.98162" lon="3.91698">
        <ele>848.02</ele>
        <time>2022-08-01T08:00:36Z</time>
      </trkpt>
      <trkpt lat="44.98161" lon="3.91699">
        <ele>848.5</ele>
        <time>2022-08-01T08:00:37Z</time>
      </trkpt>
      <trkpt lat="44.98151" lon="3.91719">
        <ele>850.9</ele>
        <time>2022-08-01T08:00:52Z</time>
      </trkpt>
      <trkpt lat="44.98149" lon="3.91733">
        <ele>849.46</ele>
        <time>2022-08-01T08:01:00Z</time>
      </trkpt>
      <trkpt lat="44.98145" lon="3.91748">
        <ele>847.54</ele>
        <time>2022-08-01T08:01:10Z</time>
      </trkpt>
      <trkpt lat="44.98145" lon="3.91762">
        <ele>846.58</ele>
        <time>2022-08-01T08:01:18Z</time>
      </trkpt>
      <trkpt lat="44.98141" lon="3.91777">
        <ele>846.1</ele>
        <time>2022-08-01T08:01:28Z</time>
      </trkpt>
      <trkpt lat="44.9814" lon="3.91804">
        <ele>846.1</ele>
        <time>2022-08-01T08:01:45Z</time>
      </trkpt>
      <trkpt lat="44.98143" lon="3.91826">
        <ele>845.62</ele>
        <time>2022-08-01T08:01:59Z</time>
      </trkpt>
      <trkpt lat="44.98143" lon="3.91848">
        <ele>846.1</ele>
        <time>2022-08-01T08:02:13Z</time>
      </trkpt>
      <trkpt lat="44.98133" lon="3.91871">
        <ele>846.58</ele>
        <time>2022-08-01T08:02:31Z</time>
      </trkpt>
      <trkpt lat="44.98127" lon="3.91882">
        <ele>847.06</ele>
        <time>2022-08-01T08:02:40Z</time>
      </trkpt>
      <trkpt lat="44.98113" lon="3.91901">
        <ele>849.94</ele>
        <time>2022-08-01T08:02:58Z</time>
      </trkpt>
      <trkpt lat="44.98111" lon="3.91907">
        <ele>849.94</ele>
        <time>2022-08-01T08:03:02Z</time>
      </trkpt>
      <trkpt lat="44.981" lon="3.9192">
        <ele>851.87</ele>
        <time>2022-08-01T08:03:16Z</time>
      </trkpt>
      <trkpt lat="44.98096" lon="3.91926">
        <ele>851.87</ele>
        <time>2022-08-01T08:03:21Z</time>
      </trkpt>
      <trkpt lat="44.98096" lon="3.91927">
        <ele>851.87</ele>
        <time>2022-08-01T08:03:22Z</time>
      </trkpt>
      <trkpt lat="44.98095" lon="3.91928">
        <ele>851.38</ele>
        <time>2022-08-01T08:03:23Z</time>
      </trkpt>
      <trkpt lat="44.98094" lon="3.9193">
        <ele>851.87</ele>
        <time>2022-08-01T08:03:24Z</time>
      </trkpt>
      <trkpt lat="44.9808" lon="3.91948">
        <ele>854.75</ele>
        <time>2022-08-01T08:03:42Z</time>
      </trkpt>
      <trkpt lat="44.98068" lon="3.91972">
        <ele>854.75</ele>
        <time>2022-08-01T08:04:00Z</time>
      </trkpt>
      <trkpt lat="44.98056" lon="3.91994">
        <ele>855.71</ele>
        <time>2022-08-01T08:04:17Z</time>
      </trkpt>
      <trkpt lat="44.98044" lon="3.92015">
        <ele>856.67</ele>
        <time>2022-08-01T08:04:34Z</time>
      </trkpt>
      <trkpt lat="44.98031" lon="3.92034">
        <ele>858.11</ele>
        <time>2022-08-01T08:04:51Z</time>
      </trkpt>
      <trkpt lat="44.9802" lon="3.92051">
        <ele>859.56</ele>
        <time>2022-08-01T08:05:07Z</time>
      </trkpt>
      <trkpt lat="44.98016" lon="3.92054">
        <ele>860.04</ele>
        <time>2022-08-01T08:05:26Z</time>
      </trkpt>
      <trkpt lat="44.98014" lon="3.92061">
        <ele>859.56</ele>
        <time>2022-08-01T08:05:32Z</time>
      </trkpt>
      <trkpt lat="44.98003" lon="3.92076">
        <ele>860.04</ele>
        <time>2022-08-01T08:05:47Z</time>
      </trkpt>
      <trkpt lat="44.9799" lon="3.92096">
        <ele>861</ele>
        <time>2022-08-01T08:06:06Z</time>
      </trkpt>
      <trkpt lat="44.97979" lon="3.92112">
        <ele>861.48</ele>
        <time>2022-08-01T08:06:21Z</time>
      </trkpt>
      <trkpt lat="44.97967" lon="3.92127">
        <ele>861.96</ele>
        <time>2022-08-01T08:06:37Z</time>
      </trkpt>
      <trkpt lat="44.97956" lon="3.92145">
        <ele>862.92</ele>
        <time>2022-08-01T08:06:53Z</time>
      </trkpt>
      <trkpt lat="44.97943" lon="3.92166">
        <ele>866.77</ele>
        <time>2022-08-01T08:07:10Z</time>
      </trkpt>
      <trkpt lat="44.97933" lon="3.92185">
        <ele>868.21</ele>
        <time>2022-08-01T08:07:25Z</time>
      </trkpt>
      <trkpt lat="44.97926" lon="3.92201">
        <ele>869.17</ele>
        <time>2022-08-01T08:07:37Z</time>
      </trkpt>
      <trkpt lat="44.97918" lon="3.92221">
        <ele>869.17</ele>
        <time>2022-08-01T08:07:51Z</time>
      </trkpt>
      <trkpt lat="44.97908" lon="3.92243">
        <ele>870.13</ele>
        <time>2022-08-01T08:08:08Z</time>
      </trkpt>
      <trkpt lat="44.97898" lon="3.92266">
        <ele>872.05</ele>
        <time>2022-08-01T08:08:26Z</time>
      </trkpt>
      <trkpt lat="44.97889" lon="3.92285">
        <ele>875.42</ele>
        <time>2022-08-01T08:08:42Z</time>
      </trkpt>
      <trkpt lat="44.97888" lon="3.92288">
        <ele>875.9</ele>
        <time>2022-08-01T08:08:44Z</time>
      </trkpt>
      <trkpt lat="44.97879" lon="3.92306">
        <ele>876.38</ele>
        <time>2022-08-01T08:08:59Z</time>
      </trkpt>
      <trkpt lat="44.97868" lon="3.92327">
        <ele>878.78</ele>
        <time>2022-08-01T08:09:16Z</time>
      </trkpt>
      <trkpt lat="44.9786" lon="3.92342">
        <ele>879.26</ele>
        <time>2022-08-01T08:09:28Z</time>
      </trkpt>
      <trkpt lat="44.9785" lon="3.92359">
        <ele>881.19</ele>
        <time>2022-08-01T08:09:43Z</time>
      </trkpt>
      <trkpt lat="44.97838" lon="3.92378">
        <ele>882.63</ele>
        <time>2022-08-01T08:09:59Z</time>
      </trkpt>
      <trkpt lat="44.9783" lon="3.92392">
        <ele>883.59</ele>
        <time>2022-08-01T08:10:11Z</time>
      </trkpt>
      <trkpt lat="44.97818" lon="3.92411">
        <ele>884.55</ele>
        <time>2022-08-01T08:10:27Z</time>
      </trkpt>
      <trkpt lat="44.97815" lon="3.92418">
        <ele>885.51</ele>
        <time>2022-08-01T08:10:44Z</time>
      </trkpt>
      <trkpt lat="44.97803" lon="3.92439">
        <ele>886.95</ele>
        <time>2022-08-01T08:11:00Z</time>
      </trkpt>
      <trkpt lat="44.978" lon="3.92443">
        <ele>887.43</ele>
        <time>2022-08-01T08:11:04Z</time>
      </trkpt>
      <trkpt lat="44.9779" lon="3.92457">
        <ele>889.36</ele>
        <time>2022-08-01T08:11:17Z</time>
      </trkpt>
      <trkpt lat="44.97782" lon="3.92471">
        <ele>889.84</ele>
        <time>2022-08-01T08:11:29Z</time>
      </trkpt>
      <trkpt lat="44.97772" lon="3.92489">
        <ele>888.88</ele>
        <time>2022-08-01T08:11:43Z</time>
      </trkpt>
      <trkpt lat="44.97762" lon="3.92504">
        <ele>890.32</ele>
        <time>2022-08-01T08:11:56Z</time>
      </trkpt>
      <trkpt lat="44.97757" lon="3.9251">
        <ele>891.76</ele>
        <time>2022-08-01T08:12:02Z</time>
      </trkpt>
      <trkpt lat="44.97743" lon="3.92523">
        <ele>894.16</ele>
        <time>2022-08-01T08:12:17Z</time>
      </trkpt>
      <trkpt lat="44.97733" lon="3.92529">
        <ele>894.64</ele>
        <time>2022-08-01T08:12:28Z</time>
      </trkpt>
      <trkpt lat="44.97721" lon="3.92542">
        <ele>895.12</ele>
        <time>2022-08-01T08:12:42Z</time>
      </trkpt>
      <trkpt lat="44.97707" lon="3.92559">
        <ele>895.61</ele>
        <time>2022-08-01T08:12:58Z</time>
      </trkpt>
      <trkpt lat="44.97694" lon="3.92578">
        <ele>896.09</ele>
        <time>2022-08-01T08:13:14Z</time>
      </trkpt>
      <trkpt lat="44.97684" lon="3.92593">
        <ele>897.05</ele>
        <time>2022-08-01T08:13:27Z</time>
      </trkpt>
      <trkpt lat="44.9768" lon="3.92598">
        <ele>898.01</ele>
        <time>2022-08-01T08:13:32Z</time>
      </trkpt>
      <trkpt lat="44.97668" lon="3.92617">
        <ele>899.93</ele>
        <time>2022-08-01T08:13:48Z</time>
      </trkpt>
      <trkpt lat="44.97658" lon="3.92633">
        <ele>900.41</ele>
        <time>2022-08-01T08:14:01Z</time>
      </trkpt>
      <trkpt lat="44.97648" lon="3.92654">
        <ele>898.97</ele>
        <time>2022-08-01T08:14:18Z</time>
      </trkpt>
      <trkpt lat="44.97648" lon="3.92652">
        <ele>896.57</ele>
        <time>2022-08-01T08:14:33Z</time>
      </trkpt>
      <trkpt lat="44.97649" lon="3.92654">
        <ele>897.53</ele>
        <time>2022-08-01T08:15:03Z</time>
      </trkpt>
      <trkpt lat="44.97646" lon="3.92656">
        <ele>898.49</ele>
        <time>2022-08-01T08:15:06Z</time>
      </trkpt>
      <trkpt lat="44.97646" lon="3.92657">
        <ele>898.49</ele>
        <time>2022-08-01T08:15:07Z</time>
      </trkpt>
      <trkpt lat="44.97645" lon="3.92659">
        <ele>898.49</ele>
        <time>2022-08-01T08:15:08Z</time>
      </trkpt>
      <trkpt lat="44.97644" lon="3.9266">
        <ele>898.49</ele>
        <time>2022-08-01T08:15:09Z</time>
      </trkpt>
      <trkpt lat="44.97643" lon="3.92661">
        <ele>898.49</ele>
        <time>2022-08-01T08:15:10Z</time>
      </trkpt>
      <trkpt lat="44.97643" lon="3.92662">
        <ele>898.49</ele>
        <time>2022-08-01T08:15:11Z</time>
      </trkpt>
      <trkpt lat="44.97629" lon="3.92685">
        <ele>897.53</ele>
        <time>2022-08-01T08:15:28Z</time>
      </trkpt>
      <trkpt lat="44.97616" lon="3.92705">
        <ele>897.05</ele>
        <time>2022-08-01T08:15:44Z</time>
      </trkpt>
      <trkpt lat="44.97602" lon="3.92726">
        <ele>894.64</ele>
        <time>2022-08-01T08:16:00Z</time>
      </trkpt>
      <trkpt lat="44.97582" lon="3.92744">
        <ele>893.68</ele>
        <time>2022-08-01T08:16:18Z</time>
      </trkpt>
      <trkpt lat="44.97562" lon="3.92756">
        <ele>892.24</ele>
        <time>2022-08-01T08:16:35Z</time>
      </trkpt>
      <trkpt lat="44.97542" lon="3.92766">
        <ele>890.8</ele>
        <time>2022-08-01T08:16:51Z</time>
      </trkpt>
      <trkpt lat="44.97522" lon="3.92778">
        <ele>890.8</ele>
        <time>2022-08-01T08:17:08Z</time>
      </trkpt>
      <trkpt lat="44.97498" lon="3.9279">
        <ele>889.84</ele>
        <time>2022-08-01T08:17:28Z</time>
      </trkpt>
      <trkpt lat="44.97489" lon="3.92794">
        <ele>889.36</ele>
        <time>2022-08-01T08:17:36Z</time>
      </trkpt>
      <trkpt lat="44.97468" lon="3.92797">
        <ele>888.88</ele>
        <time>2022-08-01T08:17:52Z</time>
      </trkpt>
      <trkpt lat="44.97447" lon="3.92803">
        <ele>887.91</ele>
        <time>2022-08-01T08:18:09Z</time>
      </trkpt>
      <trkpt lat="44.9743" lon="3.92814">
        <ele>888.4</ele>
        <time>2022-08-01T08:18:24Z</time>
      </trkpt>
      <trkpt lat="44.97413" lon="3.92827">
        <ele>890.32</ele>
        <time>2022-08-01T08:18:39Z</time>
      </trkpt>
      <trkpt lat="44.97397" lon="3.92844">
        <ele>890.8</ele>
        <time>2022-08-01T08:18:55Z</time>
      </trkpt>
      <trkpt lat="44.9738" lon="3.92864">
        <ele>893.2</ele>
        <time>2022-08-01T08:19:13Z</time>
      </trkpt>
      <trkpt lat="44.97372" lon="3.92877">
        <ele>891.76</ele>
        <time>2022-08-01T08:19:31Z</time>
      </trkpt>
      <trkpt lat="44.97364" lon="3.9289">
        <ele>888.88</ele>
        <time>2022-08-01T08:19:49Z</time>
      </trkpt>
      <trkpt lat="44.97349" lon="3.92912">
        <ele>885.99</ele>
        <time>2022-08-01T08:20:07Z</time>
      </trkpt>
      <trkpt lat="44.9734" lon="3.9293">
        <ele>884.55</ele>
        <time>2022-08-01T08:20:20Z</time>
      </trkpt>
      <trkpt lat="44.9734" lon="3.92931">
        <ele>884.55</ele>
        <time>2022-08-01T08:20:21Z</time>
      </trkpt>
      <trkpt lat="44.97339" lon="3.92932">
        <ele>884.55</ele>
        <time>2022-08-01T08:20:22Z</time>
      </trkpt>
      <trkpt lat="44.97338" lon="3.92934">
        <ele>884.07</ele>
        <time>2022-08-01T08:20:23Z</time>
      </trkpt>
      <trkpt lat="44.97338" lon="3.92936">
        <ele>884.07</ele>
        <time>2022-08-01T08:20:24Z</time>
      </trkpt>
      <trkpt lat="44.97337" lon="3.92937">
        <ele>883.59</ele>
        <time>2022-08-01T08:20:25Z</time>
      </trkpt>
      <trkpt lat="44.97326" lon="3.92965">
        <ele>883.11</ele>
        <time>2022-08-01T08:20:43Z</time>
      </trkpt>
      <trkpt lat="44.97326" lon="3.92967">
        <ele>883.11</ele>
        <time>2022-08-01T08:20:44Z</time>
      </trkpt>
      <trkpt lat="44.97316" lon="3.92989">
        <ele>881.67</ele>
        <time>2022-08-01T08:21:00Z</time>
      </trkpt>
      <trkpt lat="44.97301" lon="3.93016">
        <ele>880.71</ele>
        <time>2022-08-01T08:21:19Z</time>
      </trkpt>
      <trkpt lat="44.97296" lon="3.93032">
        <ele>880.71</ele>
        <time>2022-08-01T08:21:30Z</time>
      </trkpt>
      <trkpt lat="44.97295" lon="3.93035">
        <ele>880.71</ele>
        <time>2022-08-01T08:21:32Z</time>
      </trkpt>
      <trkpt lat="44.97295" lon="3.93037">
        <ele>881.19</ele>
        <time>2022-08-01T08:21:33Z</time>
      </trkpt>
      <trkpt lat="44.97293" lon="3.93039">
        <ele>881.19</ele>
        <time>2022-08-01T08:21:36Z</time>
      </trkpt>
      <trkpt lat="44.97291" lon="3.93042">
        <ele>881.19</ele>
        <time>2022-08-01T08:21:39Z</time>
      </trkpt>
      <trkpt lat="44.9728" lon="3.93068">
        <ele>882.15</ele>
        <time>2022-08-01T08:21:56Z</time>
      </trkpt>
      <trkpt lat="44.97271" lon="3.93093">
        <ele>882.15</ele>
        <time>2022-08-01T08:22:12Z</time>
      </trkpt>
      <trkpt lat="44.97267" lon="3.93108">
        <ele>881.67</ele>
        <time>2022-08-01T08:22:21Z</time>
      </trkpt>
      <trkpt lat="44.97266" lon="3.9311">
        <ele>881.67</ele>
        <time>2022-08-01T08:22:22Z</time>
      </trkpt>
      <trkpt lat="44.97257" lon="3.93137">
        <ele>881.19</ele>
        <time>2022-08-01T08:22:38Z</time>
      </trkpt>
      <trkpt lat="44.97248" lon="3.93165">
        <ele>881.19</ele>
        <time>2022-08-01T08:22:55Z</time>
      </trkpt>
      <trkpt lat="44.97239" lon="3.93189">
        <ele>882.63</ele>
        <time>2022-08-01T08:23:11Z</time>
      </trkpt>
      <trkpt lat="44.97228" lon="3.93212">
        <ele>884.55</ele>
        <time>2022-08-01T08:23:27Z</time>
      </trkpt>
      <trkpt lat="44.97217" lon="3.93237">
        <ele>886.47</ele>
        <time>2022-08-01T08:23:44Z</time>
      </trkpt>
      <trkpt lat="44.97207" lon="3.93266">
        <ele>887.91</ele>
        <time>2022-08-01T08:24:02Z</time>
      </trkpt>
      <trkpt lat="44.97204" lon="3.93275">
        <ele>887.43</ele>
        <time>2022-08-01T08:24:08Z</time>
      </trkpt>
      <trkpt lat="44.97204" lon="3.93277">
        <ele>887.91</ele>
        <time>2022-08-01T08:24:09Z</time>
      </trkpt>
      <trkpt lat="44.97204" lon="3.93278">
        <ele>887.91</ele>
        <time>2022-08-01T08:24:10Z</time>
      </trkpt>
      <trkpt lat="44.97194" lon="3.93302">
        <ele>889.84</ele>
        <time>2022-08-01T08:24:26Z</time>
      </trkpt>
      <trkpt lat="44.97185" lon="3.93327">
        <ele>889.84</ele>
        <time>2022-08-01T08:24:43Z</time>
      </trkpt>
      <trkpt lat="44.97174" lon="3.93347">
        <ele>890.8</ele>
        <time>2022-08-01T08:24:59Z</time>
      </trkpt>
      <trkpt lat="44.97164" lon="3.93372">
        <ele>891.76</ele>
        <time>2022-08-01T08:25:15Z</time>
      </trkpt>
      <trkpt lat="44.97154" lon="3.93399">
        <ele>892.72</ele>
        <time>2022-08-01T08:25:32Z</time>
      </trkpt>
      <trkpt lat="44.97144" lon="3.93422">
        <ele>894.16</ele>
        <time>2022-08-01T08:25:47Z</time>
      </trkpt>
      <trkpt lat="44.97135" lon="3.93448">
        <ele>893.68</ele>
        <time>2022-08-01T08:26:04Z</time>
      </trkpt>
      <trkpt lat="44.97121" lon="3.9347">
        <ele>895.12</ele>
        <time>2022-08-01T08:26:21Z</time>
      </trkpt>
      <trkpt lat="44.97107" lon="3.93489">
        <ele>896.09</ele>
        <time>2022-08-01T08:26:37Z</time>
      </trkpt>
      <trkpt lat="44.97092" lon="3.93509">
        <ele>895.61</ele>
        <time>2022-08-01T08:26:53Z</time>
      </trkpt>
      <trkpt lat="44.97078" lon="3.93527">
        <ele>896.09</ele>
        <time>2022-08-01T08:27:08Z</time>
      </trkpt>
      <trkpt lat="44.97066" lon="3.93551">
        <ele>897.53</ele>
        <time>2022-08-01T08:27:25Z</time>
      </trkpt>
      <trkpt lat="44.97055" lon="3.93581">
        <ele>897.05</ele>
        <time>2022-08-01T08:27:43Z</time>
      </trkpt>
      <trkpt lat="44.97052" lon="3.93586">
        <ele>897.05</ele>
        <time>2022-08-01T08:27:47Z</time>
      </trkpt>
      <trkpt lat="44.97051" lon="3.93588">
        <ele>897.05</ele>
        <time>2022-08-01T08:27:48Z</time>
      </trkpt>
      <trkpt lat="44.9705" lon="3.93589">
        <ele>897.05</ele>
        <time>2022-08-01T08:27:49Z</time>
      </trkpt>
      <trkpt lat="44.9705" lon="3.9359">
        <ele>897.05</ele>
        <time>2022-08-01T08:27:50Z</time>
      </trkpt>
      <trkpt lat="44.97049" lon="3.93592">
        <ele>897.05</ele>
        <time>2022-08-01T08:27:51Z</time>
      </trkpt>
      <trkpt lat="44.97036" lon="3.93616">
        <ele>897.05</ele>
        <time>2022-08-01T08:28:08Z</time>
      </trkpt>
      <trkpt lat="44.97024" lon="3.93638">
        <ele>897.53</ele>
        <time>2022-08-01T08:28:24Z</time>
      </trkpt>
      <trkpt lat="44.97013" lon="3.93662">
        <ele>898.01</ele>
        <time>2022-08-01T08:28:39Z</time>
      </trkpt>
      <trkpt lat="44.97" lon="3.93684">
        <ele>899.93</ele>
        <time>2022-08-01T08:28:55Z</time>
      </trkpt>
      <trkpt lat="44.96987" lon="3.93703">
        <ele>902.33</ele>
        <time>2022-08-01T08:29:10Z</time>
      </trkpt>
      <trkpt lat="44.96973" lon="3.93731">
        <ele>902.33</ele>
        <time>2022-08-01T08:29:28Z</time>
      </trkpt>
      <trkpt lat="44.9696" lon="3.93759">
        <ele>898.49</ele>
        <time>2022-08-01T08:29:46Z</time>
      </trkpt>
      <trkpt lat="44.96948" lon="3.93788">
        <ele>896.57</ele>
        <time>2022-08-01T08:30:04Z</time>
      </trkpt>
      <trkpt lat="44.96938" lon="3.93812">
        <ele>894.16</ele>
        <time>2022-08-01T08:30:20Z</time>
      </trkpt>
      <trkpt lat="44.96928" lon="3.93838">
        <ele>892.72</ele>
        <time>2022-08-01T08:30:34Z</time>
      </trkpt>
      <trkpt lat="44.96917" lon="3.93863">
        <ele>892.72</ele>
        <time>2022-08-01T08:30:49Z</time>
      </trkpt>
      <trkpt lat="44.96903" lon="3.93889">
        <ele>891.76</ele>
        <time>2022-08-01T08:31:07Z</time>
      </trkpt>
      <trkpt lat="44.9689" lon="3.93909">
        <ele>892.24</ele>
        <time>2022-08-01T08:31:22Z</time>
      </trkpt>
      <trkpt lat="44.96875" lon="3.93933">
        <ele>892.72</ele>
        <time>2022-08-01T08:31:40Z</time>
      </trkpt>
      <trkpt lat="44.96862" lon="3.93946">
        <ele>894.64</ele>
        <time>2022-08-01T08:31:52Z</time>
      </trkpt>
      <trkpt lat="44.9686" lon="3.93948">
        <ele>895.12</ele>
        <time>2022-08-01T08:31:53Z</time>
      </trkpt>
      <trkpt lat="44.96859" lon="3.93949">
        <ele>895.12</ele>
        <time>2022-08-01T08:31:54Z</time>
      </trkpt>
      <trkpt lat="44.96846" lon="3.93963">
        <ele>897.53</ele>
        <time>2022-08-01T08:32:07Z</time>
      </trkpt>
      <trkpt lat="44.96838" lon="3.93971">
        <ele>898.49</ele>
        <time>2022-08-01T08:32:14Z</time>
      </trkpt>
      <trkpt lat="44.96837" lon="3.93972">
        <ele>898.49</ele>
        <time>2022-08-01T08:32:15Z</time>
      </trkpt>
      <trkpt lat="44.96836" lon="3.93974">
        <ele>898.49</ele>
        <time>2022-08-01T08:32:16Z</time>
      </trkpt>
      <trkpt lat="44.96834" lon="3.93975">
        <ele>898.97</ele>
        <time>2022-08-01T08:32:17Z</time>
      </trkpt>
      <trkpt lat="44.96833" lon="3.93976">
        <ele>898.97</ele>
        <time>2022-08-01T08:32:18Z</time>
      </trkpt>
      <trkpt lat="44.96832" lon="3.93978">
        <ele>898.97</ele>
        <time>2022-08-01T08:32:19Z</time>
      </trkpt>
      <trkpt lat="44.9682" lon="3.93995">
        <ele>900.41</ele>
        <time>2022-08-01T08:32:33Z</time>
      </trkpt>
      <trkpt lat="44.96809" lon="3.94007">
        <ele>900.89</ele>
        <time>2022-08-01T08:32:44Z</time>
      </trkpt>
      <trkpt lat="44.96808" lon="3.94008">
        <ele>900.89</ele>
        <time>2022-08-01T08:32:45Z</time>
      </trkpt>
      <trkpt lat="44.96807" lon="3.94009">
        <ele>900.41</ele>
        <time>2022-08-01T08:32:46Z</time>
      </trkpt>
      <trkpt lat="44.96806" lon="3.9401">
        <ele>900.41</ele>
        <time>2022-08-01T08:32:47Z</time>
      </trkpt>
      <trkpt lat="44.96805" lon="3.94011">
        <ele>899.93</ele>
        <time>2022-08-01T08:32:48Z</time>
      </trkpt>
      <trkpt lat="44.96804" lon="3.94012">
        <ele>899.93</ele>
        <time>2022-08-01T08:32:49Z</time>
      </trkpt>
      <trkpt lat="44.96803" lon="3.94013">
        <ele>899.45</ele>
        <time>2022-08-01T08:32:50Z</time>
      </trkpt>
      <trkpt lat="44.96787" lon="3.94028">
        <ele>897.53</ele>
        <time>2022-08-01T08:33:05Z</time>
      </trkpt>
      <trkpt lat="44.96772" lon="3.94043">
        <ele>898.01</ele>
        <time>2022-08-01T08:33:21Z</time>
      </trkpt>
      <trkpt lat="44.9677" lon="3.94045">
        <ele>898.01</ele>
        <time>2022-08-01T08:33:23Z</time>
      </trkpt>
      <trkpt lat="44.96769" lon="3.94047">
        <ele>898.01</ele>
        <time>2022-08-01T08:33:24Z</time>
      </trkpt>
      <trkpt lat="44.96768" lon="3.94048">
        <ele>898.01</ele>
        <time>2022-08-01T08:33:25Z</time>
      </trkpt>
      <trkpt lat="44.96749" lon="3.94069">
        <ele>896.09</ele>
        <time>2022-08-01T08:33:42Z</time>
      </trkpt>
      <trkpt lat="44.96735" lon="3.94082">
        <ele>896.57</ele>
        <time>2022-08-01T08:33:55Z</time>
      </trkpt>
      <trkpt lat="44.96734" lon="3.94083">
        <ele>896.57</ele>
        <time>2022-08-01T08:33:56Z</time>
      </trkpt>
      <trkpt lat="44.96722" lon="3.94094">
        <ele>897.53</ele>
        <time>2022-08-01T08:34:07Z</time>
      </trkpt>
      <trkpt lat="44.96721" lon="3.94094">
        <ele>898.01</ele>
        <time>2022-08-01T08:34:08Z</time>
      </trkpt>
      <trkpt lat="44.96705" lon="3.94107">
        <ele>900.41</ele>
        <time>2022-08-01T08:34:22Z</time>
      </trkpt>
      <trkpt lat="44.96706" lon="3.94119">
        <ele>896.57</ele>
        <time>2022-08-01T08:34:34Z</time>
      </trkpt>
      <trkpt lat="44.96706" lon="3.94122">
        <ele>895.61</ele>
        <time>2022-08-01T08:34:54Z</time>
      </trkpt>
      <trkpt lat="44.96705" lon="3.94122">
        <ele>895.12</ele>
        <time>2022-08-01T08:35:22Z</time>
      </trkpt>
      <trkpt lat="44.967" lon="3.94122">
        <ele>895.12</ele>
        <time>2022-08-01T08:35:43Z</time>
      </trkpt>
      <trkpt lat="44.96683" lon="3.94134">
        <ele>894.64</ele>
        <time>2022-08-01T08:35:58Z</time>
      </trkpt>
      <trkpt lat="44.96664" lon="3.94154">
        <ele>894.16</ele>
        <time>2022-08-01T08:36:15Z</time>
      </trkpt>
      <trkpt lat="44.96646" lon="3.94175">
        <ele>893.68</ele>
        <time>2022-08-01T08:36:32Z</time>
      </trkpt>
      <trkpt lat="44.96641" lon="3.9418">
        <ele>893.2</ele>
        <time>2022-08-01T08:36:36Z</time>
      </trkpt>
      <trkpt lat="44.96625" lon="3.94202">
        <ele>894.16</ele>
        <time>2022-08-01T08:36:53Z</time>
      </trkpt>
      <trkpt lat="44.96613" lon="3.9422">
        <ele>893.2</ele>
        <time>2022-08-01T08:37:06Z</time>
      </trkpt>
      <trkpt lat="44.96593" lon="3.94238">
        <ele>894.16</ele>
        <time>2022-08-01T08:37:23Z</time>
      </trkpt>
      <trkpt lat="44.96575" lon="3.94254">
        <ele>896.09</ele>
        <time>2022-08-01T08:37:39Z</time>
      </trkpt>
      <trkpt lat="44.96559" lon="3.94269">
        <ele>895.61</ele>
        <time>2022-08-01T08:37:54Z</time>
      </trkpt>
      <trkpt lat="44.96543" lon="3.94285">
        <ele>894.64</ele>
        <time>2022-08-01T08:38:08Z</time>
      </trkpt>
      <trkpt lat="44.96528" lon="3.94311">
        <ele>893.68</ele>
        <time>2022-08-01T08:38:25Z</time>
      </trkpt>
      <trkpt lat="44.96517" lon="3.94327">
        <ele>893.68</ele>
        <time>2022-08-01T08:38:37Z</time>
      </trkpt>
      <trkpt lat="44.96503" lon="3.94352">
        <ele>893.2</ele>
        <time>2022-08-01T08:38:54Z</time>
      </trkpt>
      <trkpt lat="44.9649" lon="3.94374">
        <ele>893.68</ele>
        <time>2022-08-01T08:39:09Z</time>
      </trkpt>
      <trkpt lat="44.96476" lon="3.94393">
        <ele>894.64</ele>
        <time>2022-08-01T08:39:24Z</time>
      </trkpt>
      <trkpt lat="44.96461" lon="3.94416">
        <ele>895.12</ele>
        <time>2022-08-01T08:39:41Z</time>
      </trkpt>
      <trkpt lat="44.96449" lon="3.94441">
        <ele>895.61</ele>
        <time>2022-08-01T08:39:56Z</time>
      </trkpt>
      <trkpt lat="44.96434" lon="3.94463">
        <ele>895.61</ele>
        <time>2022-08-01T08:40:12Z</time>
      </trkpt>
      <trkpt lat="44.96427" lon="3.94478">
        <ele>897.05</ele>
        <time>2022-08-01T08:40:22Z</time>
      </trkpt>
      <trkpt lat="44.96416" lon="3.94503">
        <ele>898.01</ele>
        <time>2022-08-01T08:40:39Z</time>
      </trkpt>
      <trkpt lat="44.96404" lon="3.94527">
        <ele>899.93</ele>
        <time>2022-08-01T08:40:54Z</time>
      </trkpt>
      <trkpt lat="44.96391" lon="3.9455">
        <ele>901.37</ele>
        <time>2022-08-01T08:41:09Z</time>
      </trkpt>
      <trkpt lat="44.96375" lon="3.94569">
        <ele>900.89</ele>
        <time>2022-08-01T08:41:24Z</time>
      </trkpt>
      <trkpt lat="44.9636" lon="3.94589">
        <ele>901.37</ele>
        <time>2022-08-01T08:41:39Z</time>
      </trkpt>
      <trkpt lat="44.96346" lon="3.94607">
        <ele>900.89</ele>
        <time>2022-08-01T08:41:53Z</time>
      </trkpt>
      <trkpt lat="44.96334" lon="3.94629">
        <ele>896.09</ele>
        <time>2022-08-01T08:42:08Z</time>
      </trkpt>
      <trkpt lat="44.96322" lon="3.94647">
        <ele>895.12</ele>
        <time>2022-08-01T08:42:21Z</time>
      </trkpt>
      <trkpt lat="44.96309" lon="3.94667">
        <ele>894.16</ele>
        <time>2022-08-01T08:42:36Z</time>
      </trkpt>
      <trkpt lat="44.96294" lon="3.94687">
        <ele>891.76</ele>
        <time>2022-08-01T08:42:51Z</time>
      </trkpt>
      <trkpt lat="44.9628" lon="3.94706">
        <ele>891.76</ele>
        <time>2022-08-01T08:43:06Z</time>
      </trkpt>
      <trkpt lat="44.96265" lon="3.94726">
        <ele>891.28</ele>
        <time>2022-08-01T08:43:22Z</time>
      </trkpt>
      <trkpt lat="44.9625" lon="3.94744">
        <ele>891.28</ele>
        <time>2022-08-01T08:43:37Z</time>
      </trkpt>
      <trkpt lat="44.96245" lon="3.94752">
        <ele>891.28</ele>
        <time>2022-08-01T08:43:43Z</time>
      </trkpt>
      <trkpt lat="44.96244" lon="3.94753">
        <ele>891.28</ele>
        <time>2022-08-01T08:43:44Z</time>
      </trkpt>
      <trkpt lat="44.96243" lon="3.94754">
        <ele>890.8</ele>
        <time>2022-08-01T08:43:45Z</time>
      </trkpt>
      <trkpt lat="44.96235" lon="3.9477">
        <ele>889.84</ele>
        <time>2022-08-01T08:43:57Z</time>
      </trkpt>
      <trkpt lat="44.96223" lon="3.9479">
        <ele>888.88</ele>
        <time>2022-08-01T08:44:12Z</time>
      </trkpt>
      <trkpt lat="44.96208" lon="3.94809">
        <ele>891.76</ele>
        <time>2022-08-01T08:44:28Z</time>
      </trkpt>
      <trkpt lat="44.96203" lon="3.94815">
        <ele>894.16</ele>
        <time>2022-08-01T08:44:33Z</time>
      </trkpt>
      <trkpt lat="44.96198" lon="3.94819">
        <ele>896.09</ele>
        <time>2022-08-01T08:44:37Z</time>
      </trkpt>
      <trkpt lat="44.96196" lon="3.94822">
        <ele>897.53</ele>
        <time>2022-08-01T08:44:39Z</time>
      </trkpt>
      <trkpt lat="44.96195" lon="3.94824">
        <ele>898.49</ele>
        <time>2022-08-01T08:44:40Z</time>
      </trkpt>
      <trkpt lat="44.96194" lon="3.94825">
        <ele>898.97</ele>
        <time>2022-08-01T08:44:41Z</time>
      </trkpt>
      <trkpt lat="44.96193" lon="3.94827">
        <ele>899.93</ele>
        <time>2022-08-01T08:44:42Z</time>
      </trkpt>
      <trkpt lat="44.96193" lon="3.94828">
        <ele>900.89</ele>
        <time>2022-08-01T08:44:43Z</time>
      </trkpt>
      <trkpt lat="44.96188" lon="3.94847">
        <ele>904.74</ele>
        <time>2022-08-01T08:44:53Z</time>
      </trkpt>
      <trkpt lat="44.96188" lon="3.94849">
        <ele>904.74</ele>
        <time>2022-08-01T08:44:54Z</time>
      </trkpt>
      <trkpt lat="44.96188" lon="3.94851">
        <ele>904.74</ele>
        <time>2022-08-01T08:44:55Z</time>
      </trkpt>
      <trkpt lat="44.96188" lon="3.94853">
        <ele>904.74</ele>
        <time>2022-08-01T08:44:56Z</time>
      </trkpt>
      <trkpt lat="44.96187" lon="3.94854">
        <ele>905.22</ele>
        <time>2022-08-01T08:44:57Z</time>
      </trkpt>
      <trkpt lat="44.96184" lon="3.94878">
        <ele>907.14</ele>
        <time>2022-08-01T08:45:11Z</time>
      </trkpt>
      <trkpt lat="44.96185" lon="3.94885">
        <ele>907.14</ele>
        <time>2022-08-01T08:45:15Z</time>
      </trkpt>
      <trkpt lat="44.96185" lon="3.94887">
        <ele>907.14</ele>
        <time>2022-08-01T08:45:16Z</time>
      </trkpt>
      <trkpt lat="44.96185" lon="3.94889">
        <ele>907.14</ele>
        <time>2022-08-01T08:45:17Z</time>
      </trkpt>
      <trkpt lat="44.96185" lon="3.94912">
        <ele>907.14</ele>
        <time>2022-08-01T08:45:30Z</time>
      </trkpt>
      <trkpt lat="44.96186" lon="3.94931">
        <ele>908.58</ele>
        <time>2022-08-01T08:45:40Z</time>
      </trkpt>
      <trkpt lat="44.96187" lon="3.94946">
        <ele>909.54</ele>
        <time>2022-08-01T08:45:48Z</time>
      </trkpt>
      <trkpt lat="44.96188" lon="3.94952">
        <ele>910.03</ele>
        <time>2022-08-01T08:45:52Z</time>
      </trkpt>
      <trkpt lat="44.96188" lon="3.94954">
        <ele>910.03</ele>
        <time>2022-08-01T08:45:53Z</time>
      </trkpt>
      <trkpt lat="44.96188" lon="3.94955">
        <ele>910.51</ele>
        <time>2022-08-01T08:45:54Z</time>
      </trkpt>
      <trkpt lat="44.96192" lon="3.94982">
        <ele>910.51</ele>
        <time>2022-08-01T08:46:09Z</time>
      </trkpt>
      <trkpt lat="44.96194" lon="3.94991">
        <ele>910.03</ele>
        <time>2022-08-01T08:46:14Z</time>
      </trkpt>
      <trkpt lat="44.96195" lon="3.94998">
        <ele>909.54</ele>
        <time>2022-08-01T08:46:19Z</time>
      </trkpt>
      <trkpt lat="44.96197" lon="3.95007">
        <ele>909.54</ele>
        <time>2022-08-01T08:46:24Z</time>
      </trkpt>
      <trkpt lat="44.96198" lon="3.95015">
        <ele>909.54</ele>
        <time>2022-08-01T08:46:28Z</time>
      </trkpt>
      <trkpt lat="44.96199" lon="3.95017">
        <ele>909.54</ele>
        <time>2022-08-01T08:46:29Z</time>
      </trkpt>
      <trkpt lat="44.96201" lon="3.95042">
        <ele>912.43</ele>
        <time>2022-08-01T08:46:42Z</time>
      </trkpt>
      <trkpt lat="44.96203" lon="3.95049">
        <ele>912.43</ele>
        <time>2022-08-01T08:46:46Z</time>
      </trkpt>
      <trkpt lat="44.96203" lon="3.95052">
        <ele>912.43</ele>
        <time>2022-08-01T08:46:48Z</time>
      </trkpt>
      <trkpt lat="44.96203" lon="3.95073">
        <ele>911.95</ele>
        <time>2022-08-01T08:47:02Z</time>
      </trkpt>
      <trkpt lat="44.96205" lon="3.95097">
        <ele>913.87</ele>
        <time>2022-08-01T08:47:17Z</time>
      </trkpt>
      <trkpt lat="44.96205" lon="3.9512">
        <ele>915.31</ele>
        <time>2022-08-01T08:47:30Z</time>
      </trkpt>
      <trkpt lat="44.96208" lon="3.95152">
        <ele>912.43</ele>
        <time>2022-08-01T08:47:47Z</time>
      </trkpt>
      <trkpt lat="44.96211" lon="3.95175">
        <ele>910.99</ele>
        <time>2022-08-01T08:47:59Z</time>
      </trkpt>
      <trkpt lat="44.96211" lon="3.95177">
        <ele>911.47</ele>
        <time>2022-08-01T08:48:00Z</time>
      </trkpt>
      <trkpt lat="44.96212" lon="3.95204">
        <ele>912.91</ele>
        <time>2022-08-01T08:48:14Z</time>
      </trkpt>
      <trkpt lat="44.96212" lon="3.95206">
        <ele>912.91</ele>
        <time>2022-08-01T08:48:15Z</time>
      </trkpt>
      <trkpt lat="44.96211" lon="3.95208">
        <ele>912.91</ele>
        <time>2022-08-01T08:48:16Z</time>
      </trkpt>
      <trkpt lat="44.96212" lon="3.9524">
        <ele>911.47</ele>
        <time>2022-08-01T08:48:33Z</time>
      </trkpt>
      <trkpt lat="44.96213" lon="3.95269">
        <ele>911.95</ele>
        <time>2022-08-01T08:48:49Z</time>
      </trkpt>
      <trkpt lat="44.96216" lon="3.95298">
        <ele>912.43</ele>
        <time>2022-08-01T08:49:06Z</time>
      </trkpt>
      <trkpt lat="44.96218" lon="3.9531">
        <ele>910.51</ele>
        <time>2022-08-01T08:49:14Z</time>
      </trkpt>
      <trkpt lat="44.96219" lon="3.95314">
        <ele>910.51</ele>
        <time>2022-08-01T08:49:16Z</time>
      </trkpt>
      <trkpt lat="44.96219" lon="3.95316">
        <ele>910.03</ele>
        <time>2022-08-01T08:49:17Z</time>
      </trkpt>
      <trkpt lat="44.96219" lon="3.95318">
        <ele>910.03</ele>
        <time>2022-08-01T08:49:18Z</time>
      </trkpt>
      <trkpt lat="44.96219" lon="3.9532">
        <ele>910.03</ele>
        <time>2022-08-01T08:49:19Z</time>
      </trkpt>
      <trkpt lat="44.96219" lon="3.95321">
        <ele>910.03</ele>
        <time>2022-08-01T08:49:20Z</time>
      </trkpt>
      <trkpt lat="44.96219" lon="3.95323">
        <ele>910.03</ele>
        <time>2022-08-01T08:49:21Z</time>
      </trkpt>
      <trkpt lat="44.96219" lon="3.95325">
        <ele>910.03</ele>
        <time>2022-08-01T08:49:22Z</time>
      </trkpt>
      <trkpt lat="44.96218" lon="3.95343">
        <ele>909.54</ele>
        <time>2022-08-01T08:49:33Z</time>
      </trkpt>
      <trkpt lat="44.96219" lon="3.95354">
        <ele>910.03</ele>
        <time>2022-08-01T08:49:40Z</time>
      </trkpt>
      <trkpt lat="44.9622" lon="3.95375">
        <ele>911.95</ele>
        <time>2022-08-01T08:49:53Z</time>
      </trkpt>
      <trkpt lat="44.96221" lon="3.95399">
        <ele>912.91</ele>
        <time>2022-08-01T08:50:05Z</time>
      </trkpt>
      <trkpt lat="44.96221" lon="3.95413">
        <ele>912.91</ele>
        <time>2022-08-01T08:50:12Z</time>
      </trkpt>
      <trkpt lat="44.96222" lon="3.95419">
        <ele>912.43</ele>
        <time>2022-08-01T08:50:15Z</time>
      </trkpt>
      <trkpt lat="44.96222" lon="3.95421">
        <ele>912.43</ele>
        <time>2022-08-01T08:50:16Z</time>
      </trkpt>
      <trkpt lat="44.96222" lon="3.95423">
        <ele>911.95</ele>
        <time>2022-08-01T08:50:17Z</time>
      </trkpt>
      <trkpt lat="44.96222" lon="3.95426">
        <ele>911.95</ele>
        <time>2022-08-01T08:50:18Z</time>
      </trkpt>
      <trkpt lat="44.96222" lon="3.95449">
        <ele>909.54</ele>
        <time>2022-08-01T08:50:30Z</time>
      </trkpt>
      <trkpt lat="44.96222" lon="3.95477">
        <ele>910.99</ele>
        <time>2022-08-01T08:50:46Z</time>
      </trkpt>
      <trkpt lat="44.96223" lon="3.95479">
        <ele>910.99</ele>
        <time>2022-08-01T08:50:47Z</time>
      </trkpt>
      <trkpt lat="44.96225" lon="3.95508">
        <ele>913.87</ele>
        <time>2022-08-01T08:51:02Z</time>
      </trkpt>
      <trkpt lat="44.96227" lon="3.95531">
        <ele>911.47</ele>
        <time>2022-08-01T08:51:15Z</time>
      </trkpt>
      <trkpt lat="44.96227" lon="3.95533">
        <ele>911.47</ele>
        <time>2022-08-01T08:51:16Z</time>
      </trkpt>
      <trkpt lat="44.96228" lon="3.95543">
        <ele>911.47</ele>
        <time>2022-08-01T08:51:22Z</time>
      </trkpt>
      <trkpt lat="44.96228" lon="3.95547">
        <ele>911.47</ele>
        <time>2022-08-01T08:51:24Z</time>
      </trkpt>
      <trkpt lat="44.96228" lon="3.95548">
        <ele>911.95</ele>
        <time>2022-08-01T08:51:25Z</time>
      </trkpt>
      <trkpt lat="44.96227" lon="3.95574">
        <ele>914.83</ele>
        <time>2022-08-01T08:51:38Z</time>
      </trkpt>
      <trkpt lat="44.96227" lon="3.95576">
        <ele>915.31</ele>
        <time>2022-08-01T08:51:39Z</time>
      </trkpt>
      <trkpt lat="44.96227" lon="3.95578">
        <ele>915.31</ele>
        <time>2022-08-01T08:51:40Z</time>
      </trkpt>
      <trkpt lat="44.96227" lon="3.9558">
        <ele>915.79</ele>
        <time>2022-08-01T08:51:41Z</time>
      </trkpt>
      <trkpt lat="44.96228" lon="3.95602">
        <ele>919.16</ele>
        <time>2022-08-01T08:51:54Z</time>
      </trkpt>
      <trkpt lat="44.96234" lon="3.95623">
        <ele>923.48</ele>
        <time>2022-08-01T08:52:08Z</time>
      </trkpt>
      <trkpt lat="44.96237" lon="3.95648">
        <ele>925.89</ele>
        <time>2022-08-01T08:52:22Z</time>
      </trkpt>
      <trkpt lat="44.96238" lon="3.95669">
        <ele>926.37</ele>
        <time>2022-08-01T08:52:32Z</time>
      </trkpt>
      <trkpt lat="44.96238" lon="3.95671">
        <ele>926.37</ele>
        <time>2022-08-01T08:52:33Z</time>
      </trkpt>
      <trkpt lat="44.96242" lon="3.95687">
        <ele>924.93</ele>
        <time>2022-08-01T08:52:42Z</time>
      </trkpt>
      <trkpt lat="44.96242" lon="3.95689">
        <ele>924.93</ele>
        <time>2022-08-01T08:52:43Z</time>
      </trkpt>
      <trkpt lat="44.96245" lon="3.95711">
        <ele>926.85</ele>
        <time>2022-08-01T08:52:56Z</time>
      </trkpt>
      <trkpt lat="44.96245" lon="3.95713">
        <ele>927.33</ele>
        <time>2022-08-01T08:52:57Z</time>
      </trkpt>
      <trkpt lat="44.96245" lon="3.95736">
        <ele>927.81</ele>
        <time>2022-08-01T08:53:10Z</time>
      </trkpt>
      <trkpt lat="44.96244" lon="3.95744">
        <ele>928.29</ele>
        <time>2022-08-01T08:53:14Z</time>
      </trkpt>
      <trkpt lat="44.96244" lon="3.95754">
        <ele>928.29</ele>
        <time>2022-08-01T08:53:20Z</time>
      </trkpt>
      <trkpt lat="44.96243" lon="3.95757">
        <ele>928.29</ele>
        <time>2022-08-01T08:53:21Z</time>
      </trkpt>
      <trkpt lat="44.96243" lon="3.95759">
        <ele>928.29</ele>
        <time>2022-08-01T08:53:22Z</time>
      </trkpt>
      <trkpt lat="44.96248" lon="3.95789">
        <ele>921.08</ele>
        <time>2022-08-01T08:53:36Z</time>
      </trkpt>
      <trkpt lat="44.9625" lon="3.9582">
        <ele>917.72</ele>
        <time>2022-08-01T08:53:51Z</time>
      </trkpt>
      <trkpt lat="44.96256" lon="3.95846">
        <ele>914.83</ele>
        <time>2022-08-01T08:54:05Z</time>
      </trkpt>
      <trkpt lat="44.96257" lon="3.95862">
        <ele>913.39</ele>
        <time>2022-08-01T08:54:16Z</time>
      </trkpt>
      <trkpt lat="44.96256" lon="3.95863">
        <ele>912.91</ele>
        <time>2022-08-01T08:54:17Z</time>
      </trkpt>
      <trkpt lat="44.96251" lon="3.95878">
        <ele>910.51</ele>
        <time>2022-08-01T08:54:31Z</time>
      </trkpt>
      <trkpt lat="44.96243" lon="3.95891">
        <ele>910.03</ele>
        <time>2022-08-01T08:54:44Z</time>
      </trkpt>
      <trkpt lat="44.96233" lon="3.95909">
        <ele>912.91</ele>
        <time>2022-08-01T08:54:59Z</time>
      </trkpt>
      <trkpt lat="44.9622" lon="3.95933">
        <ele>916.27</ele>
        <time>2022-08-01T08:55:16Z</time>
      </trkpt>
      <trkpt lat="44.9621" lon="3.95953">
        <ele>919.16</ele>
        <time>2022-08-01T08:55:30Z</time>
      </trkpt>
      <trkpt lat="44.96198" lon="3.95961">
        <ele>921.08</ele>
        <time>2022-08-01T08:55:39Z</time>
      </trkpt>
      <trkpt lat="44.96197" lon="3.95962">
        <ele>921.56</ele>
        <time>2022-08-01T08:55:40Z</time>
      </trkpt>
      <trkpt lat="44.96196" lon="3.95963">
        <ele>921.56</ele>
        <time>2022-08-01T08:55:41Z</time>
      </trkpt>
      <trkpt lat="44.96195" lon="3.95964">
        <ele>922.04</ele>
        <time>2022-08-01T08:55:42Z</time>
      </trkpt>
      <trkpt lat="44.96194" lon="3.95965">
        <ele>922.04</ele>
        <time>2022-08-01T08:55:43Z</time>
      </trkpt>
      <trkpt lat="44.96193" lon="3.95966">
        <ele>922.52</ele>
        <time>2022-08-01T08:55:44Z</time>
      </trkpt>
      <trkpt lat="44.96192" lon="3.95967">
        <ele>922.52</ele>
        <time>2022-08-01T08:55:45Z</time>
      </trkpt>
      <trkpt lat="44.96182" lon="3.95981">
        <ele>926.85</ele>
        <time>2022-08-01T08:55:56Z</time>
      </trkpt>
      <trkpt lat="44.96182" lon="3.95983">
        <ele>927.33</ele>
        <time>2022-08-01T08:55:57Z</time>
      </trkpt>
      <trkpt lat="44.96173" lon="3.95999">
        <ele>931.65</ele>
        <time>2022-08-01T08:56:09Z</time>
      </trkpt>
      <trkpt lat="44.96167" lon="3.96021">
        <ele>935.5</ele>
        <time>2022-08-01T08:56:22Z</time>
      </trkpt>
      <trkpt lat="44.96156" lon="3.96046">
        <ele>937.9</ele>
        <time>2022-08-01T08:56:36Z</time>
      </trkpt>
      <trkpt lat="44.96145" lon="3.96067">
        <ele>937.42</ele>
        <time>2022-08-01T08:56:48Z</time>
      </trkpt>
      <trkpt lat="44.96145" lon="3.96069">
        <ele>937.42</ele>
        <time>2022-08-01T08:56:49Z</time>
      </trkpt>
      <trkpt lat="44.96145" lon="3.96071">
        <ele>936.94</ele>
        <time>2022-08-01T08:56:50Z</time>
      </trkpt>
      <trkpt lat="44.96136" lon="3.96092">
        <ele>937.42</ele>
        <time>2022-08-01T08:57:03Z</time>
      </trkpt>
      <trkpt lat="44.96126" lon="3.96113">
        <ele>936.94</ele>
        <time>2022-08-01T08:57:18Z</time>
      </trkpt>
      <trkpt lat="44.96121" lon="3.96119">
        <ele>935.02</ele>
        <time>2022-08-01T08:57:22Z</time>
      </trkpt>
      <trkpt lat="44.96121" lon="3.96126">
        <ele>933.1</ele>
        <time>2022-08-01T08:57:25Z</time>
      </trkpt>
      <trkpt lat="44.9612" lon="3.96128">
        <ele>932.62</ele>
        <time>2022-08-01T08:57:26Z</time>
      </trkpt>
      <trkpt lat="44.96119" lon="3.96128">
        <ele>932.14</ele>
        <time>2022-08-01T08:57:27Z</time>
      </trkpt>
      <trkpt lat="44.96117" lon="3.96129">
        <ele>932.14</ele>
        <time>2022-08-01T08:57:28Z</time>
      </trkpt>
      <trkpt lat="44.96116" lon="3.9613">
        <ele>931.17</ele>
        <time>2022-08-01T08:57:29Z</time>
      </trkpt>
      <trkpt lat="44.96105" lon="3.96148">
        <ele>921.08</ele>
        <time>2022-08-01T08:57:43Z</time>
      </trkpt>
      <trkpt lat="44.96104" lon="3.96149">
        <ele>920.6</ele>
        <time>2022-08-01T08:57:44Z</time>
      </trkpt>
      <trkpt lat="44.96103" lon="3.96151">
        <ele>920.12</ele>
        <time>2022-08-01T08:57:45Z</time>
      </trkpt>
      <trkpt lat="44.96102" lon="3.96152">
        <ele>919.64</ele>
        <time>2022-08-01T08:57:46Z</time>
      </trkpt>
      <trkpt lat="44.96094" lon="3.96163">
        <ele>916.27</ele>
        <time>2022-08-01T08:57:55Z</time>
      </trkpt>
      <trkpt lat="44.96081" lon="3.96171">
        <ele>915.31</ele>
        <time>2022-08-01T08:58:08Z</time>
      </trkpt>
      <trkpt lat="44.96066" lon="3.96178">
        <ele>907.62</ele>
        <time>2022-08-01T08:58:24Z</time>
      </trkpt>
      <trkpt lat="44.96046" lon="3.96179">
        <ele>904.74</ele>
        <time>2022-08-01T08:58:41Z</time>
      </trkpt>
      <trkpt lat="44.96035" lon="3.96181">
        <ele>903.3</ele>
        <time>2022-08-01T08:58:50Z</time>
      </trkpt>
      <trkpt lat="44.96023" lon="3.96193">
        <ele>907.62</ele>
        <time>2022-08-01T08:59:03Z</time>
      </trkpt>
      <trkpt lat="44.96002" lon="3.96209">
        <ele>913.87</ele>
        <time>2022-08-01T08:59:19Z</time>
      </trkpt>
      <trkpt lat="44.95998" lon="3.96231">
        <ele>913.39</ele>
        <time>2022-08-01T08:59:31Z</time>
      </trkpt>
      <trkpt lat="44.95996" lon="3.96247">
        <ele>912.91</ele>
        <time>2022-08-01T08:59:44Z</time>
      </trkpt>
      <trkpt lat="44.95987" lon="3.96262">
        <ele>910.99</ele>
        <time>2022-08-01T08:59:57Z</time>
      </trkpt>
      <trkpt lat="44.95977" lon="3.96275">
        <ele>911.95</ele>
        <time>2022-08-01T09:00:06Z</time>
      </trkpt>
      <trkpt lat="44.95975" lon="3.96276">
        <ele>911.47</ele>
        <time>2022-08-01T09:00:07Z</time>
      </trkpt>
      <trkpt lat="44.95974" lon="3.96278">
        <ele>911.95</ele>
        <time>2022-08-01T09:00:08Z</time>
      </trkpt>
      <trkpt lat="44.95963" lon="3.96294">
        <ele>910.99</ele>
        <time>2022-08-01T09:00:21Z</time>
      </trkpt>
      <trkpt lat="44.95944" lon="3.96311">
        <ele>911.47</ele>
        <time>2022-08-01T09:00:37Z</time>
      </trkpt>
      <trkpt lat="44.95931" lon="3.96323">
        <ele>910.03</ele>
        <time>2022-08-01T09:00:50Z</time>
      </trkpt>
      <trkpt lat="44.9592" lon="3.96346">
        <ele>907.14</ele>
        <time>2022-08-01T09:01:05Z</time>
      </trkpt>
      <trkpt lat="44.95911" lon="3.96366">
        <ele>910.03</ele>
        <time>2022-08-01T09:01:18Z</time>
      </trkpt>
      <trkpt lat="44.95909" lon="3.96369">
        <ele>910.51</ele>
        <time>2022-08-01T09:01:20Z</time>
      </trkpt>
      <trkpt lat="44.95904" lon="3.96389">
        <ele>913.39</ele>
        <time>2022-08-01T09:01:33Z</time>
      </trkpt>
      <trkpt lat="44.95904" lon="3.96395">
        <ele>913.87</ele>
        <time>2022-08-01T09:01:36Z</time>
      </trkpt>
      <trkpt lat="44.95904" lon="3.964">
        <ele>914.83</ele>
        <time>2022-08-01T09:01:39Z</time>
      </trkpt>
      <trkpt lat="44.95898" lon="3.96423">
        <ele>917.24</ele>
        <time>2022-08-01T09:01:54Z</time>
      </trkpt>
      <trkpt lat="44.95892" lon="3.96449">
        <ele>916.75</ele>
        <time>2022-08-01T09:02:10Z</time>
      </trkpt>
      <trkpt lat="44.95882" lon="3.96471">
        <ele>914.35</ele>
        <time>2022-08-01T09:02:23Z</time>
      </trkpt>
      <trkpt lat="44.95869" lon="3.96497">
        <ele>912.43</ele>
        <time>2022-08-01T09:02:38Z</time>
      </trkpt>
      <trkpt lat="44.95858" lon="3.96517">
        <ele>911.95</ele>
        <time>2022-08-01T09:02:52Z</time>
      </trkpt>
      <trkpt lat="44.95844" lon="3.96545">
        <ele>907.62</ele>
        <time>2022-08-01T09:03:09Z</time>
      </trkpt>
      <trkpt lat="44.95829" lon="3.96567">
        <ele>904.74</ele>
        <time>2022-08-01T09:03:26Z</time>
      </trkpt>
      <trkpt lat="44.95816" lon="3.96588">
        <ele>904.74</ele>
        <time>2022-08-01T09:03:41Z</time>
      </trkpt>
      <trkpt lat="44.95801" lon="3.96603">
        <ele>906.18</ele>
        <time>2022-08-01T09:03:56Z</time>
      </trkpt>
      <trkpt lat="44.95799" lon="3.96604">
        <ele>906.18</ele>
        <time>2022-08-01T09:03:58Z</time>
      </trkpt>
      <trkpt lat="44.95798" lon="3.96605">
        <ele>906.18</ele>
        <time>2022-08-01T09:03:59Z</time>
      </trkpt>
      <trkpt lat="44.95796" lon="3.96605">
        <ele>906.66</ele>
        <time>2022-08-01T09:04:00Z</time>
      </trkpt>
      <trkpt lat="44.95795" lon="3.96606">
        <ele>906.66</ele>
        <time>2022-08-01T09:04:01Z</time>
      </trkpt>
      <trkpt lat="44.95794" lon="3.96607">
        <ele>906.66</ele>
        <time>2022-08-01T09:04:02Z</time>
      </trkpt>
      <trkpt lat="44.95793" lon="3.96608">
        <ele>906.66</ele>
        <time>2022-08-01T09:04:03Z</time>
      </trkpt>
      <trkpt lat="44.95776" lon="3.96621">
        <ele>907.14</ele>
        <time>2022-08-01T09:04:18Z</time>
      </trkpt>
      <trkpt lat="44.95758" lon="3.96634">
        <ele>909.06</ele>
        <time>2022-08-01T09:04:32Z</time>
      </trkpt>
      <trkpt lat="44.95752" lon="3.9664">
        <ele>909.54</ele>
        <time>2022-08-01T09:04:38Z</time>
      </trkpt>
      <trkpt lat="44.95751" lon="3.96641">
        <ele>909.54</ele>
        <time>2022-08-01T09:04:39Z</time>
      </trkpt>
      <trkpt lat="44.95735" lon="3.96659">
        <ele>908.1</ele>
        <time>2022-08-01T09:04:54Z</time>
      </trkpt>
      <trkpt lat="44.9572" lon="3.96676">
        <ele>907.62</ele>
        <time>2022-08-01T09:05:09Z</time>
      </trkpt>
      <trkpt lat="44.95719" lon="3.96677">
        <ele>907.62</ele>
        <time>2022-08-01T09:05:10Z</time>
      </trkpt>
      <trkpt lat="44.95718" lon="3.96678">
        <ele>907.62</ele>
        <time>2022-08-01T09:05:11Z</time>
      </trkpt>
      <trkpt lat="44.95713" lon="3.96682">
        <ele>907.14</ele>
        <time>2022-08-01T09:05:15Z</time>
      </trkpt>
      <trkpt lat="44.95712" lon="3.96683">
        <ele>906.66</ele>
        <time>2022-08-01T09:05:16Z</time>
      </trkpt>
      <trkpt lat="44.9571" lon="3.96684">
        <ele>906.18</ele>
        <time>2022-08-01T09:05:18Z</time>
      </trkpt>
      <trkpt lat="44.95699" lon="3.96696">
        <ele>905.7</ele>
        <time>2022-08-01T09:05:29Z</time>
      </trkpt>
      <trkpt lat="44.95686" lon="3.96716">
        <ele>902.82</ele>
        <time>2022-08-01T09:05:44Z</time>
      </trkpt>
      <trkpt lat="44.95685" lon="3.96718">
        <ele>902.82</ele>
        <time>2022-08-01T09:05:45Z</time>
      </trkpt>
      <trkpt lat="44.95684" lon="3.9672">
        <ele>902.82</ele>
        <time>2022-08-01T09:05:46Z</time>
      </trkpt>
      <trkpt lat="44.95684" lon="3.96722">
        <ele>902.82</ele>
        <time>2022-08-01T09:05:47Z</time>
      </trkpt>
      <trkpt lat="44.95683" lon="3.96723">
        <ele>902.82</ele>
        <time>2022-08-01T09:05:48Z</time>
      </trkpt>
      <trkpt lat="44.95682" lon="3.96725">
        <ele>902.33</ele>
        <time>2022-08-01T09:05:49Z</time>
      </trkpt>
      <trkpt lat="44.9567" lon="3.96744">
        <ele>903.3</ele>
        <time>2022-08-01T09:06:01Z</time>
      </trkpt>
      <trkpt lat="44.95669" lon="3.96745">
        <ele>903.3</ele>
        <time>2022-08-01T09:06:02Z</time>
      </trkpt>
      <trkpt lat="44.95666" lon="3.9675">
        <ele>904.26</ele>
        <time>2022-08-01T09:06:05Z</time>
      </trkpt>
      <trkpt lat="44.95653" lon="3.96769">
        <ele>907.14</ele>
        <time>2022-08-01T09:06:19Z</time>
      </trkpt>
      <trkpt lat="44.9564" lon="3.96788">
        <ele>907.14</ele>
        <time>2022-08-01T09:06:32Z</time>
      </trkpt>
      <trkpt lat="44.95626" lon="3.96811">
        <ele>904.26</ele>
        <time>2022-08-01T09:06:48Z</time>
      </trkpt>
      <trkpt lat="44.95613" lon="3.96829">
        <ele>903.78</ele>
        <time>2022-08-01T09:07:02Z</time>
      </trkpt>
      <trkpt lat="44.956" lon="3.96851">
        <ele>905.22</ele>
        <time>2022-08-01T09:07:17Z</time>
      </trkpt>
      <trkpt lat="44.9559" lon="3.9687">
        <ele>906.18</ele>
        <time>2022-08-01T09:07:31Z</time>
      </trkpt>
      <trkpt lat="44.95579" lon="3.9689">
        <ele>905.22</ele>
        <time>2022-08-01T09:07:46Z</time>
      </trkpt>
      <trkpt lat="44.95567" lon="3.96906">
        <ele>904.74</ele>
        <time>2022-08-01T09:07:59Z</time>
      </trkpt>
      <trkpt lat="44.95566" lon="3.96908">
        <ele>904.74</ele>
        <time>2022-08-01T09:08:00Z</time>
      </trkpt>
      <trkpt lat="44.95564" lon="3.9691">
        <ele>904.74</ele>
        <time>2022-08-01T09:08:02Z</time>
      </trkpt>
      <trkpt lat="44.95562" lon="3.96912">
        <ele>905.22</ele>
        <time>2022-08-01T09:08:04Z</time>
      </trkpt>
      <trkpt lat="44.95561" lon="3.96914">
        <ele>905.22</ele>
        <time>2022-08-01T09:08:05Z</time>
      </trkpt>
      <trkpt lat="44.9556" lon="3.96916">
        <ele>905.7</ele>
        <time>2022-08-01T09:08:06Z</time>
      </trkpt>
      <trkpt lat="44.95559" lon="3.96918">
        <ele>905.7</ele>
        <time>2022-08-01T09:08:07Z</time>
      </trkpt>
      <trkpt lat="44.95558" lon="3.96919">
        <ele>905.7</ele>
        <time>2022-08-01T09:08:08Z</time>
      </trkpt>
      <trkpt lat="44.95549" lon="3.96944">
        <ele>907.62</ele>
        <time>2022-08-01T09:08:21Z</time>
      </trkpt>
      <trkpt lat="44.95546" lon="3.96977">
        <ele>903.3</ele>
        <time>2022-08-01T09:08:35Z</time>
      </trkpt>
      <trkpt lat="44.95546" lon="3.96982">
        <ele>901.85</ele>
        <time>2022-08-01T09:08:37Z</time>
      </trkpt>
      <trkpt lat="44.95544" lon="3.96998">
        <ele>897.53</ele>
        <time>2022-08-01T09:08:45Z</time>
      </trkpt>
      <trkpt lat="44.95544" lon="3.97">
        <ele>897.53</ele>
        <time>2022-08-01T09:08:46Z</time>
      </trkpt>
      <trkpt lat="44.95544" lon="3.97002">
        <ele>897.05</ele>
        <time>2022-08-01T09:08:47Z</time>
      </trkpt>
      <trkpt lat="44.95534" lon="3.9703">
        <ele>894.64</ele>
        <time>2022-08-01T09:09:02Z</time>
      </trkpt>
      <trkpt lat="44.95532" lon="3.97046">
        <ele>895.61</ele>
        <time>2022-08-01T09:09:10Z</time>
      </trkpt>
      <trkpt lat="44.95532" lon="3.97048">
        <ele>895.61</ele>
        <time>2022-08-01T09:09:11Z</time>
      </trkpt>
      <trkpt lat="44.95532" lon="3.9705">
        <ele>896.09</ele>
        <time>2022-08-01T09:09:12Z</time>
      </trkpt>
      <trkpt lat="44.95528" lon="3.97062">
        <ele>897.05</ele>
        <time>2022-08-01T09:09:21Z</time>
      </trkpt>
      <trkpt lat="44.95507" lon="3.97062">
        <ele>898.49</ele>
        <time>2022-08-01T09:09:37Z</time>
      </trkpt>
      <trkpt lat="44.95485" lon="3.97063">
        <ele>898.49</ele>
        <time>2022-08-01T09:09:52Z</time>
      </trkpt>
      <trkpt lat="44.95468" lon="3.97068">
        <ele>902.33</ele>
        <time>2022-08-01T09:10:07Z</time>
      </trkpt>
      <trkpt lat="44.95453" lon="3.97087">
        <ele>905.7</ele>
        <time>2022-08-01T09:10:23Z</time>
      </trkpt>
      <trkpt lat="44.95447" lon="3.97094">
        <ele>907.14</ele>
        <time>2022-08-01T09:10:33Z</time>
      </trkpt>
      <trkpt lat="44.95432" lon="3.97096">
        <ele>908.1</ele>
        <time>2022-08-01T09:10:50Z</time>
      </trkpt>
      <trkpt lat="44.95422" lon="3.97096">
        <ele>907.62</ele>
        <time>2022-08-01T09:11:04Z</time>
      </trkpt>
      <trkpt lat="44.95406" lon="3.97097">
        <ele>908.58</ele>
        <time>2022-08-01T09:11:18Z</time>
      </trkpt>
      <trkpt lat="44.95395" lon="3.97099">
        <ele>910.03</ele>
        <time>2022-08-01T09:11:32Z</time>
      </trkpt>
      <trkpt lat="44.95379" lon="3.97106">
        <ele>912.43</ele>
        <time>2022-08-01T09:11:47Z</time>
      </trkpt>
      <trkpt lat="44.95368" lon="3.9711">
        <ele>913.39</ele>
        <time>2022-08-01T09:11:59Z</time>
      </trkpt>
      <trkpt lat="44.9535" lon="3.97117">
        <ele>915.31</ele>
        <time>2022-08-01T09:12:14Z</time>
      </trkpt>
      <trkpt lat="44.9534" lon="3.97114">
        <ele>915.79</ele>
        <time>2022-08-01T09:12:28Z</time>
      </trkpt>
      <trkpt lat="44.95341" lon="3.97111">
        <ele>916.75</ele>
        <time>2022-08-01T09:12:31Z</time>
      </trkpt>
      <trkpt lat="44.95342" lon="3.9711">
        <ele>917.24</ele>
        <time>2022-08-01T09:12:32Z</time>
      </trkpt>
      <trkpt lat="44.95343" lon="3.97097">
        <ele>919.16</ele>
        <time>2022-08-01T09:12:44Z</time>
      </trkpt>
      <trkpt lat="44.95336" lon="3.97092">
        <ele>918.68</ele>
        <time>2022-08-01T09:12:57Z</time>
      </trkpt>
      <trkpt lat="44.95331" lon="3.97087">
        <ele>917.72</ele>
        <time>2022-08-01T09:13:09Z</time>
      </trkpt>
      <trkpt lat="44.95324" lon="3.97084">
        <ele>915.79</ele>
        <time>2022-08-01T09:13:22Z</time>
      </trkpt>
      <trkpt lat="44.95308" lon="3.97082">
        <ele>917.24</ele>
        <time>2022-08-01T09:13:36Z</time>
      </trkpt>
      <trkpt lat="44.953" lon="3.9708">
        <ele>917.24</ele>
        <time>2022-08-01T09:13:43Z</time>
      </trkpt>
      <trkpt lat="44.95288" lon="3.97078">
        <ele>919.16</ele>
        <time>2022-08-01T09:13:57Z</time>
      </trkpt>
      <trkpt lat="44.95279" lon="3.97071">
        <ele>922.52</ele>
        <time>2022-08-01T09:14:12Z</time>
      </trkpt>
      <trkpt lat="44.95271" lon="3.97068">
        <ele>926.37</ele>
        <time>2022-08-01T09:14:23Z</time>
      </trkpt>
      <trkpt lat="44.9526" lon="3.97058">
        <ele>929.73</ele>
        <time>2022-08-01T09:14:38Z</time>
      </trkpt>
      <trkpt lat="44.95259" lon="3.97058">
        <ele>929.73</ele>
        <time>2022-08-01T09:14:39Z</time>
      </trkpt>
      <trkpt lat="44.95248" lon="3.97053">
        <ele>929.25</ele>
        <time>2022-08-01T09:14:51Z</time>
      </trkpt>
      <trkpt lat="44.95239" lon="3.97048">
        <ele>930.69</ele>
        <time>2022-08-01T09:15:05Z</time>
      </trkpt>
      <trkpt lat="44.95229" lon="3.97044">
        <ele>932.14</ele>
        <time>2022-08-01T09:15:17Z</time>
      </trkpt>
      <trkpt lat="44.95215" lon="3.9704">
        <ele>931.65</ele>
        <time>2022-08-01T09:15:32Z</time>
      </trkpt>
      <trkpt lat="44.95201" lon="3.97037">
        <ele>932.14</ele>
        <time>2022-08-01T09:15:46Z</time>
      </trkpt>
      <trkpt lat="44.95188" lon="3.97036">
        <ele>934.06</ele>
        <time>2022-08-01T09:16:01Z</time>
      </trkpt>
      <trkpt lat="44.95178" lon="3.97032">
        <ele>936.94</ele>
        <time>2022-08-01T09:16:15Z</time>
      </trkpt>
      <trkpt lat="44.9517" lon="3.97027">
        <ele>940.31</ele>
        <time>2022-08-01T09:16:27Z</time>
      </trkpt>
      <trkpt lat="44.95162" lon="3.97023">
        <ele>945.11</ele>
        <time>2022-08-01T09:16:39Z</time>
      </trkpt>
      <trkpt lat="44.95151" lon="3.97021">
        <ele>949.92</ele>
        <time>2022-08-01T09:16:53Z</time>
      </trkpt>
      <trkpt lat="44.95129" lon="3.9702">
        <ele>958.57</ele>
        <time>2022-08-01T09:17:09Z</time>
      </trkpt>
      <trkpt lat="44.95113" lon="3.97024">
        <ele>966.74</ele>
        <time>2022-08-01T09:17:22Z</time>
      </trkpt>
      <trkpt lat="44.95111" lon="3.97025">
        <ele>967.7</ele>
        <time>2022-08-01T09:17:24Z</time>
      </trkpt>
      <trkpt lat="44.95106" lon="3.97027">
        <ele>969.63</ele>
        <time>2022-08-01T09:17:28Z</time>
      </trkpt>
      <trkpt lat="44.95089" lon="3.97035">
        <ele>974.43</ele>
        <time>2022-08-01T09:17:43Z</time>
      </trkpt>
      <trkpt lat="44.95086" lon="3.97035">
        <ele>975.88</ele>
        <time>2022-08-01T09:17:46Z</time>
      </trkpt>
      <trkpt lat="44.95085" lon="3.97035">
        <ele>976.36</ele>
        <time>2022-08-01T09:17:47Z</time>
      </trkpt>
      <trkpt lat="44.95084" lon="3.97035">
        <ele>976.84</ele>
        <time>2022-08-01T09:17:48Z</time>
      </trkpt>
      <trkpt lat="44.9507" lon="3.97035">
        <ele>978.28</ele>
        <time>2022-08-01T09:18:00Z</time>
      </trkpt>
      <trkpt lat="44.95055" lon="3.97036">
        <ele>976.84</ele>
        <time>2022-08-01T09:18:13Z</time>
      </trkpt>
      <trkpt lat="44.95036" lon="3.97037">
        <ele>976.36</ele>
        <time>2022-08-01T09:18:28Z</time>
      </trkpt>
      <trkpt lat="44.95015" lon="3.97036">
        <ele>975.88</ele>
        <time>2022-08-01T09:18:44Z</time>
      </trkpt>
      <trkpt lat="44.94996" lon="3.97033">
        <ele>976.84</ele>
        <time>2022-08-01T09:19:00Z</time>
      </trkpt>
      <trkpt lat="44.94995" lon="3.97033">
        <ele>976.84</ele>
        <time>2022-08-01T09:19:01Z</time>
      </trkpt>
      <trkpt lat="44.9498" lon="3.97031">
        <ele>975.88</ele>
        <time>2022-08-01T09:19:13Z</time>
      </trkpt>
      <trkpt lat="44.94959" lon="3.97029">
        <ele>977.32</ele>
        <time>2022-08-01T09:19:29Z</time>
      </trkpt>
      <trkpt lat="44.94941" lon="3.97028">
        <ele>977.32</ele>
        <time>2022-08-01T09:19:43Z</time>
      </trkpt>
      <trkpt lat="44.94937" lon="3.97027">
        <ele>977.32</ele>
        <time>2022-08-01T09:19:46Z</time>
      </trkpt>
      <trkpt lat="44.94936" lon="3.97026">
        <ele>977.32</ele>
        <time>2022-08-01T09:19:47Z</time>
      </trkpt>
      <trkpt lat="44.94935" lon="3.97025">
        <ele>977.32</ele>
        <time>2022-08-01T09:19:48Z</time>
      </trkpt>
      <trkpt lat="44.94934" lon="3.97024">
        <ele>977.8</ele>
        <time>2022-08-01T09:19:49Z</time>
      </trkpt>
      <trkpt lat="44.94933" lon="3.97024">
        <ele>977.8</ele>
        <time>2022-08-01T09:19:50Z</time>
      </trkpt>
      <trkpt lat="44.94914" lon="3.97016">
        <ele>977.8</ele>
        <time>2022-08-01T09:20:05Z</time>
      </trkpt>
      <trkpt lat="44.94894" lon="3.97009">
        <ele>976.84</ele>
        <time>2022-08-01T09:20:20Z</time>
      </trkpt>
      <trkpt lat="44.94872" lon="3.97003">
        <ele>975.88</ele>
        <time>2022-08-01T09:20:36Z</time>
      </trkpt>
      <trkpt lat="44.94851" lon="3.97011">
        <ele>974.43</ele>
        <time>2022-08-01T09:20:52Z</time>
      </trkpt>
      <trkpt lat="44.9483" lon="3.9702">
        <ele>974.43</ele>
        <time>2022-08-01T09:21:07Z</time>
      </trkpt>
      <trkpt lat="44.94812" lon="3.97038">
        <ele>975.39</ele>
        <time>2022-08-01T09:21:23Z</time>
      </trkpt>
      <trkpt lat="44.94793" lon="3.97059">
        <ele>975.88</ele>
        <time>2022-08-01T09:21:40Z</time>
      </trkpt>
      <trkpt lat="44.94775" lon="3.97078">
        <ele>976.84</ele>
        <time>2022-08-01T09:21:56Z</time>
      </trkpt>
      <trkpt lat="44.94781" lon="3.97103">
        <ele>978.28</ele>
        <time>2022-08-01T09:22:09Z</time>
      </trkpt>
      <trkpt lat="44.94777" lon="3.97133">
        <ele>979.24</ele>
        <time>2022-08-01T09:22:26Z</time>
      </trkpt>
      <trkpt lat="44.94767" lon="3.97148">
        <ele>980.2</ele>
        <time>2022-08-01T09:22:38Z</time>
      </trkpt>
      <trkpt lat="44.94766" lon="3.97149">
        <ele>980.2</ele>
        <time>2022-08-01T09:22:39Z</time>
      </trkpt>
      <trkpt lat="44.94748" lon="3.97159">
        <ele>979.72</ele>
        <time>2022-08-01T09:22:54Z</time>
      </trkpt>
      <trkpt lat="44.94743" lon="3.97161">
        <ele>979.72</ele>
        <time>2022-08-01T09:22:58Z</time>
      </trkpt>
      <trkpt lat="44.9473" lon="3.97165">
        <ele>976.84</ele>
        <time>2022-08-01T09:23:09Z</time>
      </trkpt>
      <trkpt lat="44.94726" lon="3.97163">
        <ele>975.88</ele>
        <time>2022-08-01T09:23:12Z</time>
      </trkpt>
      <trkpt lat="44.94725" lon="3.97162">
        <ele>975.39</ele>
        <time>2022-08-01T09:23:13Z</time>
      </trkpt>
      <trkpt lat="44.94723" lon="3.97162">
        <ele>975.39</ele>
        <time>2022-08-01T09:23:14Z</time>
      </trkpt>
      <trkpt lat="44.94722" lon="3.97163">
        <ele>975.39</ele>
        <time>2022-08-01T09:23:15Z</time>
      </trkpt>
      <trkpt lat="44.9472" lon="3.97163">
        <ele>974.91</ele>
        <time>2022-08-01T09:23:16Z</time>
      </trkpt>
      <trkpt lat="44.94701" lon="3.9717">
        <ele>978.76</ele>
        <time>2022-08-01T09:23:29Z</time>
      </trkpt>
      <trkpt lat="44.94697" lon="3.97173">
        <ele>980.2</ele>
        <time>2022-08-01T09:23:32Z</time>
      </trkpt>
      <trkpt lat="44.9468" lon="3.97176">
        <ele>981.16</ele>
        <time>2022-08-01T09:23:46Z</time>
      </trkpt>
      <trkpt lat="44.94662" lon="3.97179">
        <ele>983.09</ele>
        <time>2022-08-01T09:23:59Z</time>
      </trkpt>
      <trkpt lat="44.94644" lon="3.97191">
        <ele>985.49</ele>
        <time>2022-08-01T09:24:13Z</time>
      </trkpt>
      <trkpt lat="44.94623" lon="3.97212">
        <ele>985.01</ele>
        <time>2022-08-01T09:24:31Z</time>
      </trkpt>
      <trkpt lat="44.94608" lon="3.97232">
        <ele>985.97</ele>
        <time>2022-08-01T09:24:46Z</time>
      </trkpt>
      <trkpt lat="44.94597" lon="3.97266">
        <ele>985.97</ele>
        <time>2022-08-01T09:25:04Z</time>
      </trkpt>
      <trkpt lat="44.94591" lon="3.97295">
        <ele>985.97</ele>
        <time>2022-08-01T09:25:20Z</time>
      </trkpt>
      <trkpt lat="44.94584" lon="3.97325">
        <ele>987.89</ele>
        <time>2022-08-01T09:25:36Z</time>
      </trkpt>
      <trkpt lat="44.94584" lon="3.97354">
        <ele>987.89</ele>
        <time>2022-08-01T09:25:51Z</time>
      </trkpt>
      <trkpt lat="44.9459" lon="3.97384">
        <ele>988.37</ele>
        <time>2022-08-01T09:26:07Z</time>
      </trkpt>
      <trkpt lat="44.94591" lon="3.97412">
        <ele>989.81</ele>
        <time>2022-08-01T09:26:22Z</time>
      </trkpt>
      <trkpt lat="44.94593" lon="3.97442">
        <ele>991.26</ele>
        <time>2022-08-01T09:26:37Z</time>
      </trkpt>
      <trkpt lat="44.946" lon="3.97477">
        <ele>992.7</ele>
        <time>2022-08-01T09:26:54Z</time>
      </trkpt>
      <trkpt lat="44.94606" lon="3.97506">
        <ele>993.18</ele>
        <time>2022-08-01T09:27:09Z</time>
      </trkpt>
      <trkpt lat="44.9461" lon="3.97536">
        <ele>994.62</ele>
        <time>2022-08-01T09:27:24Z</time>
      </trkpt>
      <trkpt lat="44.9461" lon="3.97568">
        <ele>995.1</ele>
        <time>2022-08-01T09:27:40Z</time>
      </trkpt>
      <trkpt lat="44.94612" lon="3.97601">
        <ele>994.14</ele>
        <time>2022-08-01T09:27:56Z</time>
      </trkpt>
      <trkpt lat="44.94617" lon="3.97628">
        <ele>993.18</ele>
        <time>2022-08-01T09:28:11Z</time>
      </trkpt>
      <trkpt lat="44.9462" lon="3.97661">
        <ele>993.18</ele>
        <time>2022-08-01T09:28:28Z</time>
      </trkpt>
      <trkpt lat="44.94625" lon="3.97694">
        <ele>994.14</ele>
        <time>2022-08-01T09:28:45Z</time>
      </trkpt>
      <trkpt lat="44.94627" lon="3.97721">
        <ele>993.66</ele>
        <time>2022-08-01T09:29:02Z</time>
      </trkpt>
      <trkpt lat="44.94628" lon="3.97726">
        <ele>994.14</ele>
        <time>2022-08-01T09:29:19Z</time>
      </trkpt>
      <trkpt lat="44.94632" lon="3.97736">
        <ele>993.66</ele>
        <time>2022-08-01T09:29:34Z</time>
      </trkpt>
      <trkpt lat="44.94632" lon="3.97743">
        <ele>993.66</ele>
        <time>2022-08-01T09:29:39Z</time>
      </trkpt>
      <trkpt lat="44.94631" lon="3.97746">
        <ele>993.66</ele>
        <time>2022-08-01T09:29:42Z</time>
      </trkpt>
      <trkpt lat="44.9463" lon="3.97747">
        <ele>993.66</ele>
        <time>2022-08-01T09:29:43Z</time>
      </trkpt>
      <trkpt lat="44.94629" lon="3.97775">
        <ele>992.22</ele>
        <time>2022-08-01T09:29:59Z</time>
      </trkpt>
      <trkpt lat="44.94629" lon="3.97797">
        <ele>994.14</ele>
        <time>2022-08-01T09:30:13Z</time>
      </trkpt>
      <trkpt lat="44.94627" lon="3.97824">
        <ele>993.66</ele>
        <time>2022-08-01T09:30:29Z</time>
      </trkpt>
      <trkpt lat="44.94625" lon="3.97849">
        <ele>994.14</ele>
        <time>2022-08-01T09:30:44Z</time>
      </trkpt>
      <trkpt lat="44.94624" lon="3.97862">
        <ele>995.1</ele>
        <time>2022-08-01T09:30:58Z</time>
      </trkpt>
      <trkpt lat="44.94619" lon="3.97892">
        <ele>996.54</ele>
        <time>2022-08-01T09:31:15Z</time>
      </trkpt>
      <trkpt lat="44.94613" lon="3.97923">
        <ele>998.47</ele>
        <time>2022-08-01T09:31:31Z</time>
      </trkpt>
      <trkpt lat="44.94616" lon="3.97956">
        <ele>998.47</ele>
        <time>2022-08-01T09:31:47Z</time>
      </trkpt>
      <trkpt lat="44.94613" lon="3.97985">
        <ele>999.43</ele>
        <time>2022-08-01T09:32:03Z</time>
      </trkpt>
      <trkpt lat="44.94612" lon="3.98017">
        <ele>1000.39</ele>
        <time>2022-08-01T09:32:21Z</time>
      </trkpt>
      <trkpt lat="44.94612" lon="3.98047">
        <ele>1000.39</ele>
        <time>2022-08-01T09:32:37Z</time>
      </trkpt>
      <trkpt lat="44.9461" lon="3.98071">
        <ele>999.91</ele>
        <time>2022-08-01T09:32:52Z</time>
      </trkpt>
      <trkpt lat="44.94609" lon="3.98076">
        <ele>999.43</ele>
        <time>2022-08-01T09:32:55Z</time>
      </trkpt>
      <trkpt lat="44.94608" lon="3.9808">
        <ele>999.91</ele>
        <time>2022-08-01T09:32:58Z</time>
      </trkpt>
      <trkpt lat="44.94607" lon="3.98081">
        <ele>999.91</ele>
        <time>2022-08-01T09:32:59Z</time>
      </trkpt>
      <trkpt lat="44.94607" lon="3.98083">
        <ele>999.91</ele>
        <time>2022-08-01T09:33:00Z</time>
      </trkpt>
      <trkpt lat="44.94606" lon="3.98084">
        <ele>1000.39</ele>
        <time>2022-08-01T09:33:01Z</time>
      </trkpt>
      <trkpt lat="44.94606" lon="3.98086">
        <ele>1000.39</ele>
        <time>2022-08-01T09:33:02Z</time>
      </trkpt>
      <trkpt lat="44.94606" lon="3.98088">
        <ele>1000.39</ele>
        <time>2022-08-01T09:33:03Z</time>
      </trkpt>
      <trkpt lat="44.94606" lon="3.9809">
        <ele>1000.39</ele>
        <time>2022-08-01T09:33:04Z</time>
      </trkpt>
      <trkpt lat="44.94606" lon="3.98121">
        <ele>1000.87</ele>
        <time>2022-08-01T09:33:20Z</time>
      </trkpt>
      <trkpt lat="44.94609" lon="3.98147">
        <ele>1000.87</ele>
        <time>2022-08-01T09:33:34Z</time>
      </trkpt>
      <trkpt lat="44.94617" lon="3.98166">
        <ele>1000.87</ele>
        <time>2022-08-01T09:33:47Z</time>
      </trkpt>
      <trkpt lat="44.94618" lon="3.98167">
        <ele>1000.87</ele>
        <time>2022-08-01T09:33:48Z</time>
      </trkpt>
      <trkpt lat="44.94619" lon="3.98168">
        <ele>1000.39</ele>
        <time>2022-08-01T09:33:49Z</time>
      </trkpt>
      <trkpt lat="44.94619" lon="3.9817">
        <ele>1000.39</ele>
        <time>2022-08-01T09:33:50Z</time>
      </trkpt>
      <trkpt lat="44.94619" lon="3.98172">
        <ele>999.91</ele>
        <time>2022-08-01T09:33:51Z</time>
      </trkpt>
      <trkpt lat="44.94619" lon="3.98173">
        <ele>999.91</ele>
        <time>2022-08-01T09:33:52Z</time>
      </trkpt>
      <trkpt lat="44.9462" lon="3.98175">
        <ele>999.43</ele>
        <time>2022-08-01T09:33:53Z</time>
      </trkpt>
      <trkpt lat="44.9462" lon="3.98177">
        <ele>999.43</ele>
        <time>2022-08-01T09:33:54Z</time>
      </trkpt>
      <trkpt lat="44.94621" lon="3.98178">
        <ele>999.91</ele>
        <time>2022-08-01T09:33:55Z</time>
      </trkpt>
      <trkpt lat="44.94622" lon="3.98189">
        <ele>999.43</ele>
        <time>2022-08-01T09:34:02Z</time>
      </trkpt>
      <trkpt lat="44.94622" lon="3.98192">
        <ele>999.43</ele>
        <time>2022-08-01T09:34:04Z</time>
      </trkpt>
      <trkpt lat="44.94622" lon="3.98194">
        <ele>999.43</ele>
        <time>2022-08-01T09:34:05Z</time>
      </trkpt>
      <trkpt lat="44.94623" lon="3.98195">
        <ele>998.95</ele>
        <time>2022-08-01T09:34:06Z</time>
      </trkpt>
      <trkpt lat="44.94628" lon="3.98212">
        <ele>995.1</ele>
        <time>2022-08-01T09:34:19Z</time>
      </trkpt>
      <trkpt lat="44.94636" lon="3.98233">
        <ele>991.26</ele>
        <time>2022-08-01T09:34:34Z</time>
      </trkpt>
      <trkpt lat="44.94642" lon="3.98254">
        <ele>988.85</ele>
        <time>2022-08-01T09:34:49Z</time>
      </trkpt>
      <trkpt lat="44.94647" lon="3.98263">
        <ele>985.97</ele>
        <time>2022-08-01T09:35:01Z</time>
      </trkpt>
      <trkpt lat="44.9465" lon="3.98272">
        <ele>984.53</ele>
        <time>2022-08-01T09:35:11Z</time>
      </trkpt>
      <trkpt lat="44.9466" lon="3.98278">
        <ele>982.12</ele>
        <time>2022-08-01T09:35:26Z</time>
      </trkpt>
      <trkpt lat="44.94663" lon="3.98284">
        <ele>980.68</ele>
        <time>2022-08-01T09:35:32Z</time>
      </trkpt>
      <trkpt lat="44.94668" lon="3.98311">
        <ele>976.84</ele>
        <time>2022-08-01T09:35:48Z</time>
      </trkpt>
      <trkpt lat="44.94668" lon="3.98312">
        <ele>976.84</ele>
        <time>2022-08-01T09:35:49Z</time>
      </trkpt>
      <trkpt lat="44.94668" lon="3.98336">
        <ele>973.95</ele>
        <time>2022-08-01T09:36:06Z</time>
      </trkpt>
      <trkpt lat="44.94669" lon="3.98361">
        <ele>969.15</ele>
        <time>2022-08-01T09:36:21Z</time>
      </trkpt>
      <trkpt lat="44.94668" lon="3.98384">
        <ele>962.9</ele>
        <time>2022-08-01T09:36:36Z</time>
      </trkpt>
      <trkpt lat="44.94667" lon="3.98397">
        <ele>960.01</ele>
        <time>2022-08-01T09:36:44Z</time>
      </trkpt>
      <trkpt lat="44.94666" lon="3.9841">
        <ele>956.65</ele>
        <time>2022-08-01T09:36:53Z</time>
      </trkpt>
      <trkpt lat="44.94666" lon="3.98412">
        <ele>956.65</ele>
        <time>2022-08-01T09:36:54Z</time>
      </trkpt>
      <trkpt lat="44.9467" lon="3.98442">
        <ele>954.25</ele>
        <time>2022-08-01T09:37:11Z</time>
      </trkpt>
      <trkpt lat="44.94672" lon="3.98446">
        <ele>953.77</ele>
        <time>2022-08-01T09:37:14Z</time>
      </trkpt>
      <trkpt lat="44.94679" lon="3.98456">
        <ele>951.84</ele>
        <time>2022-08-01T09:37:23Z</time>
      </trkpt>
      <trkpt lat="44.94689" lon="3.98471">
        <ele>948.96</ele>
        <time>2022-08-01T09:37:36Z</time>
      </trkpt>
      <trkpt lat="44.94688" lon="3.98473">
        <ele>948.96</ele>
        <time>2022-08-01T09:37:37Z</time>
      </trkpt>
      <trkpt lat="44.94688" lon="3.98474">
        <ele>948.96</ele>
        <time>2022-08-01T09:37:38Z</time>
      </trkpt>
      <trkpt lat="44.94687" lon="3.98475">
        <ele>948.96</ele>
        <time>2022-08-01T09:37:39Z</time>
      </trkpt>
      <trkpt lat="44.94686" lon="3.98477">
        <ele>948.96</ele>
        <time>2022-08-01T09:37:40Z</time>
      </trkpt>
      <trkpt lat="44.94686" lon="3.98479">
        <ele>948.96</ele>
        <time>2022-08-01T09:37:41Z</time>
      </trkpt>
      <trkpt lat="44.94685" lon="3.98481">
        <ele>948.96</ele>
        <time>2022-08-01T09:37:42Z</time>
      </trkpt>
      <trkpt lat="44.94685" lon="3.98482">
        <ele>948.96</ele>
        <time>2022-08-01T09:37:43Z</time>
      </trkpt>
      <trkpt lat="44.94683" lon="3.98485">
        <ele>949.44</ele>
        <time>2022-08-01T09:37:45Z</time>
      </trkpt>
      <trkpt lat="44.94683" lon="3.98487">
        <ele>949.44</ele>
        <time>2022-08-01T09:37:46Z</time>
      </trkpt>
      <trkpt lat="44.94682" lon="3.98488">
        <ele>949.44</ele>
        <time>2022-08-01T09:37:47Z</time>
      </trkpt>
      <trkpt lat="44.94681" lon="3.9849">
        <ele>949.44</ele>
        <time>2022-08-01T09:37:48Z</time>
      </trkpt>
      <trkpt lat="44.94681" lon="3.98491">
        <ele>949.44</ele>
        <time>2022-08-01T09:37:49Z</time>
      </trkpt>
      <trkpt lat="44.9468" lon="3.98493">
        <ele>948.96</ele>
        <time>2022-08-01T09:37:50Z</time>
      </trkpt>
      <trkpt lat="44.9468" lon="3.98494">
        <ele>948.96</ele>
        <time>2022-08-01T09:37:51Z</time>
      </trkpt>
      <trkpt lat="44.94679" lon="3.98496">
        <ele>948.96</ele>
        <time>2022-08-01T09:37:52Z</time>
      </trkpt>
      <trkpt lat="44.94679" lon="3.98497">
        <ele>948.48</ele>
        <time>2022-08-01T09:37:53Z</time>
      </trkpt>
      <trkpt lat="44.94678" lon="3.98499">
        <ele>948.48</ele>
        <time>2022-08-01T09:37:54Z</time>
      </trkpt>
      <trkpt lat="44.94678" lon="3.98501">
        <ele>948</ele>
        <time>2022-08-01T09:37:55Z</time>
      </trkpt>
      <trkpt lat="44.94677" lon="3.98502">
        <ele>948</ele>
        <time>2022-08-01T09:37:56Z</time>
      </trkpt>
      <trkpt lat="44.94673" lon="3.98524">
        <ele>943.19</ele>
        <time>2022-08-01T09:38:09Z</time>
      </trkpt>
      <trkpt lat="44.94668" lon="3.98551">
        <ele>941.75</ele>
        <time>2022-08-01T09:38:24Z</time>
      </trkpt>
      <trkpt lat="44.94666" lon="3.98584">
        <ele>940.79</ele>
        <time>2022-08-01T09:38:42Z</time>
      </trkpt>
      <trkpt lat="44.94669" lon="3.98619">
        <ele>938.86</ele>
        <time>2022-08-01T09:39:00Z</time>
      </trkpt>
      <trkpt lat="44.94673" lon="3.9865">
        <ele>937.9</ele>
        <time>2022-08-01T09:39:17Z</time>
      </trkpt>
      <trkpt lat="44.94679" lon="3.98681">
        <ele>937.42</ele>
        <time>2022-08-01T09:39:34Z</time>
      </trkpt>
      <trkpt lat="44.94686" lon="3.98714">
        <ele>935.98</ele>
        <time>2022-08-01T09:39:53Z</time>
      </trkpt>
      <trkpt lat="44.94688" lon="3.98742">
        <ele>935.98</ele>
        <time>2022-08-01T09:40:09Z</time>
      </trkpt>
      <trkpt lat="44.94686" lon="3.98775">
        <ele>935.5</ele>
        <time>2022-08-01T09:40:28Z</time>
      </trkpt>
      <trkpt lat="44.94679" lon="3.98807">
        <ele>936.46</ele>
        <time>2022-08-01T09:40:45Z</time>
      </trkpt>
      <trkpt lat="44.94674" lon="3.9884">
        <ele>935.02</ele>
        <time>2022-08-01T09:41:03Z</time>
      </trkpt>
      <trkpt lat="44.94665" lon="3.98869">
        <ele>937.42</ele>
        <time>2022-08-01T09:41:20Z</time>
      </trkpt>
      <trkpt lat="44.94666" lon="3.98891">
        <ele>937.9</ele>
        <time>2022-08-01T09:41:32Z</time>
      </trkpt>
      <trkpt lat="44.94664" lon="3.98916">
        <ele>937.42</ele>
        <time>2022-08-01T09:41:47Z</time>
      </trkpt>
      <trkpt lat="44.94662" lon="3.98919">
        <ele>937.42</ele>
        <time>2022-08-01T09:41:49Z</time>
      </trkpt>
      <trkpt lat="44.94661" lon="3.98921">
        <ele>937.42</ele>
        <time>2022-08-01T09:41:50Z</time>
      </trkpt>
      <trkpt lat="44.94661" lon="3.98922">
        <ele>937.42</ele>
        <time>2022-08-01T09:41:51Z</time>
      </trkpt>
      <trkpt lat="44.94645" lon="3.98937">
        <ele>938.38</ele>
        <time>2022-08-01T09:42:08Z</time>
      </trkpt>
      <trkpt lat="44.94627" lon="3.98951">
        <ele>937.42</ele>
        <time>2022-08-01T09:42:24Z</time>
      </trkpt>
      <trkpt lat="44.94609" lon="3.98965">
        <ele>937.42</ele>
        <time>2022-08-01T09:42:41Z</time>
      </trkpt>
      <trkpt lat="44.94593" lon="3.98976">
        <ele>937.9</ele>
        <time>2022-08-01T09:42:55Z</time>
      </trkpt>
      <trkpt lat="44.94573" lon="3.98991">
        <ele>937.42</ele>
        <time>2022-08-01T09:43:12Z</time>
      </trkpt>
      <trkpt lat="44.94555" lon="3.99004">
        <ele>937.42</ele>
        <time>2022-08-01T09:43:28Z</time>
      </trkpt>
      <trkpt lat="44.94541" lon="3.99013">
        <ele>937.42</ele>
        <time>2022-08-01T09:43:43Z</time>
      </trkpt>
      <trkpt lat="44.94528" lon="3.99022">
        <ele>939.83</ele>
        <time>2022-08-01T09:43:56Z</time>
      </trkpt>
      <trkpt lat="44.94521" lon="3.99026">
        <ele>940.31</ele>
        <time>2022-08-01T09:44:03Z</time>
      </trkpt>
      <trkpt lat="44.94519" lon="3.99027">
        <ele>940.31</ele>
        <time>2022-08-01T09:44:04Z</time>
      </trkpt>
      <trkpt lat="44.94517" lon="3.99028">
        <ele>940.31</ele>
        <time>2022-08-01T09:44:05Z</time>
      </trkpt>
      <trkpt lat="44.94516" lon="3.99029">
        <ele>940.31</ele>
        <time>2022-08-01T09:44:06Z</time>
      </trkpt>
      <trkpt lat="44.94514" lon="3.99029">
        <ele>940.31</ele>
        <time>2022-08-01T09:44:07Z</time>
      </trkpt>
      <trkpt lat="44.94507" lon="3.99035">
        <ele>941.75</ele>
        <time>2022-08-01T09:44:13Z</time>
      </trkpt>
      <trkpt lat="44.94505" lon="3.99035">
        <ele>941.75</ele>
        <time>2022-08-01T09:44:14Z</time>
      </trkpt>
      <trkpt lat="44.94504" lon="3.99037">
        <ele>941.75</ele>
        <time>2022-08-01T09:44:15Z</time>
      </trkpt>
      <trkpt lat="44.94503" lon="3.99038">
        <ele>941.75</ele>
        <time>2022-08-01T09:44:16Z</time>
      </trkpt>
      <trkpt lat="44.94502" lon="3.99039">
        <ele>942.23</ele>
        <time>2022-08-01T09:44:17Z</time>
      </trkpt>
      <trkpt lat="44.94483" lon="3.99051">
        <ele>941.75</ele>
        <time>2022-08-01T09:44:33Z</time>
      </trkpt>
      <trkpt lat="44.94463" lon="3.99061">
        <ele>940.79</ele>
        <time>2022-08-01T09:44:49Z</time>
      </trkpt>
      <trkpt lat="44.94446" lon="3.99073">
        <ele>941.27</ele>
        <time>2022-08-01T09:45:04Z</time>
      </trkpt>
      <trkpt lat="44.94424" lon="3.99086">
        <ele>941.75</ele>
        <time>2022-08-01T09:45:20Z</time>
      </trkpt>
      <trkpt lat="44.94407" lon="3.99098">
        <ele>941.75</ele>
        <time>2022-08-01T09:45:34Z</time>
      </trkpt>
      <trkpt lat="44.94389" lon="3.99114">
        <ele>941.27</ele>
        <time>2022-08-01T09:45:49Z</time>
      </trkpt>
      <trkpt lat="44.94371" lon="3.99132">
        <ele>942.23</ele>
        <time>2022-08-01T09:46:05Z</time>
      </trkpt>
      <trkpt lat="44.94349" lon="3.99157">
        <ele>939.83</ele>
        <time>2022-08-01T09:46:24Z</time>
      </trkpt>
      <trkpt lat="44.94333" lon="3.99181">
        <ele>941.75</ele>
        <time>2022-08-01T09:46:40Z</time>
      </trkpt>
      <trkpt lat="44.94317" lon="3.99203">
        <ele>941.75</ele>
        <time>2022-08-01T09:46:56Z</time>
      </trkpt>
      <trkpt lat="44.94308" lon="3.99216">
        <ele>941.27</ele>
        <time>2022-08-01T09:47:06Z</time>
      </trkpt>
      <trkpt lat="44.94288" lon="3.99228">
        <ele>939.35</ele>
        <time>2022-08-01T09:47:22Z</time>
      </trkpt>
      <trkpt lat="44.94275" lon="3.99236">
        <ele>938.38</ele>
        <time>2022-08-01T09:47:34Z</time>
      </trkpt>
      <trkpt lat="44.94256" lon="3.99247">
        <ele>937.42</ele>
        <time>2022-08-01T09:47:49Z</time>
      </trkpt>
      <trkpt lat="44.94242" lon="3.99256">
        <ele>936.94</ele>
        <time>2022-08-01T09:48:01Z</time>
      </trkpt>
      <trkpt lat="44.94219" lon="3.9927">
        <ele>937.9</ele>
        <time>2022-08-01T09:48:18Z</time>
      </trkpt>
      <trkpt lat="44.94199" lon="3.99284">
        <ele>939.83</ele>
        <time>2022-08-01T09:48:35Z</time>
      </trkpt>
      <trkpt lat="44.9418" lon="3.99297">
        <ele>937.9</ele>
        <time>2022-08-01T09:48:50Z</time>
      </trkpt>
      <trkpt lat="44.94163" lon="3.99308">
        <ele>936.94</ele>
        <time>2022-08-01T09:49:05Z</time>
      </trkpt>
      <trkpt lat="44.94156" lon="3.99312">
        <ele>936.94</ele>
        <time>2022-08-01T09:49:12Z</time>
      </trkpt>
      <trkpt lat="44.94155" lon="3.99312">
        <ele>936.94</ele>
        <time>2022-08-01T09:49:13Z</time>
      </trkpt>
      <trkpt lat="44.94154" lon="3.99313">
        <ele>936.94</ele>
        <time>2022-08-01T09:49:14Z</time>
      </trkpt>
      <trkpt lat="44.94153" lon="3.99313">
        <ele>937.42</ele>
        <time>2022-08-01T09:49:15Z</time>
      </trkpt>
      <trkpt lat="44.94144" lon="3.99318">
        <ele>939.83</ele>
        <time>2022-08-01T09:49:24Z</time>
      </trkpt>
      <trkpt lat="44.94142" lon="3.99318">
        <ele>939.83</ele>
        <time>2022-08-01T09:49:25Z</time>
      </trkpt>
      <trkpt lat="44.94126" lon="3.99323">
        <ele>941.27</ele>
        <time>2022-08-01T09:49:36Z</time>
      </trkpt>
      <trkpt lat="44.94124" lon="3.99323">
        <ele>940.79</ele>
        <time>2022-08-01T09:49:38Z</time>
      </trkpt>
      <trkpt lat="44.94122" lon="3.99323">
        <ele>940.79</ele>
        <time>2022-08-01T09:49:39Z</time>
      </trkpt>
      <trkpt lat="44.9412" lon="3.99323">
        <ele>940.31</ele>
        <time>2022-08-01T09:49:40Z</time>
      </trkpt>
      <trkpt lat="44.94119" lon="3.99324">
        <ele>940.31</ele>
        <time>2022-08-01T09:49:41Z</time>
      </trkpt>
      <trkpt lat="44.94117" lon="3.99324">
        <ele>940.31</ele>
        <time>2022-08-01T09:49:42Z</time>
      </trkpt>
      <trkpt lat="44.941" lon="3.99326">
        <ele>939.83</ele>
        <time>2022-08-01T09:49:55Z</time>
      </trkpt>
      <trkpt lat="44.94099" lon="3.99327">
        <ele>940.31</ele>
        <time>2022-08-01T09:49:56Z</time>
      </trkpt>
      <trkpt lat="44.94081" lon="3.99335">
        <ele>946.56</ele>
        <time>2022-08-01T09:50:10Z</time>
      </trkpt>
      <trkpt lat="44.94062" lon="3.99349">
        <ele>951.36</ele>
        <time>2022-08-01T09:50:24Z</time>
      </trkpt>
      <trkpt lat="44.94062" lon="3.99351">
        <ele>951.84</ele>
        <time>2022-08-01T09:50:25Z</time>
      </trkpt>
      <trkpt lat="44.94061" lon="3.99352">
        <ele>951.84</ele>
        <time>2022-08-01T09:50:26Z</time>
      </trkpt>
      <trkpt lat="44.94061" lon="3.99357">
        <ele>950.88</ele>
        <time>2022-08-01T09:50:29Z</time>
      </trkpt>
      <trkpt lat="44.9406" lon="3.99358">
        <ele>950.4</ele>
        <time>2022-08-01T09:50:30Z</time>
      </trkpt>
      <trkpt lat="44.94059" lon="3.99359">
        <ele>949.92</ele>
        <time>2022-08-01T09:50:31Z</time>
      </trkpt>
      <trkpt lat="44.94045" lon="3.9937">
        <ele>949.44</ele>
        <time>2022-08-01T09:50:44Z</time>
      </trkpt>
      <trkpt lat="44.94042" lon="3.99372">
        <ele>949.44</ele>
        <time>2022-08-01T09:50:47Z</time>
      </trkpt>
      <trkpt lat="44.94041" lon="3.99373">
        <ele>949.44</ele>
        <time>2022-08-01T09:50:48Z</time>
      </trkpt>
      <trkpt lat="44.94032" lon="3.99382">
        <ele>949.44</ele>
        <time>2022-08-01T09:51:02Z</time>
      </trkpt>
      <trkpt lat="44.94007" lon="3.99394">
        <ele>949.92</ele>
        <time>2022-08-01T09:51:13Z</time>
      </trkpt>
      <trkpt lat="44.94004" lon="3.99395">
        <ele>949.92</ele>
        <time>2022-08-01T09:51:14Z</time>
      </trkpt>
      <trkpt lat="44.93993" lon="3.99399">
        <ele>945.59</ele>
        <time>2022-08-01T09:51:28Z</time>
      </trkpt>
      <trkpt lat="44.9399" lon="3.99397">
        <ele>941.27</ele>
        <time>2022-08-01T09:51:39Z</time>
      </trkpt>
      <trkpt lat="44.93986" lon="3.99397">
        <ele>940.31</ele>
        <time>2022-08-01T09:51:42Z</time>
      </trkpt>
      <trkpt lat="44.93983" lon="3.99399">
        <ele>940.31</ele>
        <time>2022-08-01T09:51:43Z</time>
      </trkpt>
      <trkpt lat="44.9398" lon="3.994">
        <ele>939.83</ele>
        <time>2022-08-01T09:51:44Z</time>
      </trkpt>
      <trkpt lat="44.93976" lon="3.99402">
        <ele>939.35</ele>
        <time>2022-08-01T09:51:46Z</time>
      </trkpt>
      <trkpt lat="44.93969" lon="3.99406">
        <ele>938.38</ele>
        <time>2022-08-01T09:51:51Z</time>
      </trkpt>
      <trkpt lat="44.93962" lon="3.9941">
        <ele>937.42</ele>
        <time>2022-08-01T09:51:56Z</time>
      </trkpt>
      <trkpt lat="44.9395" lon="3.99416">
        <ele>936.94</ele>
        <time>2022-08-01T09:52:08Z</time>
      </trkpt>
      <trkpt lat="44.9394" lon="3.99428">
        <ele>935.98</ele>
        <time>2022-08-01T09:52:22Z</time>
      </trkpt>
      <trkpt lat="44.93936" lon="3.99432">
        <ele>936.46</ele>
        <time>2022-08-01T09:52:38Z</time>
      </trkpt>
      <trkpt lat="44.93934" lon="3.99434">
        <ele>935.5</ele>
        <time>2022-08-01T09:53:02Z</time>
      </trkpt>
      <trkpt lat="44.93932" lon="3.99437">
        <ele>935.98</ele>
        <time>2022-08-01T09:53:21Z</time>
      </trkpt>
      <trkpt lat="44.93929" lon="3.99436">
        <ele>936.46</ele>
        <time>2022-08-01T09:53:24Z</time>
      </trkpt>
      <trkpt lat="44.93921" lon="3.99439">
        <ele>936.94</ele>
        <time>2022-08-01T09:53:34Z</time>
      </trkpt>
      <trkpt lat="44.93918" lon="3.99439">
        <ele>936.46</ele>
        <time>2022-08-01T09:53:38Z</time>
      </trkpt>
      <trkpt lat="44.9392" lon="3.99437">
        <ele>935.5</ele>
        <time>2022-08-01T09:53:50Z</time>
      </trkpt>
      <trkpt lat="44.93929" lon="3.99435">
        <ele>936.94</ele>
        <time>2022-08-01T09:53:59Z</time>
      </trkpt>
      <trkpt lat="44.93937" lon="3.99427">
        <ele>939.83</ele>
        <time>2022-08-01T09:54:12Z</time>
      </trkpt>
      <trkpt lat="44.93946" lon="3.99421">
        <ele>942.71</ele>
        <time>2022-08-01T09:54:26Z</time>
      </trkpt>
      <trkpt lat="44.93942" lon="3.99408">
        <ele>945.11</ele>
        <time>2022-08-01T09:54:48Z</time>
      </trkpt>
      <trkpt lat="44.93942" lon="3.99405">
        <ele>945.11</ele>
        <time>2022-08-01T09:55:15Z</time>
      </trkpt>
      <trkpt lat="44.93935" lon="3.99402">
        <ele>945.59</ele>
        <time>2022-08-01T09:55:41Z</time>
      </trkpt>
      <trkpt lat="44.93951" lon="3.99417">
        <ele>940.31</ele>
        <time>2022-08-01T09:59:22Z</time>
      </trkpt>
      <trkpt lat="44.93938" lon="3.99408">
        <ele>950.88</ele>
        <time>2022-08-01T09:59:36Z</time>
      </trkpt>
      <trkpt lat="44.9393" lon="3.99416">
        <ele>948</ele>
        <time>2022-08-01T09:59:52Z</time>
      </trkpt>
      <trkpt lat="44.93929" lon="3.99422">
        <ele>944.15</ele>
        <time>2022-08-01T10:00:08Z</time>
      </trkpt>
      <trkpt lat="44.93925" lon="3.99426">
        <ele>941.75</ele>
        <time>2022-08-01T10:00:29Z</time>
      </trkpt>
      <trkpt lat="44.93927" lon="3.99431">
        <ele>940.31</ele>
        <time>2022-08-01T10:00:42Z</time>
      </trkpt>
      <trkpt lat="44.93929" lon="3.99433">
        <ele>941.27</ele>
        <time>2022-08-01T10:01:08Z</time>
      </trkpt>
      <trkpt lat="44.93927" lon="3.99433">
        <ele>937.9</ele>
        <time>2022-08-01T10:01:40Z</time>
      </trkpt>
      <trkpt lat="44.93927" lon="3.99432">
        <ele>934.06</ele>
        <time>2022-08-01T10:02:14Z</time>
      </trkpt>
      <trkpt lat="44.93928" lon="3.99431">
        <ele>931.65</ele>
        <time>2022-08-01T10:02:51Z</time>
      </trkpt>
      <trkpt lat="44.93927" lon="3.99432">
        <ele>931.65</ele>
        <time>2022-08-01T10:03:28Z</time>
      </trkpt>
      <trkpt lat="44.93928" lon="3.99435">
        <ele>941.27</ele>
        <time>2022-08-01T10:04:00Z</time>
      </trkpt>
      <trkpt lat="44.93927" lon="3.99436">
        <ele>940.79</ele>
        <time>2022-08-01T10:04:30Z</time>
      </trkpt>
      <trkpt lat="44.93925" lon="3.99435">
        <ele>940.31</ele>
        <time>2022-08-01T10:05:06Z</time>
      </trkpt>
      <trkpt lat="44.93927" lon="3.99432">
        <ele>936.94</ele>
        <time>2022-08-01T10:05:37Z</time>
      </trkpt>
      <trkpt lat="44.93928" lon="3.99433">
        <ele>939.35</ele>
        <time>2022-08-01T10:06:09Z</time>
      </trkpt>
      <trkpt lat="44.93929" lon="3.99433">
        <ele>936.46</ele>
        <time>2022-08-01T10:06:40Z</time>
      </trkpt>
      <trkpt lat="44.93931" lon="3.99431">
        <ele>935.02</ele>
        <time>2022-08-01T10:07:12Z</time>
      </trkpt>
      <trkpt lat="44.93929" lon="3.99432">
        <ele>932.14</ele>
        <time>2022-08-01T10:07:43Z</time>
      </trkpt>
      <trkpt lat="44.93926" lon="3.9943">
        <ele>932.14</ele>
        <time>2022-08-01T10:08:25Z</time>
      </trkpt>
      <trkpt lat="44.93925" lon="3.9943">
        <ele>931.65</ele>
        <time>2022-08-01T10:09:05Z</time>
      </trkpt>
      <trkpt lat="44.93929" lon="3.99433">
        <ele>930.21</ele>
        <time>2022-08-01T10:09:48Z</time>
      </trkpt>
      <trkpt lat="44.93929" lon="3.99434">
        <ele>930.21</ele>
        <time>2022-08-01T10:10:22Z</time>
      </trkpt>
      <trkpt lat="44.93927" lon="3.99433">
        <ele>929.25</ele>
        <time>2022-08-01T10:11:04Z</time>
      </trkpt>
      <trkpt lat="44.93925" lon="3.99437">
        <ele>932.14</ele>
        <time>2022-08-01T10:11:45Z</time>
      </trkpt>
      <trkpt lat="44.93926" lon="3.99433">
        <ele>928.29</ele>
        <time>2022-08-01T10:12:32Z</time>
      </trkpt>
      <trkpt lat="44.93928" lon="3.99432">
        <ele>933.58</ele>
        <time>2022-08-01T10:13:06Z</time>
      </trkpt>
      <trkpt lat="44.93929" lon="3.99431">
        <ele>936.46</ele>
        <time>2022-08-01T10:13:47Z</time>
      </trkpt>
      <trkpt lat="44.93926" lon="3.99433">
        <ele>936.46</ele>
        <time>2022-08-01T10:14:30Z</time>
      </trkpt>
      <trkpt lat="44.93924" lon="3.99432">
        <ele>937.9</ele>
        <time>2022-08-01T10:15:12Z</time>
      </trkpt>
      <trkpt lat="44.93923" lon="3.99432">
        <ele>940.31</ele>
        <time>2022-08-01T10:15:51Z</time>
      </trkpt>
      <trkpt lat="44.93922" lon="3.99433">
        <ele>938.86</ele>
        <time>2022-08-01T10:16:30Z</time>
      </trkpt>
      <trkpt lat="44.93927" lon="3.9943">
        <ele>939.35</ele>
        <time>2022-08-01T10:17:12Z</time>
      </trkpt>
      <trkpt lat="44.93929" lon="3.99432">
        <ele>938.38</ele>
        <time>2022-08-01T10:17:43Z</time>
      </trkpt>
      <trkpt lat="44.93923" lon="3.99433">
        <ele>946.56</ele>
        <time>2022-08-01T10:18:25Z</time>
      </trkpt>
      <trkpt lat="44.93925" lon="3.99433">
        <ele>945.59</ele>
        <time>2022-08-01T10:19:06Z</time>
      </trkpt>
      <trkpt lat="44.93931" lon="3.99438">
        <ele>940.79</ele>
        <time>2022-08-01T10:19:47Z</time>
      </trkpt>
      <trkpt lat="44.93928" lon="3.9943">
        <ele>933.58</ele>
        <time>2022-08-01T10:20:40Z</time>
      </trkpt>
      <trkpt lat="44.93928" lon="3.99437">
        <ele>934.06</ele>
        <time>2022-08-01T10:21:22Z</time>
      </trkpt>
      <trkpt lat="44.93927" lon="3.99433">
        <ele>937.9</ele>
        <time>2022-08-01T10:21:59Z</time>
      </trkpt>
      <trkpt lat="44.93929" lon="3.99436">
        <ele>940.79</ele>
        <time>2022-08-01T10:22:36Z</time>
      </trkpt>
      <trkpt lat="44.93933" lon="3.99437">
        <ele>939.35</ele>
        <time>2022-08-01T10:23:18Z</time>
      </trkpt>
      <trkpt lat="44.93933" lon="3.99433">
        <ele>936.94</ele>
        <time>2022-08-01T10:24:01Z</time>
      </trkpt>
      <trkpt lat="44.93936" lon="3.99435">
        <ele>936.94</ele>
        <time>2022-08-01T10:24:37Z</time>
      </trkpt>
      <trkpt lat="44.93935" lon="3.99434">
        <ele>938.86</ele>
        <time>2022-08-01T10:25:20Z</time>
      </trkpt>
      <trkpt lat="44.93935" lon="3.99433">
        <ele>935.5</ele>
        <time>2022-08-01T10:25:53Z</time>
      </trkpt>
      <trkpt lat="44.93933" lon="3.99433">
        <ele>935.98</ele>
        <time>2022-08-01T10:26:32Z</time>
      </trkpt>
      <trkpt lat="44.93932" lon="3.99433">
        <ele>935.02</ele>
        <time>2022-08-01T10:27:02Z</time>
      </trkpt>
      <trkpt lat="44.93931" lon="3.99434">
        <ele>936.46</ele>
        <time>2022-08-01T10:27:44Z</time>
      </trkpt>
      <trkpt lat="44.93931" lon="3.99435">
        <ele>935.02</ele>
        <time>2022-08-01T10:28:25Z</time>
      </trkpt>
      <trkpt lat="44.9393" lon="3.99434">
        <ele>933.58</ele>
        <time>2022-08-01T10:29:06Z</time>
      </trkpt>
      <trkpt lat="44.93932" lon="3.99431">
        <ele>938.38</ele>
        <time>2022-08-01T10:29:49Z</time>
      </trkpt>
      <trkpt lat="44.93931" lon="3.99433">
        <ele>940.31</ele>
        <time>2022-08-01T10:30:26Z</time>
      </trkpt>
      <trkpt lat="44.93932" lon="3.99429">
        <ele>941.27</ele>
        <time>2022-08-01T10:30:55Z</time>
      </trkpt>
      <trkpt lat="44.93934" lon="3.99433">
        <ele>938.38</ele>
        <time>2022-08-01T10:31:41Z</time>
      </trkpt>
      <trkpt lat="44.93928" lon="3.99435">
        <ele>944.15</ele>
        <time>2022-08-01T10:32:19Z</time>
      </trkpt>
      <trkpt lat="44.9393" lon="3.99435">
        <ele>951.84</ele>
        <time>2022-08-01T10:32:57Z</time>
      </trkpt>
      <trkpt lat="44.93936" lon="3.99435">
        <ele>949.92</ele>
        <time>2022-08-01T10:33:21Z</time>
      </trkpt>
      <trkpt lat="44.93934" lon="3.9943">
        <ele>940.79</ele>
        <time>2022-08-01T10:34:06Z</time>
      </trkpt>
      <trkpt lat="44.93934" lon="3.99434">
        <ele>936.46</ele>
        <time>2022-08-01T10:34:53Z</time>
      </trkpt>
      <trkpt lat="44.93929" lon="3.99433">
        <ele>942.23</ele>
        <time>2022-08-01T10:35:36Z</time>
      </trkpt>
      <trkpt lat="44.93929" lon="3.99432">
        <ele>940.79</ele>
        <time>2022-08-01T10:36:21Z</time>
      </trkpt>
      <trkpt lat="44.93933" lon="3.99433">
        <ele>939.83</ele>
        <time>2022-08-01T10:37:02Z</time>
      </trkpt>
      <trkpt lat="44.93935" lon="3.99433">
        <ele>939.35</ele>
        <time>2022-08-01T10:37:45Z</time>
      </trkpt>
      <trkpt lat="44.93934" lon="3.99432">
        <ele>939.35</ele>
        <time>2022-08-01T10:38:18Z</time>
      </trkpt>
      <trkpt lat="44.93932" lon="3.99434">
        <ele>942.71</ele>
        <time>2022-08-01T10:38:51Z</time>
      </trkpt>
      <trkpt lat="44.93933" lon="3.99434">
        <ele>944.15</ele>
        <time>2022-08-01T10:39:22Z</time>
      </trkpt>
      <trkpt lat="44.93932" lon="3.99432">
        <ele>941.75</ele>
        <time>2022-08-01T10:39:59Z</time>
      </trkpt>
      <trkpt lat="44.93933" lon="3.99434">
        <ele>940.31</ele>
        <time>2022-08-01T10:40:36Z</time>
      </trkpt>
      <trkpt lat="44.93934" lon="3.99432">
        <ele>936.94</ele>
        <time>2022-08-01T10:41:13Z</time>
      </trkpt>
      <trkpt lat="44.93925" lon="3.99438">
        <ele>943.19</ele>
        <time>2022-08-01T10:41:52Z</time>
      </trkpt>
      <trkpt lat="44.93925" lon="3.99436">
        <ele>944.63</ele>
        <time>2022-08-01T10:42:26Z</time>
      </trkpt>
      <trkpt lat="44.93927" lon="3.99436">
        <ele>944.15</ele>
        <time>2022-08-01T10:43:02Z</time>
      </trkpt>
      <trkpt lat="44.93928" lon="3.99434">
        <ele>940.79</ele>
        <time>2022-08-01T10:43:47Z</time>
      </trkpt>
      <trkpt lat="44.93926" lon="3.99433">
        <ele>936.94</ele>
        <time>2022-08-01T10:44:24Z</time>
      </trkpt>
      <trkpt lat="44.93927" lon="3.99434">
        <ele>931.17</ele>
        <time>2022-08-01T10:45:01Z</time>
      </trkpt>
      <trkpt lat="44.93926" lon="3.99432">
        <ele>929.73</ele>
        <time>2022-08-01T10:45:27Z</time>
      </trkpt>
      <trkpt lat="44.93925" lon="3.99436">
        <ele>938.86</ele>
        <time>2022-08-01T10:45:59Z</time>
      </trkpt>
      <trkpt lat="44.93927" lon="3.99433">
        <ele>944.15</ele>
        <time>2022-08-01T10:46:35Z</time>
      </trkpt>
      <trkpt lat="44.93929" lon="3.99431">
        <ele>940.79</ele>
        <time>2022-08-01T10:46:59Z</time>
      </trkpt>
      <trkpt lat="44.9393" lon="3.99433">
        <ele>935.5</ele>
        <time>2022-08-01T10:47:43Z</time>
      </trkpt>
      <trkpt lat="44.93926" lon="3.99431">
        <ele>934.06</ele>
        <time>2022-08-01T10:48:21Z</time>
      </trkpt>
      <trkpt lat="44.93925" lon="3.9943">
        <ele>939.35</ele>
        <time>2022-08-01T10:49:11Z</time>
      </trkpt>
      <trkpt lat="44.93926" lon="3.9943">
        <ele>933.58</ele>
        <time>2022-08-01T10:49:49Z</time>
      </trkpt>
      <trkpt lat="44.93925" lon="3.9943">
        <ele>933.58</ele>
        <time>2022-08-01T10:50:27Z</time>
      </trkpt>
      <trkpt lat="44.93927" lon="3.99431">
        <ele>935.5</ele>
        <time>2022-08-01T10:50:58Z</time>
      </trkpt>
      <trkpt lat="44.93929" lon="3.99431">
        <ele>932.62</ele>
        <time>2022-08-01T10:51:34Z</time>
      </trkpt>
      <trkpt lat="44.93926" lon="3.9943">
        <ele>934.54</ele>
        <time>2022-08-01T10:52:09Z</time>
      </trkpt>
      <trkpt lat="44.93923" lon="3.99432">
        <ele>936.46</ele>
        <time>2022-08-01T10:52:30Z</time>
      </trkpt>
      <trkpt lat="44.93924" lon="3.99432">
        <ele>944.15</ele>
        <time>2022-08-01T10:52:57Z</time>
      </trkpt>
      <trkpt lat="44.93926" lon="3.99431">
        <ele>948.48</ele>
        <time>2022-08-01T10:53:31Z</time>
      </trkpt>
      <trkpt lat="44.93926" lon="3.99431">
        <ele>943.19</ele>
        <time>2022-08-01T10:54:11Z</time>
      </trkpt>
      <trkpt lat="44.93925" lon="3.99431">
        <ele>939.35</ele>
        <time>2022-08-01T10:54:45Z</time>
      </trkpt>
      <trkpt lat="44.93927" lon="3.99431">
        <ele>940.31</ele>
        <time>2022-08-01T10:55:17Z</time>
      </trkpt>
      <trkpt lat="44.93927" lon="3.9943">
        <ele>935.5</ele>
        <time>2022-08-01T10:55:49Z</time>
      </trkpt>
      <trkpt lat="44.93928" lon="3.99433">
        <ele>933.58</ele>
        <time>2022-08-01T10:56:21Z</time>
      </trkpt>
      <trkpt lat="44.93925" lon="3.99425">
        <ele>937.42</ele>
        <time>2022-08-01T10:57:03Z</time>
      </trkpt>
      <trkpt lat="44.93926" lon="3.99428">
        <ele>937.9</ele>
        <time>2022-08-01T10:57:35Z</time>
      </trkpt>
      <trkpt lat="44.93926" lon="3.99429">
        <ele>939.35</ele>
        <time>2022-08-01T10:58:10Z</time>
      </trkpt>
      <trkpt lat="44.93925" lon="3.99429">
        <ele>940.79</ele>
        <time>2022-08-01T10:58:45Z</time>
      </trkpt>
      <trkpt lat="44.93925" lon="3.99431">
        <ele>942.71</ele>
        <time>2022-08-01T10:59:17Z</time>
      </trkpt>
      <trkpt lat="44.93923" lon="3.9943">
        <ele>940.79</ele>
        <time>2022-08-01T10:59:42Z</time>
      </trkpt>
      <trkpt lat="44.93922" lon="3.99432">
        <ele>942.23</ele>
        <time>2022-08-01T11:00:04Z</time>
      </trkpt>
      <trkpt lat="44.93921" lon="3.99431">
        <ele>941.75</ele>
        <time>2022-08-01T11:00:19Z</time>
      </trkpt>
      <trkpt lat="44.93923" lon="3.9943">
        <ele>941.75</ele>
        <time>2022-08-01T11:00:25Z</time>
      </trkpt>
      <trkpt lat="44.93925" lon="3.99435">
        <ele>941.27</ele>
        <time>2022-08-01T11:00:31Z</time>
      </trkpt>
      <trkpt lat="44.93921" lon="3.9944">
        <ele>940.31</ele>
        <time>2022-08-01T11:00:41Z</time>
      </trkpt>
      <trkpt lat="44.93915" lon="3.99444">
        <ele>940.31</ele>
        <time>2022-08-01T11:00:48Z</time>
      </trkpt>
      <trkpt lat="44.93909" lon="3.99456">
        <ele>941.27</ele>
        <time>2022-08-01T11:00:59Z</time>
      </trkpt>
      <trkpt lat="44.939" lon="3.99466">
        <ele>940.79</ele>
        <time>2022-08-01T11:01:09Z</time>
      </trkpt>
      <trkpt lat="44.93899" lon="3.99468">
        <ele>940.31</ele>
        <time>2022-08-01T11:01:11Z</time>
      </trkpt>
      <trkpt lat="44.93895" lon="3.99485">
        <ele>940.31</ele>
        <time>2022-08-01T11:01:22Z</time>
      </trkpt>
      <trkpt lat="44.9389" lon="3.99503">
        <ele>947.04</ele>
        <time>2022-08-01T11:01:37Z</time>
      </trkpt>
      <trkpt lat="44.93898" lon="3.99504">
        <ele>945.59</ele>
        <time>2022-08-01T11:01:50Z</time>
      </trkpt>
      <trkpt lat="44.93897" lon="3.99507">
        <ele>945.59</ele>
        <time>2022-08-01T11:01:53Z</time>
      </trkpt>
      <trkpt lat="44.93897" lon="3.9951">
        <ele>945.11</ele>
        <time>2022-08-01T11:01:57Z</time>
      </trkpt>
      <trkpt lat="44.93896" lon="3.99514">
        <ele>944.63</ele>
        <time>2022-08-01T11:02:00Z</time>
      </trkpt>
      <trkpt lat="44.93886" lon="3.99533">
        <ele>951.36</ele>
        <time>2022-08-01T11:02:15Z</time>
      </trkpt>
      <trkpt lat="44.93886" lon="3.99547">
        <ele>953.28</ele>
        <time>2022-08-01T11:02:25Z</time>
      </trkpt>
      <trkpt lat="44.93887" lon="3.99559">
        <ele>954.73</ele>
        <time>2022-08-01T11:02:40Z</time>
      </trkpt>
      <trkpt lat="44.93888" lon="3.99566">
        <ele>954.73</ele>
        <time>2022-08-01T11:02:55Z</time>
      </trkpt>
      <trkpt lat="44.93888" lon="3.99568">
        <ele>957.13</ele>
        <time>2022-08-01T11:03:17Z</time>
      </trkpt>
      <trkpt lat="44.93889" lon="3.99563">
        <ele>955.69</ele>
        <time>2022-08-01T11:03:36Z</time>
      </trkpt>
      <trkpt lat="44.93888" lon="3.99561">
        <ele>955.69</ele>
        <time>2022-08-01T11:04:08Z</time>
      </trkpt>
      <trkpt lat="44.93889" lon="3.99562">
        <ele>953.28</ele>
        <time>2022-08-01T11:04:28Z</time>
      </trkpt>
      <trkpt lat="44.93894" lon="3.99557">
        <ele>955.69</ele>
        <time>2022-08-01T11:04:54Z</time>
      </trkpt>
      <trkpt lat="44.93896" lon="3.99557">
        <ele>959.05</ele>
        <time>2022-08-01T11:05:24Z</time>
      </trkpt>
      <trkpt lat="44.93895" lon="3.99562">
        <ele>954.73</ele>
        <time>2022-08-01T11:05:44Z</time>
      </trkpt>
      <trkpt lat="44.93893" lon="3.99559">
        <ele>953.77</ele>
        <time>2022-08-01T11:05:46Z</time>
      </trkpt>
      <trkpt lat="44.9389" lon="3.9954">
        <ele>950.88</ele>
        <time>2022-08-01T11:05:59Z</time>
      </trkpt>
      <trkpt lat="44.93872" lon="3.99541">
        <ele>951.84</ele>
        <time>2022-08-01T11:06:13Z</time>
      </trkpt>
      <trkpt lat="44.93852" lon="3.9954">
        <ele>956.65</ele>
        <time>2022-08-01T11:06:25Z</time>
      </trkpt>
      <trkpt lat="44.93829" lon="3.99542">
        <ele>965.3</ele>
        <time>2022-08-01T11:06:42Z</time>
      </trkpt>
      <trkpt lat="44.93824" lon="3.99544">
        <ele>966.74</ele>
        <time>2022-08-01T11:06:46Z</time>
      </trkpt>
      <trkpt lat="44.93809" lon="3.99546">
        <ele>966.26</ele>
        <time>2022-08-01T11:07:04Z</time>
      </trkpt>
      <trkpt lat="44.93786" lon="3.99545">
        <ele>964.34</ele>
        <time>2022-08-01T11:07:20Z</time>
      </trkpt>
      <trkpt lat="44.93777" lon="3.99547">
        <ele>963.86</ele>
        <time>2022-08-01T11:07:29Z</time>
      </trkpt>
      <trkpt lat="44.93755" lon="3.99557">
        <ele>965.78</ele>
        <time>2022-08-01T11:07:45Z</time>
      </trkpt>
      <trkpt lat="44.93735" lon="3.99565">
        <ele>968.67</ele>
        <time>2022-08-01T11:07:59Z</time>
      </trkpt>
      <trkpt lat="44.93716" lon="3.9957">
        <ele>967.7</ele>
        <time>2022-08-01T11:08:13Z</time>
      </trkpt>
      <trkpt lat="44.93703" lon="3.99567">
        <ele>965.3</ele>
        <time>2022-08-01T11:08:23Z</time>
      </trkpt>
      <trkpt lat="44.937" lon="3.99566">
        <ele>963.86</ele>
        <time>2022-08-01T11:08:25Z</time>
      </trkpt>
      <trkpt lat="44.93682" lon="3.99573">
        <ele>961.94</ele>
        <time>2022-08-01T11:08:39Z</time>
      </trkpt>
      <trkpt lat="44.93666" lon="3.99587">
        <ele>956.65</ele>
        <time>2022-08-01T11:08:55Z</time>
      </trkpt>
      <trkpt lat="44.93648" lon="3.99596">
        <ele>955.69</ele>
        <time>2022-08-01T11:09:09Z</time>
      </trkpt>
      <trkpt lat="44.93629" lon="3.99604">
        <ele>957.61</ele>
        <time>2022-08-01T11:09:24Z</time>
      </trkpt>
      <trkpt lat="44.93614" lon="3.99607">
        <ele>959.53</ele>
        <time>2022-08-01T11:09:37Z</time>
      </trkpt>
      <trkpt lat="44.93603" lon="3.99611">
        <ele>956.17</ele>
        <time>2022-08-01T11:09:50Z</time>
      </trkpt>
      <trkpt lat="44.93581" lon="3.99626">
        <ele>953.77</ele>
        <time>2022-08-01T11:10:08Z</time>
      </trkpt>
      <trkpt lat="44.93564" lon="3.99632">
        <ele>948.48</ele>
        <time>2022-08-01T11:10:20Z</time>
      </trkpt>
      <trkpt lat="44.93551" lon="3.99633">
        <ele>947.52</ele>
        <time>2022-08-01T11:10:32Z</time>
      </trkpt>
      <trkpt lat="44.93537" lon="3.99633">
        <ele>943.19</ele>
        <time>2022-08-01T11:10:45Z</time>
      </trkpt>
      <trkpt lat="44.93533" lon="3.99626">
        <ele>942.23</ele>
        <time>2022-08-01T11:10:51Z</time>
      </trkpt>
      <trkpt lat="44.93527" lon="3.99601">
        <ele>934.06</ele>
        <time>2022-08-01T11:11:08Z</time>
      </trkpt>
      <trkpt lat="44.93522" lon="3.99574">
        <ele>929.25</ele>
        <time>2022-08-01T11:11:26Z</time>
      </trkpt>
      <trkpt lat="44.93522" lon="3.99573">
        <ele>929.25</ele>
        <time>2022-08-01T11:11:27Z</time>
      </trkpt>
      <trkpt lat="44.93527" lon="3.99558">
        <ele>927.33</ele>
        <time>2022-08-01T11:11:37Z</time>
      </trkpt>
      <trkpt lat="44.93526" lon="3.99556">
        <ele>928.29</ele>
        <time>2022-08-01T11:11:53Z</time>
      </trkpt>
      <trkpt lat="44.93524" lon="3.99558">
        <ele>928.29</ele>
        <time>2022-08-01T11:12:19Z</time>
      </trkpt>
      <trkpt lat="44.93526" lon="3.99558">
        <ele>927.81</ele>
        <time>2022-08-01T11:12:27Z</time>
      </trkpt>
      <trkpt lat="44.93538" lon="3.99531">
        <ele>923.48</ele>
        <time>2022-08-01T11:12:43Z</time>
      </trkpt>
      <trkpt lat="44.9355" lon="3.99507">
        <ele>921.08</ele>
        <time>2022-08-01T11:12:59Z</time>
      </trkpt>
      <trkpt lat="44.93556" lon="3.99493">
        <ele>919.16</ele>
        <time>2022-08-01T11:13:07Z</time>
      </trkpt>
      <trkpt lat="44.93562" lon="3.99485">
        <ele>917.24</ele>
        <time>2022-08-01T11:13:13Z</time>
      </trkpt>
      <trkpt lat="44.93573" lon="3.99454">
        <ele>911.47</ele>
        <time>2022-08-01T11:13:31Z</time>
      </trkpt>
      <trkpt lat="44.93584" lon="3.99423">
        <ele>907.62</ele>
        <time>2022-08-01T11:13:49Z</time>
      </trkpt>
      <trkpt lat="44.93596" lon="3.99387">
        <ele>902.82</ele>
        <time>2022-08-01T11:14:10Z</time>
      </trkpt>
      <trkpt lat="44.93602" lon="3.99356">
        <ele>898.01</ele>
        <time>2022-08-01T11:14:28Z</time>
      </trkpt>
      <trkpt lat="44.93607" lon="3.99334">
        <ele>895.12</ele>
        <time>2022-08-01T11:14:41Z</time>
      </trkpt>
      <trkpt lat="44.93614" lon="3.99318">
        <ele>893.68</ele>
        <time>2022-08-01T11:14:51Z</time>
      </trkpt>
      <trkpt lat="44.93624" lon="3.99292">
        <ele>890.8</ele>
        <time>2022-08-01T11:15:08Z</time>
      </trkpt>
      <trkpt lat="44.93626" lon="3.99288">
        <ele>890.32</ele>
        <time>2022-08-01T11:15:11Z</time>
      </trkpt>
      <trkpt lat="44.93632" lon="3.99286">
        <ele>888.88</ele>
        <time>2022-08-01T11:15:25Z</time>
      </trkpt>
      <trkpt lat="44.93632" lon="3.99287">
        <ele>889.36</ele>
        <time>2022-08-01T11:15:27Z</time>
      </trkpt>
      <trkpt lat="44.93628" lon="3.99288">
        <ele>891.28</ele>
        <time>2022-08-01T11:15:36Z</time>
      </trkpt>
      <trkpt lat="44.93631" lon="3.99261">
        <ele>890.32</ele>
        <time>2022-08-01T11:15:51Z</time>
      </trkpt>
      <trkpt lat="44.93635" lon="3.99236">
        <ele>888.88</ele>
        <time>2022-08-01T11:16:05Z</time>
      </trkpt>
      <trkpt lat="44.93637" lon="3.99226">
        <ele>887.91</ele>
        <time>2022-08-01T11:16:11Z</time>
      </trkpt>
      <trkpt lat="44.93638" lon="3.9919">
        <ele>885.03</ele>
        <time>2022-08-01T11:16:30Z</time>
      </trkpt>
      <trkpt lat="44.93636" lon="3.99163">
        <ele>883.11</ele>
        <time>2022-08-01T11:16:46Z</time>
      </trkpt>
      <trkpt lat="44.93635" lon="3.99132">
        <ele>881.19</ele>
        <time>2022-08-01T11:17:03Z</time>
      </trkpt>
      <trkpt lat="44.93638" lon="3.99094">
        <ele>877.82</ele>
        <time>2022-08-01T11:17:24Z</time>
      </trkpt>
      <trkpt lat="44.93641" lon="3.99061">
        <ele>875.42</ele>
        <time>2022-08-01T11:17:42Z</time>
      </trkpt>
      <trkpt lat="44.93646" lon="3.9903">
        <ele>873.01</ele>
        <time>2022-08-01T11:17:59Z</time>
      </trkpt>
      <trkpt lat="44.93651" lon="3.99001">
        <ele>869.17</ele>
        <time>2022-08-01T11:18:15Z</time>
      </trkpt>
      <trkpt lat="44.93655" lon="3.98972">
        <ele>865.32</ele>
        <time>2022-08-01T11:18:31Z</time>
      </trkpt>
      <trkpt lat="44.93664" lon="3.98947">
        <ele>861.48</ele>
        <time>2022-08-01T11:18:47Z</time>
      </trkpt>
      <trkpt lat="44.93675" lon="3.98928">
        <ele>859.56</ele>
        <time>2022-08-01T11:19:00Z</time>
      </trkpt>
      <trkpt lat="44.93679" lon="3.98918">
        <ele>858.11</ele>
        <time>2022-08-01T11:19:06Z</time>
      </trkpt>
      <trkpt lat="44.93686" lon="3.98887">
        <ele>854.27</ele>
        <time>2022-08-01T11:19:23Z</time>
      </trkpt>
      <trkpt lat="44.93686" lon="3.98853">
        <ele>849.46</ele>
        <time>2022-08-01T11:19:42Z</time>
      </trkpt>
      <trkpt lat="44.93688" lon="3.98822">
        <ele>847.54</ele>
        <time>2022-08-01T11:20:00Z</time>
      </trkpt>
      <trkpt lat="44.93693" lon="3.98798">
        <ele>847.06</ele>
        <time>2022-08-01T11:20:14Z</time>
      </trkpt>
      <trkpt lat="44.93706" lon="3.98777">
        <ele>845.62</ele>
        <time>2022-08-01T11:20:29Z</time>
      </trkpt>
      <trkpt lat="44.93716" lon="3.98755">
        <ele>843.21</ele>
        <time>2022-08-01T11:20:44Z</time>
      </trkpt>
      <trkpt lat="44.93722" lon="3.98727">
        <ele>838.41</ele>
        <time>2022-08-01T11:21:02Z</time>
      </trkpt>
      <trkpt lat="44.9372" lon="3.98695">
        <ele>836</ele>
        <time>2022-08-01T11:21:19Z</time>
      </trkpt>
      <trkpt lat="44.93714" lon="3.98668">
        <ele>832.64</ele>
        <time>2022-08-01T11:21:35Z</time>
      </trkpt>
      <trkpt lat="44.93708" lon="3.98643">
        <ele>830.72</ele>
        <time>2022-08-01T11:21:51Z</time>
      </trkpt>
      <trkpt lat="44.93701" lon="3.98617">
        <ele>829.27</ele>
        <time>2022-08-01T11:22:06Z</time>
      </trkpt>
      <trkpt lat="44.93695" lon="3.98589">
        <ele>828.31</ele>
        <time>2022-08-01T11:22:23Z</time>
      </trkpt>
      <trkpt lat="44.93688" lon="3.98562">
        <ele>826.87</ele>
        <time>2022-08-01T11:22:39Z</time>
      </trkpt>
      <trkpt lat="44.93682" lon="3.98536">
        <ele>825.91</ele>
        <time>2022-08-01T11:22:54Z</time>
      </trkpt>
      <trkpt lat="44.93675" lon="3.98511">
        <ele>827.35</ele>
        <time>2022-08-01T11:23:09Z</time>
      </trkpt>
      <trkpt lat="44.93668" lon="3.98485">
        <ele>825.43</ele>
        <time>2022-08-01T11:23:25Z</time>
      </trkpt>
      <trkpt lat="44.93667" lon="3.9848">
        <ele>824.95</ele>
        <time>2022-08-01T11:23:28Z</time>
      </trkpt>
      <trkpt lat="44.9366" lon="3.98454">
        <ele>823.51</ele>
        <time>2022-08-01T11:23:44Z</time>
      </trkpt>
      <trkpt lat="44.93647" lon="3.98432">
        <ele>823.51</ele>
        <time>2022-08-01T11:24:00Z</time>
      </trkpt>
      <trkpt lat="44.93642" lon="3.98426">
        <ele>823.03</ele>
        <time>2022-08-01T11:24:05Z</time>
      </trkpt>
      <trkpt lat="44.93628" lon="3.98413">
        <ele>819.66</ele>
        <time>2022-08-01T11:24:18Z</time>
      </trkpt>
      <trkpt lat="44.9361" lon="3.98397">
        <ele>816.78</ele>
        <time>2022-08-01T11:24:34Z</time>
      </trkpt>
      <trkpt lat="44.93592" lon="3.98386">
        <ele>814.85</ele>
        <time>2022-08-01T11:24:49Z</time>
      </trkpt>
      <trkpt lat="44.93587" lon="3.98384">
        <ele>815.34</ele>
        <time>2022-08-01T11:24:53Z</time>
      </trkpt>
      <trkpt lat="44.93568" lon="3.98371">
        <ele>817.26</ele>
        <time>2022-08-01T11:25:10Z</time>
      </trkpt>
      <trkpt lat="44.93548" lon="3.98362">
        <ele>817.26</ele>
        <time>2022-08-01T11:25:27Z</time>
      </trkpt>
      <trkpt lat="44.93529" lon="3.98358">
        <ele>820.14</ele>
        <time>2022-08-01T11:25:42Z</time>
      </trkpt>
      <trkpt lat="44.93508" lon="3.98354">
        <ele>819.18</ele>
        <time>2022-08-01T11:25:58Z</time>
      </trkpt>
      <trkpt lat="44.93493" lon="3.98344">
        <ele>821.1</ele>
        <time>2022-08-01T11:26:13Z</time>
      </trkpt>
      <trkpt lat="44.93483" lon="3.98326">
        <ele>824.95</ele>
        <time>2022-08-01T11:26:31Z</time>
      </trkpt>
      <trkpt lat="44.93468" lon="3.98319">
        <ele>829.27</ele>
        <time>2022-08-01T11:26:47Z</time>
      </trkpt>
      <trkpt lat="44.93454" lon="3.9832">
        <ele>832.64</ele>
        <time>2022-08-01T11:27:04Z</time>
      </trkpt>
      <trkpt lat="44.93436" lon="3.98314">
        <ele>834.56</ele>
        <time>2022-08-01T11:27:20Z</time>
      </trkpt>
      <trkpt lat="44.93423" lon="3.98305">
        <ele>835.52</ele>
        <time>2022-08-01T11:27:35Z</time>
      </trkpt>
      <trkpt lat="44.93411" lon="3.98295">
        <ele>836.48</ele>
        <time>2022-08-01T11:27:51Z</time>
      </trkpt>
      <trkpt lat="44.93413" lon="3.98293">
        <ele>837.45</ele>
        <time>2022-08-01T11:27:55Z</time>
      </trkpt>
      <trkpt lat="44.93414" lon="3.9829">
        <ele>838.41</ele>
        <time>2022-08-01T11:27:58Z</time>
      </trkpt>
      <trkpt lat="44.93415" lon="3.98285">
        <ele>838.89</ele>
        <time>2022-08-01T11:28:04Z</time>
      </trkpt>
      <trkpt lat="44.93422" lon="3.98271">
        <ele>840.33</ele>
        <time>2022-08-01T11:28:18Z</time>
      </trkpt>
      <trkpt lat="44.9343" lon="3.98249">
        <ele>839.37</ele>
        <time>2022-08-01T11:28:33Z</time>
      </trkpt>
      <trkpt lat="44.9343" lon="3.98245">
        <ele>840.81</ele>
        <time>2022-08-01T11:28:35Z</time>
      </trkpt>
      <trkpt lat="44.93426" lon="3.98223">
        <ele>842.73</ele>
        <time>2022-08-01T11:28:50Z</time>
      </trkpt>
      <trkpt lat="44.93421" lon="3.98207">
        <ele>847.06</ele>
        <time>2022-08-01T11:29:03Z</time>
      </trkpt>
      <trkpt lat="44.93425" lon="3.98193">
        <ele>851.87</ele>
        <time>2022-08-01T11:29:16Z</time>
      </trkpt>
      <trkpt lat="44.93426" lon="3.98169">
        <ele>854.27</ele>
        <time>2022-08-01T11:29:31Z</time>
      </trkpt>
      <trkpt lat="44.93422" lon="3.98153">
        <ele>854.75</ele>
        <time>2022-08-01T11:29:42Z</time>
      </trkpt>
      <trkpt lat="44.93418" lon="3.9813">
        <ele>859.08</ele>
        <time>2022-08-01T11:29:57Z</time>
      </trkpt>
      <trkpt lat="44.93417" lon="3.98122">
        <ele>861</ele>
        <time>2022-08-01T11:30:03Z</time>
      </trkpt>
      <trkpt lat="44.93412" lon="3.98104">
        <ele>864.36</ele>
        <time>2022-08-01T11:30:16Z</time>
      </trkpt>
      <trkpt lat="44.93404" lon="3.98086">
        <ele>865.32</ele>
        <time>2022-08-01T11:30:31Z</time>
      </trkpt>
      <trkpt lat="44.93403" lon="3.98076">
        <ele>871.09</ele>
        <time>2022-08-01T11:30:44Z</time>
      </trkpt>
      <trkpt lat="44.93396" lon="3.98062">
        <ele>875.42</ele>
        <time>2022-08-01T11:30:59Z</time>
      </trkpt>
      <trkpt lat="44.93382" lon="3.98051">
        <ele>874.94</ele>
        <time>2022-08-01T11:31:15Z</time>
      </trkpt>
      <trkpt lat="44.93373" lon="3.98044">
        <ele>878.78</ele>
        <time>2022-08-01T11:31:31Z</time>
      </trkpt>
      <trkpt lat="44.93359" lon="3.98036">
        <ele>881.67</ele>
        <time>2022-08-01T11:31:43Z</time>
      </trkpt>
      <trkpt lat="44.93347" lon="3.98027">
        <ele>878.78</ele>
        <time>2022-08-01T11:31:55Z</time>
      </trkpt>
      <trkpt lat="44.93349" lon="3.9802">
        <ele>879.26</ele>
        <time>2022-08-01T11:32:03Z</time>
      </trkpt>
      <trkpt lat="44.93348" lon="3.9801">
        <ele>880.22</ele>
        <time>2022-08-01T11:32:10Z</time>
      </trkpt>
      <trkpt lat="44.93339" lon="3.97989">
        <ele>877.34</ele>
        <time>2022-08-01T11:32:24Z</time>
      </trkpt>
      <trkpt lat="44.93336" lon="3.97972">
        <ele>876.86</ele>
        <time>2022-08-01T11:32:37Z</time>
      </trkpt>
      <trkpt lat="44.9334" lon="3.97956">
        <ele>878.3</ele>
        <time>2022-08-01T11:32:48Z</time>
      </trkpt>
      <trkpt lat="44.93342" lon="3.97952">
        <ele>878.3</ele>
        <time>2022-08-01T11:32:51Z</time>
      </trkpt>
      <trkpt lat="44.93345" lon="3.9794">
        <ele>876.86</ele>
        <time>2022-08-01T11:32:58Z</time>
      </trkpt>
      <trkpt lat="44.93347" lon="3.97925">
        <ele>874.46</ele>
        <time>2022-08-01T11:33:06Z</time>
      </trkpt>
      <trkpt lat="44.93348" lon="3.97912">
        <ele>874.46</ele>
        <time>2022-08-01T11:33:13Z</time>
      </trkpt>
      <trkpt lat="44.9335" lon="3.97888">
        <ele>876.86</ele>
        <time>2022-08-01T11:33:29Z</time>
      </trkpt>
      <trkpt lat="44.9335" lon="3.97884">
        <ele>877.34</ele>
        <time>2022-08-01T11:33:32Z</time>
      </trkpt>
      <trkpt lat="44.93356" lon="3.97872">
        <ele>879.26</ele>
        <time>2022-08-01T11:33:43Z</time>
      </trkpt>
      <trkpt lat="44.93357" lon="3.97861">
        <ele>879.74</ele>
        <time>2022-08-01T11:33:50Z</time>
      </trkpt>
      <trkpt lat="44.93361" lon="3.97842">
        <ele>878.78</ele>
        <time>2022-08-01T11:34:01Z</time>
      </trkpt>
      <trkpt lat="44.93372" lon="3.97821">
        <ele>874.46</ele>
        <time>2022-08-01T11:34:16Z</time>
      </trkpt>
      <trkpt lat="44.93377" lon="3.97804">
        <ele>872.05</ele>
        <time>2022-08-01T11:34:26Z</time>
      </trkpt>
      <trkpt lat="44.93372" lon="3.97776">
        <ele>870.13</ele>
        <time>2022-08-01T11:34:41Z</time>
      </trkpt>
      <trkpt lat="44.93363" lon="3.97761">
        <ele>868.69</ele>
        <time>2022-08-01T11:34:53Z</time>
      </trkpt>
      <trkpt lat="44.93358" lon="3.9775">
        <ele>868.21</ele>
        <time>2022-08-01T11:35:02Z</time>
      </trkpt>
      <trkpt lat="44.93358" lon="3.97739">
        <ele>869.65</ele>
        <time>2022-08-01T11:35:09Z</time>
      </trkpt>
      <trkpt lat="44.93355" lon="3.9773">
        <ele>871.57</ele>
        <time>2022-08-01T11:35:15Z</time>
      </trkpt>
      <trkpt lat="44.93355" lon="3.97724">
        <ele>874.94</ele>
        <time>2022-08-01T11:35:19Z</time>
      </trkpt>
      <trkpt lat="44.93356" lon="3.97712">
        <ele>877.34</ele>
        <time>2022-08-01T11:35:25Z</time>
      </trkpt>
      <trkpt lat="44.93348" lon="3.9769">
        <ele>876.86</ele>
        <time>2022-08-01T11:35:38Z</time>
      </trkpt>
      <trkpt lat="44.93339" lon="3.97675">
        <ele>876.86</ele>
        <time>2022-08-01T11:35:51Z</time>
      </trkpt>
      <trkpt lat="44.93335" lon="3.97661">
        <ele>881.67</ele>
        <time>2022-08-01T11:36:05Z</time>
      </trkpt>
      <trkpt lat="44.93331" lon="3.97643">
        <ele>883.59</ele>
        <time>2022-08-01T11:36:19Z</time>
      </trkpt>
      <trkpt lat="44.93328" lon="3.97625">
        <ele>882.63</ele>
        <time>2022-08-01T11:36:34Z</time>
      </trkpt>
      <trkpt lat="44.93329" lon="3.97624">
        <ele>882.63</ele>
        <time>2022-08-01T11:36:35Z</time>
      </trkpt>
      <trkpt lat="44.93332" lon="3.97609">
        <ele>886.47</ele>
        <time>2022-08-01T11:36:48Z</time>
      </trkpt>
      <trkpt lat="44.93333" lon="3.97608">
        <ele>886.95</ele>
        <time>2022-08-01T11:36:49Z</time>
      </trkpt>
      <trkpt lat="44.93334" lon="3.97599">
        <ele>889.84</ele>
        <time>2022-08-01T11:36:55Z</time>
      </trkpt>
      <trkpt lat="44.93342" lon="3.97585">
        <ele>897.05</ele>
        <time>2022-08-01T11:37:09Z</time>
      </trkpt>
      <trkpt lat="44.93354" lon="3.97561">
        <ele>896.09</ele>
        <time>2022-08-01T11:37:26Z</time>
      </trkpt>
      <trkpt lat="44.93363" lon="3.97545">
        <ele>897.05</ele>
        <time>2022-08-01T11:37:39Z</time>
      </trkpt>
      <trkpt lat="44.93372" lon="3.97527">
        <ele>900.41</ele>
        <time>2022-08-01T11:37:53Z</time>
      </trkpt>
      <trkpt lat="44.93374" lon="3.97506">
        <ele>903.78</ele>
        <time>2022-08-01T11:38:08Z</time>
      </trkpt>
      <trkpt lat="44.93377" lon="3.9749">
        <ele>906.66</ele>
        <time>2022-08-01T11:38:20Z</time>
      </trkpt>
      <trkpt lat="44.93379" lon="3.97476">
        <ele>908.1</ele>
        <time>2022-08-01T11:38:28Z</time>
      </trkpt>
      <trkpt lat="44.93386" lon="3.97455">
        <ele>908.58</ele>
        <time>2022-08-01T11:38:43Z</time>
      </trkpt>
      <trkpt lat="44.93386" lon="3.97429">
        <ele>910.03</ele>
        <time>2022-08-01T11:38:57Z</time>
      </trkpt>
      <trkpt lat="44.9339" lon="3.97408">
        <ele>911.95</ele>
        <time>2022-08-01T11:39:12Z</time>
      </trkpt>
      <trkpt lat="44.93389" lon="3.974">
        <ele>911.95</ele>
        <time>2022-08-01T11:39:16Z</time>
      </trkpt>
      <trkpt lat="44.93379" lon="3.97371">
        <ele>907.14</ele>
        <time>2022-08-01T11:39:29Z</time>
      </trkpt>
      <trkpt lat="44.93378" lon="3.97363">
        <ele>905.22</ele>
        <time>2022-08-01T11:39:34Z</time>
      </trkpt>
      <trkpt lat="44.93376" lon="3.97349">
        <ele>905.7</ele>
        <time>2022-08-01T11:39:47Z</time>
      </trkpt>
      <trkpt lat="44.93374" lon="3.97332">
        <ele>916.75</ele>
        <time>2022-08-01T11:40:02Z</time>
      </trkpt>
      <trkpt lat="44.93373" lon="3.97318">
        <ele>923</ele>
        <time>2022-08-01T11:40:15Z</time>
      </trkpt>
      <trkpt lat="44.93374" lon="3.9731">
        <ele>923</ele>
        <time>2022-08-01T11:40:31Z</time>
      </trkpt>
      <trkpt lat="44.93371" lon="3.97309">
        <ele>922.04</ele>
        <time>2022-08-01T11:40:36Z</time>
      </trkpt>
      <trkpt lat="44.9337" lon="3.9729">
        <ele>920.6</ele>
        <time>2022-08-01T11:40:49Z</time>
      </trkpt>
      <trkpt lat="44.93367" lon="3.97285">
        <ele>919.16</ele>
        <time>2022-08-01T11:41:06Z</time>
      </trkpt>
      <trkpt lat="44.93366" lon="3.97284">
        <ele>916.75</ele>
        <time>2022-08-01T11:41:40Z</time>
      </trkpt>
      <trkpt lat="44.93366" lon="3.97282">
        <ele>920.12</ele>
        <time>2022-08-01T11:42:11Z</time>
      </trkpt>
      <trkpt lat="44.93366" lon="3.97271">
        <ele>918.2</ele>
        <time>2022-08-01T11:42:24Z</time>
      </trkpt>
      <trkpt lat="44.93365" lon="3.97258">
        <ele>915.79</ele>
        <time>2022-08-01T11:42:37Z</time>
      </trkpt>
      <trkpt lat="44.93365" lon="3.97251">
        <ele>918.68</ele>
        <time>2022-08-01T11:42:54Z</time>
      </trkpt>
      <trkpt lat="44.93362" lon="3.97245">
        <ele>921.08</ele>
        <time>2022-08-01T11:43:17Z</time>
      </trkpt>
      <trkpt lat="44.93367" lon="3.97228">
        <ele>923</ele>
        <time>2022-08-01T11:43:30Z</time>
      </trkpt>
      <trkpt lat="44.93368" lon="3.9721">
        <ele>927.33</ele>
        <time>2022-08-01T11:43:43Z</time>
      </trkpt>
      <trkpt lat="44.93367" lon="3.97196">
        <ele>929.73</ele>
        <time>2022-08-01T11:43:56Z</time>
      </trkpt>
      <trkpt lat="44.93367" lon="3.97177">
        <ele>928.29</ele>
        <time>2022-08-01T11:44:10Z</time>
      </trkpt>
      <trkpt lat="44.9337" lon="3.97159">
        <ele>930.21</ele>
        <time>2022-08-01T11:44:23Z</time>
      </trkpt>
      <trkpt lat="44.93368" lon="3.9714">
        <ele>936.46</ele>
        <time>2022-08-01T11:44:37Z</time>
      </trkpt>
      <trkpt lat="44.93369" lon="3.97127">
        <ele>939.35</ele>
        <time>2022-08-01T11:44:46Z</time>
      </trkpt>
      <trkpt lat="44.93355" lon="3.97114">
        <ele>937.42</ele>
        <time>2022-08-01T11:44:58Z</time>
      </trkpt>
      <trkpt lat="44.93349" lon="3.97109">
        <ele>935.5</ele>
        <time>2022-08-01T11:45:04Z</time>
      </trkpt>
      <trkpt lat="44.93334" lon="3.97104">
        <ele>935.5</ele>
        <time>2022-08-01T11:45:17Z</time>
      </trkpt>
      <trkpt lat="44.9332" lon="3.97101">
        <ele>935.5</ele>
        <time>2022-08-01T11:45:32Z</time>
      </trkpt>
      <trkpt lat="44.93306" lon="3.97096">
        <ele>936.94</ele>
        <time>2022-08-01T11:45:46Z</time>
      </trkpt>
      <trkpt lat="44.93292" lon="3.9709">
        <ele>938.38</ele>
        <time>2022-08-01T11:46:01Z</time>
      </trkpt>
      <trkpt lat="44.9328" lon="3.97079">
        <ele>941.27</ele>
        <time>2022-08-01T11:46:15Z</time>
      </trkpt>
      <trkpt lat="44.93267" lon="3.97061">
        <ele>942.23</ele>
        <time>2022-08-01T11:46:28Z</time>
      </trkpt>
      <trkpt lat="44.93261" lon="3.97041">
        <ele>944.63</ele>
        <time>2022-08-01T11:46:45Z</time>
      </trkpt>
      <trkpt lat="44.93257" lon="3.97017">
        <ele>945.11</ele>
        <time>2022-08-01T11:47:00Z</time>
      </trkpt>
      <trkpt lat="44.93255" lon="3.97007">
        <ele>945.11</ele>
        <time>2022-08-01T11:47:07Z</time>
      </trkpt>
      <trkpt lat="44.93255" lon="3.97001">
        <ele>945.11</ele>
        <time>2022-08-01T11:47:11Z</time>
      </trkpt>
      <trkpt lat="44.93257" lon="3.96983">
        <ele>946.07</ele>
        <time>2022-08-01T11:47:24Z</time>
      </trkpt>
      <trkpt lat="44.9326" lon="3.96964">
        <ele>948.96</ele>
        <time>2022-08-01T11:47:36Z</time>
      </trkpt>
      <trkpt lat="44.9326" lon="3.96951">
        <ele>949.92</ele>
        <time>2022-08-01T11:47:43Z</time>
      </trkpt>
      <trkpt lat="44.93262" lon="3.96923">
        <ele>948.96</ele>
        <time>2022-08-01T11:47:57Z</time>
      </trkpt>
      <trkpt lat="44.93266" lon="3.96895">
        <ele>947.04</ele>
        <time>2022-08-01T11:48:13Z</time>
      </trkpt>
      <trkpt lat="44.93266" lon="3.96865">
        <ele>946.56</ele>
        <time>2022-08-01T11:48:30Z</time>
      </trkpt>
      <trkpt lat="44.93259" lon="3.96839">
        <ele>946.07</ele>
        <time>2022-08-01T11:48:45Z</time>
      </trkpt>
      <trkpt lat="44.9325" lon="3.96817">
        <ele>949.44</ele>
        <time>2022-08-01T11:49:01Z</time>
      </trkpt>
      <trkpt lat="44.9324" lon="3.96798">
        <ele>955.69</ele>
        <time>2022-08-01T11:49:16Z</time>
      </trkpt>
      <trkpt lat="44.93233" lon="3.96779">
        <ele>958.09</ele>
        <time>2022-08-01T11:49:32Z</time>
      </trkpt>
      <trkpt lat="44.93227" lon="3.96764">
        <ele>960.01</ele>
        <time>2022-08-01T11:49:43Z</time>
      </trkpt>
      <trkpt lat="44.93226" lon="3.96763">
        <ele>959.53</ele>
        <time>2022-08-01T11:49:44Z</time>
      </trkpt>
      <trkpt lat="44.93217" lon="3.96739">
        <ele>959.53</ele>
        <time>2022-08-01T11:49:59Z</time>
      </trkpt>
      <trkpt lat="44.93206" lon="3.96722">
        <ele>959.05</ele>
        <time>2022-08-01T11:50:12Z</time>
      </trkpt>
      <trkpt lat="44.93192" lon="3.967">
        <ele>960.49</ele>
        <time>2022-08-01T11:50:28Z</time>
      </trkpt>
      <trkpt lat="44.9319" lon="3.96698">
        <ele>960.01</ele>
        <time>2022-08-01T11:50:30Z</time>
      </trkpt>
      <trkpt lat="44.93171" lon="3.9668">
        <ele>957.61</ele>
        <time>2022-08-01T11:50:48Z</time>
      </trkpt>
      <trkpt lat="44.93158" lon="3.96657">
        <ele>957.61</ele>
        <time>2022-08-01T11:51:06Z</time>
      </trkpt>
      <trkpt lat="44.93151" lon="3.96653">
        <ele>957.61</ele>
        <time>2022-08-01T11:51:20Z</time>
      </trkpt>
      <trkpt lat="44.93151" lon="3.96657">
        <ele>959.05</ele>
        <time>2022-08-01T11:51:51Z</time>
      </trkpt>
      <trkpt lat="44.93153" lon="3.96654">
        <ele>960.01</ele>
        <time>2022-08-01T11:52:18Z</time>
      </trkpt>
      <trkpt lat="44.93151" lon="3.96652">
        <ele>960.49</ele>
        <time>2022-08-01T11:52:38Z</time>
      </trkpt>
      <trkpt lat="44.9315" lon="3.9665">
        <ele>960.49</ele>
        <time>2022-08-01T11:52:40Z</time>
      </trkpt>
      <trkpt lat="44.93147" lon="3.96648">
        <ele>960.49</ele>
        <time>2022-08-01T11:52:42Z</time>
      </trkpt>
      <trkpt lat="44.93131" lon="3.96637">
        <ele>960.98</ele>
        <time>2022-08-01T11:52:57Z</time>
      </trkpt>
      <trkpt lat="44.93128" lon="3.96634">
        <ele>960.98</ele>
        <time>2022-08-01T11:53:00Z</time>
      </trkpt>
      <trkpt lat="44.93117" lon="3.96629">
        <ele>960.98</ele>
        <time>2022-08-01T11:53:12Z</time>
      </trkpt>
      <trkpt lat="44.93114" lon="3.96627">
        <ele>961.94</ele>
        <time>2022-08-01T11:53:28Z</time>
      </trkpt>
      <trkpt lat="44.93114" lon="3.96627">
        <ele>962.9</ele>
        <time>2022-08-01T11:53:37Z</time>
      </trkpt>
      <trkpt lat="44.93108" lon="3.96625">
        <ele>962.42</ele>
        <time>2022-08-01T11:53:41Z</time>
      </trkpt>
      <trkpt lat="44.93097" lon="3.96618">
        <ele>960.49</ele>
        <time>2022-08-01T11:53:57Z</time>
      </trkpt>
      <trkpt lat="44.93092" lon="3.96615">
        <ele>960.49</ele>
        <time>2022-08-01T11:54:13Z</time>
      </trkpt>
      <trkpt lat="44.93073" lon="3.96596">
        <ele>959.05</ele>
        <time>2022-08-01T11:54:30Z</time>
      </trkpt>
      <trkpt lat="44.93055" lon="3.96585">
        <ele>959.05</ele>
        <time>2022-08-01T11:54:45Z</time>
      </trkpt>
      <trkpt lat="44.93037" lon="3.96579">
        <ele>959.05</ele>
        <time>2022-08-01T11:54:59Z</time>
      </trkpt>
      <trkpt lat="44.93018" lon="3.96576">
        <ele>959.05</ele>
        <time>2022-08-01T11:55:14Z</time>
      </trkpt>
      <trkpt lat="44.93007" lon="3.96574">
        <ele>957.61</ele>
        <time>2022-08-01T11:55:30Z</time>
      </trkpt>
      <trkpt lat="44.9301" lon="3.96572">
        <ele>957.61</ele>
        <time>2022-08-01T11:55:42Z</time>
      </trkpt>
      <trkpt lat="44.93011" lon="3.9657">
        <ele>957.13</ele>
        <time>2022-08-01T11:56:01Z</time>
      </trkpt>
      <trkpt lat="44.9301" lon="3.9657">
        <ele>956.65</ele>
        <time>2022-08-01T11:56:19Z</time>
      </trkpt>
      <trkpt lat="44.93009" lon="3.96572">
        <ele>955.69</ele>
        <time>2022-08-01T11:56:43Z</time>
      </trkpt>
      <trkpt lat="44.9301" lon="3.9657">
        <ele>959.05</ele>
        <time>2022-08-01T11:57:08Z</time>
      </trkpt>
      <trkpt lat="44.93009" lon="3.9657">
        <ele>958.09</ele>
        <time>2022-08-01T11:57:34Z</time>
      </trkpt>
      <trkpt lat="44.93009" lon="3.96572">
        <ele>958.09</ele>
        <time>2022-08-01T11:57:59Z</time>
      </trkpt>
      <trkpt lat="44.93009" lon="3.96569">
        <ele>958.09</ele>
        <time>2022-08-01T11:58:16Z</time>
      </trkpt>
      <trkpt lat="44.93002" lon="3.96573">
        <ele>958.57</ele>
        <time>2022-08-01T11:58:34Z</time>
      </trkpt>
      <trkpt lat="44.92996" lon="3.96567">
        <ele>958.09</ele>
        <time>2022-08-01T11:58:40Z</time>
      </trkpt>
      <trkpt lat="44.92976" lon="3.96555">
        <ele>954.25</ele>
        <time>2022-08-01T11:58:59Z</time>
      </trkpt>
      <trkpt lat="44.92956" lon="3.96539">
        <ele>952.32</ele>
        <time>2022-08-01T11:59:15Z</time>
      </trkpt>
      <trkpt lat="44.92932" lon="3.96529">
        <ele>951.36</ele>
        <time>2022-08-01T11:59:33Z</time>
      </trkpt>
      <trkpt lat="44.92911" lon="3.96534">
        <ele>948.96</ele>
        <time>2022-08-01T11:59:48Z</time>
      </trkpt>
      <trkpt lat="44.9289" lon="3.96533">
        <ele>946.56</ele>
        <time>2022-08-01T12:00:03Z</time>
      </trkpt>
      <trkpt lat="44.92871" lon="3.96521">
        <ele>945.11</ele>
        <time>2022-08-01T12:00:18Z</time>
      </trkpt>
      <trkpt lat="44.92856" lon="3.96499">
        <ele>944.15</ele>
        <time>2022-08-01T12:00:34Z</time>
      </trkpt>
      <trkpt lat="44.92843" lon="3.96471">
        <ele>942.23</ele>
        <time>2022-08-01T12:00:51Z</time>
      </trkpt>
      <trkpt lat="44.92831" lon="3.96444">
        <ele>939.35</ele>
        <time>2022-08-01T12:01:07Z</time>
      </trkpt>
      <trkpt lat="44.9282" lon="3.96416">
        <ele>935.98</ele>
        <time>2022-08-01T12:01:23Z</time>
      </trkpt>
      <trkpt lat="44.92808" lon="3.96392">
        <ele>932.14</ele>
        <time>2022-08-01T12:01:38Z</time>
      </trkpt>
      <trkpt lat="44.92791" lon="3.96373">
        <ele>929.73</ele>
        <time>2022-08-01T12:01:53Z</time>
      </trkpt>
      <trkpt lat="44.92772" lon="3.96359">
        <ele>930.69</ele>
        <time>2022-08-01T12:02:08Z</time>
      </trkpt>
      <trkpt lat="44.92758" lon="3.96343">
        <ele>931.65</ele>
        <time>2022-08-01T12:02:23Z</time>
      </trkpt>
      <trkpt lat="44.9275" lon="3.96326">
        <ele>935.02</ele>
        <time>2022-08-01T12:02:34Z</time>
      </trkpt>
      <trkpt lat="44.92749" lon="3.96318">
        <ele>936.94</ele>
        <time>2022-08-01T12:02:40Z</time>
      </trkpt>
      <trkpt lat="44.92733" lon="3.96303">
        <ele>937.9</ele>
        <time>2022-08-01T12:02:54Z</time>
      </trkpt>
      <trkpt lat="44.92713" lon="3.9629">
        <ele>937.9</ele>
        <time>2022-08-01T12:03:11Z</time>
      </trkpt>
      <trkpt lat="44.92702" lon="3.96284">
        <ele>938.38</ele>
        <time>2022-08-01T12:03:21Z</time>
      </trkpt>
      <trkpt lat="44.92693" lon="3.96283">
        <ele>939.35</ele>
        <time>2022-08-01T12:03:29Z</time>
      </trkpt>
      <trkpt lat="44.92684" lon="3.96267">
        <ele>941.27</ele>
        <time>2022-08-01T12:03:42Z</time>
      </trkpt>
      <trkpt lat="44.92676" lon="3.96246">
        <ele>944.15</ele>
        <time>2022-08-01T12:03:57Z</time>
      </trkpt>
      <trkpt lat="44.92674" lon="3.96242">
        <ele>945.11</ele>
        <time>2022-08-01T12:04:00Z</time>
      </trkpt>
      <trkpt lat="44.92673" lon="3.96237">
        <ele>945.59</ele>
        <time>2022-08-01T12:04:03Z</time>
      </trkpt>
      <trkpt lat="44.92669" lon="3.96229">
        <ele>947.04</ele>
        <time>2022-08-01T12:04:09Z</time>
      </trkpt>
      <trkpt lat="44.92656" lon="3.96216">
        <ele>950.88</ele>
        <time>2022-08-01T12:04:24Z</time>
      </trkpt>
      <trkpt lat="44.9264" lon="3.96205">
        <ele>954.25</ele>
        <time>2022-08-01T12:04:38Z</time>
      </trkpt>
      <trkpt lat="44.92629" lon="3.962">
        <ele>955.69</ele>
        <time>2022-08-01T12:04:48Z</time>
      </trkpt>
      <trkpt lat="44.92623" lon="3.96197">
        <ele>957.13</ele>
        <time>2022-08-01T12:04:54Z</time>
      </trkpt>
      <trkpt lat="44.92616" lon="3.9619">
        <ele>957.61</ele>
        <time>2022-08-01T12:05:04Z</time>
      </trkpt>
      <trkpt lat="44.92613" lon="3.96184">
        <ele>957.13</ele>
        <time>2022-08-01T12:05:09Z</time>
      </trkpt>
      <trkpt lat="44.92615" lon="3.96169">
        <ele>956.17</ele>
        <time>2022-08-01T12:05:21Z</time>
      </trkpt>
      <trkpt lat="44.92617" lon="3.96145">
        <ele>957.13</ele>
        <time>2022-08-01T12:05:36Z</time>
      </trkpt>
      <trkpt lat="44.92611" lon="3.96118">
        <ele>958.09</ele>
        <time>2022-08-01T12:05:51Z</time>
      </trkpt>
      <trkpt lat="44.92602" lon="3.96099">
        <ele>959.53</ele>
        <time>2022-08-01T12:06:05Z</time>
      </trkpt>
      <trkpt lat="44.926" lon="3.96096">
        <ele>959.53</ele>
        <time>2022-08-01T12:06:07Z</time>
      </trkpt>
      <trkpt lat="44.92591" lon="3.96069">
        <ele>960.01</ele>
        <time>2022-08-01T12:06:25Z</time>
      </trkpt>
      <trkpt lat="44.92578" lon="3.96047">
        <ele>961.46</ele>
        <time>2022-08-01T12:06:40Z</time>
      </trkpt>
      <trkpt lat="44.92565" lon="3.96025">
        <ele>960.98</ele>
        <time>2022-08-01T12:06:55Z</time>
      </trkpt>
      <trkpt lat="44.92558" lon="3.96015">
        <ele>961.46</ele>
        <time>2022-08-01T12:07:02Z</time>
      </trkpt>
      <trkpt lat="44.92542" lon="3.95986">
        <ele>960.01</ele>
        <time>2022-08-01T12:07:20Z</time>
      </trkpt>
      <trkpt lat="44.92536" lon="3.95957">
        <ele>956.65</ele>
        <time>2022-08-01T12:07:36Z</time>
      </trkpt>
      <trkpt lat="44.92526" lon="3.95938">
        <ele>952.32</ele>
        <time>2022-08-01T12:07:49Z</time>
      </trkpt>
      <trkpt lat="44.92527" lon="3.9591">
        <ele>950.88</ele>
        <time>2022-08-01T12:08:05Z</time>
      </trkpt>
      <trkpt lat="44.92535" lon="3.95884">
        <ele>952.8</ele>
        <time>2022-08-01T12:08:21Z</time>
      </trkpt>
      <trkpt lat="44.92536" lon="3.95873">
        <ele>953.28</ele>
        <time>2022-08-01T12:08:27Z</time>
      </trkpt>
      <trkpt lat="44.92536" lon="3.95861">
        <ele>954.25</ele>
        <time>2022-08-01T12:08:34Z</time>
      </trkpt>
      <trkpt lat="44.9253" lon="3.95844">
        <ele>955.21</ele>
        <time>2022-08-01T12:08:44Z</time>
      </trkpt>
      <trkpt lat="44.92517" lon="3.95822">
        <ele>957.13</ele>
        <time>2022-08-01T12:09:00Z</time>
      </trkpt>
      <trkpt lat="44.92509" lon="3.958">
        <ele>959.53</ele>
        <time>2022-08-01T12:09:14Z</time>
      </trkpt>
      <trkpt lat="44.92502" lon="3.95777">
        <ele>960.49</ele>
        <time>2022-08-01T12:09:29Z</time>
      </trkpt>
      <trkpt lat="44.9249" lon="3.95751">
        <ele>960.49</ele>
        <time>2022-08-01T12:09:46Z</time>
      </trkpt>
      <trkpt lat="44.9248" lon="3.95727">
        <ele>962.42</ele>
        <time>2022-08-01T12:10:02Z</time>
      </trkpt>
      <trkpt lat="44.9247" lon="3.95704">
        <ele>964.82</ele>
        <time>2022-08-01T12:10:18Z</time>
      </trkpt>
      <trkpt lat="44.92463" lon="3.95678">
        <ele>968.18</ele>
        <time>2022-08-01T12:10:33Z</time>
      </trkpt>
      <trkpt lat="44.92457" lon="3.95657">
        <ele>970.59</ele>
        <time>2022-08-01T12:10:46Z</time>
      </trkpt>
      <trkpt lat="44.92456" lon="3.95654">
        <ele>970.59</ele>
        <time>2022-08-01T12:10:48Z</time>
      </trkpt>
      <trkpt lat="44.92445" lon="3.95647">
        <ele>971.07</ele>
        <time>2022-08-01T12:10:58Z</time>
      </trkpt>
      <trkpt lat="44.92427" lon="3.95635">
        <ele>972.03</ele>
        <time>2022-08-01T12:11:14Z</time>
      </trkpt>
      <trkpt lat="44.92409" lon="3.95623">
        <ele>972.99</ele>
        <time>2022-08-01T12:11:29Z</time>
      </trkpt>
      <trkpt lat="44.92395" lon="3.95611">
        <ele>972.99</ele>
        <time>2022-08-01T12:11:42Z</time>
      </trkpt>
      <trkpt lat="44.92393" lon="3.95603">
        <ele>973.95</ele>
        <time>2022-08-01T12:11:47Z</time>
      </trkpt>
      <trkpt lat="44.92397" lon="3.95584">
        <ele>974.91</ele>
        <time>2022-08-01T12:11:58Z</time>
      </trkpt>
      <trkpt lat="44.92399" lon="3.95554">
        <ele>974.43</ele>
        <time>2022-08-01T12:12:15Z</time>
      </trkpt>
      <trkpt lat="44.92399" lon="3.95552">
        <ele>974.43</ele>
        <time>2022-08-01T12:12:16Z</time>
      </trkpt>
      <trkpt lat="44.92397" lon="3.9553">
        <ele>972.99</ele>
        <time>2022-08-01T12:12:28Z</time>
      </trkpt>
      <trkpt lat="44.92395" lon="3.95516">
        <ele>973.95</ele>
        <time>2022-08-01T12:12:43Z</time>
      </trkpt>
      <trkpt lat="44.92397" lon="3.95512">
        <ele>974.91</ele>
        <time>2022-08-01T12:13:01Z</time>
      </trkpt>
      <trkpt lat="44.92395" lon="3.95508">
        <ele>975.88</ele>
        <time>2022-08-01T12:13:19Z</time>
      </trkpt>
      <trkpt lat="44.92399" lon="3.95482">
        <ele>974.91</ele>
        <time>2022-08-01T12:13:34Z</time>
      </trkpt>
      <trkpt lat="44.92401" lon="3.95467">
        <ele>972.51</ele>
        <time>2022-08-01T12:13:45Z</time>
      </trkpt>
      <trkpt lat="44.92397" lon="3.95464">
        <ele>971.55</ele>
        <time>2022-08-01T12:13:58Z</time>
      </trkpt>
      <trkpt lat="44.92396" lon="3.95465">
        <ele>971.55</ele>
        <time>2022-08-01T12:14:14Z</time>
      </trkpt>
      <trkpt lat="44.92399" lon="3.95461">
        <ele>971.07</ele>
        <time>2022-08-01T12:14:18Z</time>
      </trkpt>
      <trkpt lat="44.92402" lon="3.95438">
        <ele>970.11</ele>
        <time>2022-08-01T12:14:31Z</time>
      </trkpt>
      <trkpt lat="44.92415" lon="3.95408">
        <ele>968.18</ele>
        <time>2022-08-01T12:14:49Z</time>
      </trkpt>
      <trkpt lat="44.92428" lon="3.95391">
        <ele>964.82</ele>
        <time>2022-08-01T12:15:02Z</time>
      </trkpt>
      <trkpt lat="44.92427" lon="3.95376">
        <ele>963.38</ele>
        <time>2022-08-01T12:15:10Z</time>
      </trkpt>
      <trkpt lat="44.92425" lon="3.95345">
        <ele>962.9</ele>
        <time>2022-08-01T12:15:26Z</time>
      </trkpt>
      <trkpt lat="44.92424" lon="3.95339">
        <ele>962.9</ele>
        <time>2022-08-01T12:15:29Z</time>
      </trkpt>
      <trkpt lat="44.92423" lon="3.95331">
        <ele>962.42</ele>
        <time>2022-08-01T12:15:33Z</time>
      </trkpt>
      <trkpt lat="44.92419" lon="3.95298">
        <ele>961.46</ele>
        <time>2022-08-01T12:15:50Z</time>
      </trkpt>
      <trkpt lat="44.92415" lon="3.95268">
        <ele>958.57</ele>
        <time>2022-08-01T12:16:06Z</time>
      </trkpt>
      <trkpt lat="44.92417" lon="3.95261">
        <ele>957.61</ele>
        <time>2022-08-01T12:16:18Z</time>
      </trkpt>
      <trkpt lat="44.92416" lon="3.95261">
        <ele>958.09</ele>
        <time>2022-08-01T12:16:45Z</time>
      </trkpt>
      <trkpt lat="44.92416" lon="3.95261">
        <ele>958.09</ele>
        <time>2022-08-01T12:17:14Z</time>
      </trkpt>
      <trkpt lat="44.92414" lon="3.9526">
        <ele>958.57</ele>
        <time>2022-08-01T12:17:38Z</time>
      </trkpt>
      <trkpt lat="44.92413" lon="3.95247">
        <ele>959.53</ele>
        <time>2022-08-01T12:17:57Z</time>
      </trkpt>
      <trkpt lat="44.92413" lon="3.95238">
        <ele>960.01</ele>
        <time>2022-08-01T12:18:02Z</time>
      </trkpt>
      <trkpt lat="44.92412" lon="3.95227">
        <ele>960.49</ele>
        <time>2022-08-01T12:18:14Z</time>
      </trkpt>
      <trkpt lat="44.92409" lon="3.95207">
        <ele>960.01</ele>
        <time>2022-08-01T12:18:30Z</time>
      </trkpt>
      <trkpt lat="44.92402" lon="3.95172">
        <ele>960.01</ele>
        <time>2022-08-01T12:18:48Z</time>
      </trkpt>
      <trkpt lat="44.92395" lon="3.95139">
        <ele>959.53</ele>
        <time>2022-08-01T12:19:06Z</time>
      </trkpt>
      <trkpt lat="44.9239" lon="3.95107">
        <ele>959.53</ele>
        <time>2022-08-01T12:19:23Z</time>
      </trkpt>
      <trkpt lat="44.92386" lon="3.95076">
        <ele>959.05</ele>
        <time>2022-08-01T12:19:39Z</time>
      </trkpt>
      <trkpt lat="44.92381" lon="3.95038">
        <ele>958.57</ele>
        <time>2022-08-01T12:19:58Z</time>
      </trkpt>
      <trkpt lat="44.92374" lon="3.95002">
        <ele>957.13</ele>
        <time>2022-08-01T12:20:17Z</time>
      </trkpt>
      <trkpt lat="44.92366" lon="3.94966">
        <ele>957.13</ele>
        <time>2022-08-01T12:20:36Z</time>
      </trkpt>
      <trkpt lat="44.92358" lon="3.94944">
        <ele>956.17</ele>
        <time>2022-08-01T12:20:52Z</time>
      </trkpt>
      <trkpt lat="44.92347" lon="3.94917">
        <ele>955.69</ele>
        <time>2022-08-01T12:21:09Z</time>
      </trkpt>
      <trkpt lat="44.92334" lon="3.94886">
        <ele>956.17</ele>
        <time>2022-08-01T12:21:27Z</time>
      </trkpt>
      <trkpt lat="44.92319" lon="3.9486">
        <ele>955.21</ele>
        <time>2022-08-01T12:21:44Z</time>
      </trkpt>
      <trkpt lat="44.92304" lon="3.94832">
        <ele>956.17</ele>
        <time>2022-08-01T12:22:03Z</time>
      </trkpt>
      <trkpt lat="44.92289" lon="3.9481">
        <ele>955.69</ele>
        <time>2022-08-01T12:22:19Z</time>
      </trkpt>
      <trkpt lat="44.92268" lon="3.94786">
        <ele>956.65</ele>
        <time>2022-08-01T12:22:39Z</time>
      </trkpt>
      <trkpt lat="44.92245" lon="3.94766">
        <ele>955.69</ele>
        <time>2022-08-01T12:22:58Z</time>
      </trkpt>
      <trkpt lat="44.92224" lon="3.94749">
        <ele>955.21</ele>
        <time>2022-08-01T12:23:15Z</time>
      </trkpt>
      <trkpt lat="44.92201" lon="3.94734">
        <ele>952.8</ele>
        <time>2022-08-01T12:23:32Z</time>
      </trkpt>
      <trkpt lat="44.92177" lon="3.94719">
        <ele>950.4</ele>
        <time>2022-08-01T12:23:50Z</time>
      </trkpt>
      <trkpt lat="44.92156" lon="3.94709">
        <ele>948.96</ele>
        <time>2022-08-01T12:24:06Z</time>
      </trkpt>
      <trkpt lat="44.92132" lon="3.94691">
        <ele>948.96</ele>
        <time>2022-08-01T12:24:26Z</time>
      </trkpt>
      <trkpt lat="44.92112" lon="3.94674">
        <ele>943.67</ele>
        <time>2022-08-01T12:24:44Z</time>
      </trkpt>
      <trkpt lat="44.92088" lon="3.94661">
        <ele>939.83</ele>
        <time>2022-08-01T12:25:03Z</time>
      </trkpt>
      <trkpt lat="44.92068" lon="3.94679">
        <ele>937.9</ele>
        <time>2022-08-01T12:25:20Z</time>
      </trkpt>
      <trkpt lat="44.92044" lon="3.94699">
        <ele>933.58</ele>
        <time>2022-08-01T12:25:39Z</time>
      </trkpt>
      <trkpt lat="44.92024" lon="3.94704">
        <ele>930.21</ele>
        <time>2022-08-01T12:25:55Z</time>
      </trkpt>
      <trkpt lat="44.92012" lon="3.94687">
        <ele>928.77</ele>
        <time>2022-08-01T12:26:10Z</time>
      </trkpt>
      <trkpt lat="44.92009" lon="3.9468">
        <ele>927.81</ele>
        <time>2022-08-01T12:26:15Z</time>
      </trkpt>
      <trkpt lat="44.92005" lon="3.94671">
        <ele>925.41</ele>
        <time>2022-08-01T12:26:20Z</time>
      </trkpt>
      <trkpt lat="44.92007" lon="3.94646">
        <ele>924.45</ele>
        <time>2022-08-01T12:26:32Z</time>
      </trkpt>
      <trkpt lat="44.92006" lon="3.9464">
        <ele>923.48</ele>
        <time>2022-08-01T12:26:36Z</time>
      </trkpt>
      <trkpt lat="44.92011" lon="3.9461">
        <ele>923.96</ele>
        <time>2022-08-01T12:26:53Z</time>
      </trkpt>
      <trkpt lat="44.92011" lon="3.94603">
        <ele>925.41</ele>
        <time>2022-08-01T12:26:57Z</time>
      </trkpt>
      <trkpt lat="44.92014" lon="3.9457">
        <ele>929.73</ele>
        <time>2022-08-01T12:27:15Z</time>
      </trkpt>
      <trkpt lat="44.92016" lon="3.94544">
        <ele>933.58</ele>
        <time>2022-08-01T12:27:31Z</time>
      </trkpt>
      <trkpt lat="44.92018" lon="3.94519">
        <ele>938.38</ele>
        <time>2022-08-01T12:27:47Z</time>
      </trkpt>
      <trkpt lat="44.92016" lon="3.94496">
        <ele>942.71</ele>
        <time>2022-08-01T12:28:03Z</time>
      </trkpt>
      <trkpt lat="44.92001" lon="3.94464">
        <ele>944.15</ele>
        <time>2022-08-01T12:28:22Z</time>
      </trkpt>
      <trkpt lat="44.91991" lon="3.94435">
        <ele>944.63</ele>
        <time>2022-08-01T12:28:38Z</time>
      </trkpt>
      <trkpt lat="44.91981" lon="3.944">
        <ele>944.15</ele>
        <time>2022-08-01T12:28:57Z</time>
      </trkpt>
      <trkpt lat="44.9197" lon="3.94367">
        <ele>944.63</ele>
        <time>2022-08-01T12:29:15Z</time>
      </trkpt>
      <trkpt lat="44.91957" lon="3.94339">
        <ele>943.19</ele>
        <time>2022-08-01T12:29:32Z</time>
      </trkpt>
      <trkpt lat="44.9194" lon="3.94314">
        <ele>941.75</ele>
        <time>2022-08-01T12:29:49Z</time>
      </trkpt>
      <trkpt lat="44.91922" lon="3.9429">
        <ele>943.19</ele>
        <time>2022-08-01T12:30:07Z</time>
      </trkpt>
      <trkpt lat="44.91905" lon="3.94268">
        <ele>945.11</ele>
        <time>2022-08-01T12:30:23Z</time>
      </trkpt>
      <trkpt lat="44.91895" lon="3.94253">
        <ele>948</ele>
        <time>2022-08-01T12:30:36Z</time>
      </trkpt>
      <trkpt lat="44.91893" lon="3.94247">
        <ele>948.48</ele>
        <time>2022-08-01T12:30:40Z</time>
      </trkpt>
      <trkpt lat="44.91886" lon="3.94246">
        <ele>948.96</ele>
        <time>2022-08-01T12:30:45Z</time>
      </trkpt>
      <trkpt lat="44.91872" lon="3.94241">
        <ele>946.56</ele>
        <time>2022-08-01T12:30:59Z</time>
      </trkpt>
      <trkpt lat="44.91863" lon="3.94219">
        <ele>945.11</ele>
        <time>2022-08-01T12:31:14Z</time>
      </trkpt>
      <trkpt lat="44.91862" lon="3.94202">
        <ele>943.19</ele>
        <time>2022-08-01T12:31:27Z</time>
      </trkpt>
      <trkpt lat="44.91854" lon="3.94172">
        <ele>940.79</ele>
        <time>2022-08-01T12:31:44Z</time>
      </trkpt>
      <trkpt lat="44.91856" lon="3.94147">
        <ele>942.23</ele>
        <time>2022-08-01T12:31:59Z</time>
      </trkpt>
      <trkpt lat="44.91856" lon="3.94136">
        <ele>943.67</ele>
        <time>2022-08-01T12:32:05Z</time>
      </trkpt>
      <trkpt lat="44.91852" lon="3.94111">
        <ele>948.48</ele>
        <time>2022-08-01T12:32:22Z</time>
      </trkpt>
      <trkpt lat="44.91836" lon="3.94099">
        <ele>947.04</ele>
        <time>2022-08-01T12:32:34Z</time>
      </trkpt>
      <trkpt lat="44.91824" lon="3.94087">
        <ele>947.52</ele>
        <time>2022-08-01T12:32:47Z</time>
      </trkpt>
      <trkpt lat="44.91838" lon="3.94064">
        <ele>949.44</ele>
        <time>2022-08-01T12:33:03Z</time>
      </trkpt>
      <trkpt lat="44.9185" lon="3.94034">
        <ele>946.56</ele>
        <time>2022-08-01T12:33:20Z</time>
      </trkpt>
      <trkpt lat="44.91863" lon="3.94004">
        <ele>944.15</ele>
        <time>2022-08-01T12:33:37Z</time>
      </trkpt>
      <trkpt lat="44.91856" lon="3.93975">
        <ele>945.59</ele>
        <time>2022-08-01T12:33:53Z</time>
      </trkpt>
      <trkpt lat="44.91829" lon="3.93959">
        <ele>946.07</ele>
        <time>2022-08-01T12:34:12Z</time>
      </trkpt>
      <trkpt lat="44.91805" lon="3.93958">
        <ele>946.56</ele>
        <time>2022-08-01T12:34:29Z</time>
      </trkpt>
      <trkpt lat="44.91784" lon="3.93948">
        <ele>947.04</ele>
        <time>2022-08-01T12:34:45Z</time>
      </trkpt>
      <trkpt lat="44.91778" lon="3.9394">
        <ele>946.56</ele>
        <time>2022-08-01T12:34:52Z</time>
      </trkpt>
      <trkpt lat="44.91773" lon="3.93928">
        <ele>947.04</ele>
        <time>2022-08-01T12:35:00Z</time>
      </trkpt>
      <trkpt lat="44.91758" lon="3.93901">
        <ele>947.04</ele>
        <time>2022-08-01T12:35:18Z</time>
      </trkpt>
      <trkpt lat="44.91741" lon="3.93874">
        <ele>947.52</ele>
        <time>2022-08-01T12:35:37Z</time>
      </trkpt>
      <trkpt lat="44.91722" lon="3.93854">
        <ele>947.04</ele>
        <time>2022-08-01T12:35:55Z</time>
      </trkpt>
      <trkpt lat="44.91699" lon="3.93859">
        <ele>946.56</ele>
        <time>2022-08-01T12:36:13Z</time>
      </trkpt>
      <trkpt lat="44.91674" lon="3.93864">
        <ele>947.52</ele>
        <time>2022-08-01T12:36:31Z</time>
      </trkpt>
      <trkpt lat="44.91652" lon="3.93867">
        <ele>948.48</ele>
        <time>2022-08-01T12:36:47Z</time>
      </trkpt>
      <trkpt lat="44.91625" lon="3.93869">
        <ele>949.44</ele>
        <time>2022-08-01T12:37:07Z</time>
      </trkpt>
      <trkpt lat="44.91602" lon="3.93874">
        <ele>949.92</ele>
        <time>2022-08-01T12:37:24Z</time>
      </trkpt>
      <trkpt lat="44.91581" lon="3.93879">
        <ele>950.4</ele>
        <time>2022-08-01T12:37:41Z</time>
      </trkpt>
      <trkpt lat="44.91558" lon="3.93877">
        <ele>951.84</ele>
        <time>2022-08-01T12:37:58Z</time>
      </trkpt>
      <trkpt lat="44.91535" lon="3.93871">
        <ele>954.25</ele>
        <time>2022-08-01T12:38:15Z</time>
      </trkpt>
      <trkpt lat="44.91515" lon="3.93865">
        <ele>955.21</ele>
        <time>2022-08-01T12:38:31Z</time>
      </trkpt>
      <trkpt lat="44.91493" lon="3.93859">
        <ele>955.69</ele>
        <time>2022-08-01T12:38:47Z</time>
      </trkpt>
      <trkpt lat="44.91471" lon="3.93852">
        <ele>953.77</ele>
        <time>2022-08-01T12:39:04Z</time>
      </trkpt>
      <trkpt lat="44.9145" lon="3.93841">
        <ele>952.32</ele>
        <time>2022-08-01T12:39:22Z</time>
      </trkpt>
      <trkpt lat="44.91429" lon="3.93827">
        <ele>951.84</ele>
        <time>2022-08-01T12:39:38Z</time>
      </trkpt>
      <trkpt lat="44.91408" lon="3.93814">
        <ele>953.28</ele>
        <time>2022-08-01T12:39:56Z</time>
      </trkpt>
      <trkpt lat="44.91389" lon="3.93804">
        <ele>954.73</ele>
        <time>2022-08-01T12:40:11Z</time>
      </trkpt>
      <trkpt lat="44.91366" lon="3.93796">
        <ele>958.09</ele>
        <time>2022-08-01T12:40:30Z</time>
      </trkpt>
      <trkpt lat="44.91343" lon="3.93792">
        <ele>958.09</ele>
        <time>2022-08-01T12:40:47Z</time>
      </trkpt>
      <trkpt lat="44.91321" lon="3.93785">
        <ele>959.05</ele>
        <time>2022-08-01T12:41:04Z</time>
      </trkpt>
      <trkpt lat="44.91302" lon="3.93773">
        <ele>959.53</ele>
        <time>2022-08-01T12:41:21Z</time>
      </trkpt>
      <trkpt lat="44.91298" lon="3.93769">
        <ele>960.01</ele>
        <time>2022-08-01T12:41:25Z</time>
      </trkpt>
      <trkpt lat="44.91285" lon="3.93762">
        <ele>961.46</ele>
        <time>2022-08-01T12:41:36Z</time>
      </trkpt>
      <trkpt lat="44.91265" lon="3.9376">
        <ele>963.38</ele>
        <time>2022-08-01T12:41:51Z</time>
      </trkpt>
      <trkpt lat="44.91243" lon="3.93758">
        <ele>965.3</ele>
        <time>2022-08-01T12:42:07Z</time>
      </trkpt>
      <trkpt lat="44.91223" lon="3.93757">
        <ele>967.7</ele>
        <time>2022-08-01T12:42:22Z</time>
      </trkpt>
      <trkpt lat="44.91204" lon="3.93758">
        <ele>968.67</ele>
        <time>2022-08-01T12:42:37Z</time>
      </trkpt>
      <trkpt lat="44.91184" lon="3.93755">
        <ele>970.11</ele>
        <time>2022-08-01T12:42:54Z</time>
      </trkpt>
      <trkpt lat="44.91166" lon="3.93748">
        <ele>972.51</ele>
        <time>2022-08-01T12:43:09Z</time>
      </trkpt>
      <trkpt lat="44.91149" lon="3.93735">
        <ele>972.99</ele>
        <time>2022-08-01T12:43:24Z</time>
      </trkpt>
      <trkpt lat="44.91131" lon="3.93717">
        <ele>974.91</ele>
        <time>2022-08-01T12:43:42Z</time>
      </trkpt>
      <trkpt lat="44.91117" lon="3.937">
        <ele>977.32</ele>
        <time>2022-08-01T12:43:58Z</time>
      </trkpt>
      <trkpt lat="44.911" lon="3.9369">
        <ele>977.8</ele>
        <time>2022-08-01T12:44:13Z</time>
      </trkpt>
      <trkpt lat="44.91082" lon="3.93683">
        <ele>978.76</ele>
        <time>2022-08-01T12:44:27Z</time>
      </trkpt>
      <trkpt lat="44.91061" lon="3.93677">
        <ele>979.72</ele>
        <time>2022-08-01T12:44:44Z</time>
      </trkpt>
      <trkpt lat="44.91043" lon="3.93669">
        <ele>981.16</ele>
        <time>2022-08-01T12:44:58Z</time>
      </trkpt>
      <trkpt lat="44.91027" lon="3.93658">
        <ele>985.01</ele>
        <time>2022-08-01T12:45:13Z</time>
      </trkpt>
      <trkpt lat="44.91008" lon="3.93643">
        <ele>985.49</ele>
        <time>2022-08-01T12:45:29Z</time>
      </trkpt>
      <trkpt lat="44.90993" lon="3.93634">
        <ele>987.89</ele>
        <time>2022-08-01T12:45:42Z</time>
      </trkpt>
      <trkpt lat="44.90979" lon="3.93625">
        <ele>991.74</ele>
        <time>2022-08-01T12:45:58Z</time>
      </trkpt>
      <trkpt lat="44.90964" lon="3.93615">
        <ele>994.14</ele>
        <time>2022-08-01T12:46:12Z</time>
      </trkpt>
      <trkpt lat="44.90944" lon="3.93606">
        <ele>994.62</ele>
        <time>2022-08-01T12:46:28Z</time>
      </trkpt>
      <trkpt lat="44.9093" lon="3.93602">
        <ele>994.14</ele>
        <time>2022-08-01T12:46:42Z</time>
      </trkpt>
      <trkpt lat="44.90927" lon="3.93601">
        <ele>994.62</ele>
        <time>2022-08-01T12:46:45Z</time>
      </trkpt>
      <trkpt lat="44.90905" lon="3.93593">
        <ele>996.06</ele>
        <time>2022-08-01T12:47:05Z</time>
      </trkpt>
      <trkpt lat="44.90887" lon="3.93596">
        <ele>997.51</ele>
        <time>2022-08-01T12:47:22Z</time>
      </trkpt>
      <trkpt lat="44.90867" lon="3.93596">
        <ele>999.43</ele>
        <time>2022-08-01T12:47:39Z</time>
      </trkpt>
      <trkpt lat="44.90847" lon="3.93587">
        <ele>1001.83</ele>
        <time>2022-08-01T12:47:55Z</time>
      </trkpt>
      <trkpt lat="44.90828" lon="3.93577">
        <ele>1002.79</ele>
        <time>2022-08-01T12:48:12Z</time>
      </trkpt>
      <trkpt lat="44.90806" lon="3.93564">
        <ele>1003.75</ele>
        <time>2022-08-01T12:48:30Z</time>
      </trkpt>
      <trkpt lat="44.908" lon="3.93563">
        <ele>1004.72</ele>
        <time>2022-08-01T12:48:36Z</time>
      </trkpt>
      <trkpt lat="44.9079" lon="3.93566">
        <ele>1006.64</ele>
        <time>2022-08-01T12:48:52Z</time>
      </trkpt>
      <trkpt lat="44.90791" lon="3.93564">
        <ele>1007.12</ele>
        <time>2022-08-01T12:49:07Z</time>
      </trkpt>
      <trkpt lat="44.90788" lon="3.93569">
        <ele>1003.75</ele>
        <time>2022-08-01T12:49:43Z</time>
      </trkpt>
      <trkpt lat="44.90789" lon="3.93574">
        <ele>999.43</ele>
        <time>2022-08-01T12:50:25Z</time>
      </trkpt>
      <trkpt lat="44.90787" lon="3.93568">
        <ele>1000.87</ele>
        <time>2022-08-01T12:50:52Z</time>
      </trkpt>
      <trkpt lat="44.90789" lon="3.93567">
        <ele>1001.83</ele>
        <time>2022-08-01T12:51:07Z</time>
      </trkpt>
      <trkpt lat="44.9079" lon="3.93569">
        <ele>1005.68</ele>
        <time>2022-08-01T12:51:32Z</time>
      </trkpt>
      <trkpt lat="44.90793" lon="3.9357">
        <ele>1010</ele>
        <time>2022-08-01T12:52:13Z</time>
      </trkpt>
      <trkpt lat="44.90791" lon="3.93572">
        <ele>1007.6</ele>
        <time>2022-08-01T12:52:52Z</time>
      </trkpt>
      <trkpt lat="44.90792" lon="3.93571">
        <ele>1007.12</ele>
        <time>2022-08-01T12:53:24Z</time>
      </trkpt>
      <trkpt lat="44.90795" lon="3.93569">
        <ele>1007.12</ele>
        <time>2022-08-01T12:54:07Z</time>
      </trkpt>
      <trkpt lat="44.90795" lon="3.93568">
        <ele>1007.12</ele>
        <time>2022-08-01T12:54:45Z</time>
      </trkpt>
      <trkpt lat="44.90791" lon="3.93566">
        <ele>1006.16</ele>
        <time>2022-08-01T12:55:09Z</time>
      </trkpt>
      <trkpt lat="44.90791" lon="3.93566">
        <ele>1005.2</ele>
        <time>2022-08-01T12:55:27Z</time>
      </trkpt>
      <trkpt lat="44.90794" lon="3.9357">
        <ele>1004.23</ele>
        <time>2022-08-01T12:55:54Z</time>
      </trkpt>
      <trkpt lat="44.90783" lon="3.93565">
        <ele>1006.16</ele>
        <time>2022-08-01T12:56:07Z</time>
      </trkpt>
      <trkpt lat="44.90766" lon="3.93565">
        <ele>1009.52</ele>
        <time>2022-08-01T12:56:24Z</time>
      </trkpt>
      <trkpt lat="44.90752" lon="3.93566">
        <ele>1010.96</ele>
        <time>2022-08-01T12:56:39Z</time>
      </trkpt>
      <trkpt lat="44.90744" lon="3.93566">
        <ele>1010.48</ele>
        <time>2022-08-01T12:56:52Z</time>
      </trkpt>
      <trkpt lat="44.90724" lon="3.93569">
        <ele>1012.41</ele>
        <time>2022-08-01T12:57:08Z</time>
      </trkpt>
      <trkpt lat="44.90719" lon="3.9357">
        <ele>1012.89</ele>
        <time>2022-08-01T12:57:12Z</time>
      </trkpt>
      <trkpt lat="44.90704" lon="3.93577">
        <ele>1014.33</ele>
        <time>2022-08-01T12:57:24Z</time>
      </trkpt>
      <trkpt lat="44.9069" lon="3.93584">
        <ele>1017.21</ele>
        <time>2022-08-01T12:57:36Z</time>
      </trkpt>
      <trkpt lat="44.90669" lon="3.93583">
        <ele>1016.73</ele>
        <time>2022-08-01T12:57:53Z</time>
      </trkpt>
      <trkpt lat="44.90647" lon="3.93579">
        <ele>1015.77</ele>
        <time>2022-08-01T12:58:10Z</time>
      </trkpt>
      <trkpt lat="44.90626" lon="3.93578">
        <ele>1015.77</ele>
        <time>2022-08-01T12:58:26Z</time>
      </trkpt>
      <trkpt lat="44.9061" lon="3.93575">
        <ele>1015.77</ele>
        <time>2022-08-01T12:58:39Z</time>
      </trkpt>
      <trkpt lat="44.90591" lon="3.93575">
        <ele>1015.77</ele>
        <time>2022-08-01T12:58:53Z</time>
      </trkpt>
      <trkpt lat="44.9058" lon="3.93561">
        <ele>1012.89</ele>
        <time>2022-08-01T12:59:07Z</time>
      </trkpt>
      <trkpt lat="44.90578" lon="3.93554">
        <ele>1010</ele>
        <time>2022-08-01T12:59:13Z</time>
      </trkpt>
      <trkpt lat="44.90572" lon="3.93526">
        <ele>1007.6</ele>
        <time>2022-08-01T12:59:29Z</time>
      </trkpt>
      <trkpt lat="44.90571" lon="3.93524">
        <ele>1007.6</ele>
        <time>2022-08-01T12:59:30Z</time>
      </trkpt>
      <trkpt lat="44.90563" lon="3.93519">
        <ele>1008.56</ele>
        <time>2022-08-01T12:59:37Z</time>
      </trkpt>
      <trkpt lat="44.90554" lon="3.93488">
        <ele>1006.16</ele>
        <time>2022-08-01T12:59:54Z</time>
      </trkpt>
      <trkpt lat="44.90556" lon="3.93465">
        <ele>1005.2</ele>
        <time>2022-08-01T13:00:08Z</time>
      </trkpt>
      <trkpt lat="44.90554" lon="3.93458">
        <ele>1005.2</ele>
        <time>2022-08-01T13:00:12Z</time>
      </trkpt>
      <trkpt lat="44.90547" lon="3.93453">
        <ele>1004.72</ele>
        <time>2022-08-01T13:00:18Z</time>
      </trkpt>
      <trkpt lat="44.90541" lon="3.9345">
        <ele>1004.72</ele>
        <time>2022-08-01T13:00:22Z</time>
      </trkpt>
      <trkpt lat="44.90534" lon="3.93451">
        <ele>1003.75</ele>
        <time>2022-08-01T13:00:28Z</time>
      </trkpt>
      <trkpt lat="44.90529" lon="3.93452">
        <ele>1002.31</ele>
        <time>2022-08-01T13:00:33Z</time>
      </trkpt>
      <trkpt lat="44.90525" lon="3.9345">
        <ele>1001.83</ele>
        <time>2022-08-01T13:00:38Z</time>
      </trkpt>
      <trkpt lat="44.90516" lon="3.93444">
        <ele>1001.83</ele>
        <time>2022-08-01T13:00:47Z</time>
      </trkpt>
      <trkpt lat="44.90503" lon="3.93425">
        <ele>1001.35</ele>
        <time>2022-08-01T13:01:01Z</time>
      </trkpt>
      <trkpt lat="44.90502" lon="3.9342">
        <ele>1001.83</ele>
        <time>2022-08-01T13:01:05Z</time>
      </trkpt>
      <trkpt lat="44.90483" lon="3.93404">
        <ele>997.99</ele>
        <time>2022-08-01T13:01:20Z</time>
      </trkpt>
      <trkpt lat="44.9048" lon="3.93398">
        <ele>996.54</ele>
        <time>2022-08-01T13:01:24Z</time>
      </trkpt>
      <trkpt lat="44.90469" lon="3.93366">
        <ele>994.14</ele>
        <time>2022-08-01T13:01:42Z</time>
      </trkpt>
      <trkpt lat="44.90464" lon="3.93352">
        <ele>992.22</ele>
        <time>2022-08-01T13:01:56Z</time>
      </trkpt>
      <trkpt lat="44.90463" lon="3.93348">
        <ele>992.22</ele>
        <time>2022-08-01T13:01:58Z</time>
      </trkpt>
      <trkpt lat="44.90461" lon="3.93341">
        <ele>992.22</ele>
        <time>2022-08-01T13:02:02Z</time>
      </trkpt>
      <trkpt lat="44.90447" lon="3.93325">
        <ele>991.74</ele>
        <time>2022-08-01T13:02:17Z</time>
      </trkpt>
      <trkpt lat="44.90429" lon="3.93311">
        <ele>994.14</ele>
        <time>2022-08-01T13:02:33Z</time>
      </trkpt>
      <trkpt lat="44.90411" lon="3.93301">
        <ele>995.58</ele>
        <time>2022-08-01T13:02:49Z</time>
      </trkpt>
      <trkpt lat="44.90392" lon="3.93292">
        <ele>997.51</ele>
        <time>2022-08-01T13:03:06Z</time>
      </trkpt>
      <trkpt lat="44.90381" lon="3.93279">
        <ele>999.43</ele>
        <time>2022-08-01T13:03:20Z</time>
      </trkpt>
      <trkpt lat="44.90368" lon="3.93259">
        <ele>1001.83</ele>
        <time>2022-08-01T13:03:35Z</time>
      </trkpt>
      <trkpt lat="44.90365" lon="3.93255">
        <ele>1002.79</ele>
        <time>2022-08-01T13:03:38Z</time>
      </trkpt>
      <trkpt lat="44.90355" lon="3.93231">
        <ele>1003.27</ele>
        <time>2022-08-01T13:03:54Z</time>
      </trkpt>
      <trkpt lat="44.90339" lon="3.93209">
        <ele>1004.23</ele>
        <time>2022-08-01T13:04:09Z</time>
      </trkpt>
      <trkpt lat="44.90317" lon="3.93188">
        <ele>1002.31</ele>
        <time>2022-08-01T13:04:26Z</time>
      </trkpt>
      <trkpt lat="44.90311" lon="3.93183">
        <ele>1002.31</ele>
        <time>2022-08-01T13:04:31Z</time>
      </trkpt>
      <trkpt lat="44.90293" lon="3.93167">
        <ele>1000.87</ele>
        <time>2022-08-01T13:04:46Z</time>
      </trkpt>
      <trkpt lat="44.90272" lon="3.93151">
        <ele>1000.39</ele>
        <time>2022-08-01T13:05:03Z</time>
      </trkpt>
      <trkpt lat="44.90257" lon="3.93141">
        <ele>999.91</ele>
        <time>2022-08-01T13:05:16Z</time>
      </trkpt>
      <trkpt lat="44.90236" lon="3.93144">
        <ele>1003.75</ele>
        <time>2022-08-01T13:05:34Z</time>
      </trkpt>
      <trkpt lat="44.90213" lon="3.93147">
        <ele>1005.68</ele>
        <time>2022-08-01T13:05:52Z</time>
      </trkpt>
      <trkpt lat="44.90193" lon="3.93144">
        <ele>1007.12</ele>
        <time>2022-08-01T13:06:08Z</time>
      </trkpt>
      <trkpt lat="44.90174" lon="3.93138">
        <ele>1007.6</ele>
        <time>2022-08-01T13:06:23Z</time>
      </trkpt>
      <trkpt lat="44.90152" lon="3.93129">
        <ele>1005.68</ele>
        <time>2022-08-01T13:06:40Z</time>
      </trkpt>
      <trkpt lat="44.90132" lon="3.9312">
        <ele>1002.31</ele>
        <time>2022-08-01T13:06:57Z</time>
      </trkpt>
      <trkpt lat="44.9011" lon="3.93106">
        <ele>1001.35</ele>
        <time>2022-08-01T13:07:15Z</time>
      </trkpt>
      <trkpt lat="44.90091" lon="3.93095">
        <ele>1002.31</ele>
        <time>2022-08-01T13:07:31Z</time>
      </trkpt>
      <trkpt lat="44.90069" lon="3.93088">
        <ele>1002.79</ele>
        <time>2022-08-01T13:07:48Z</time>
      </trkpt>
      <trkpt lat="44.90055" lon="3.93086">
        <ele>1003.75</ele>
        <time>2022-08-01T13:08:02Z</time>
      </trkpt>
      <trkpt lat="44.90041" lon="3.93086">
        <ele>1005.2</ele>
        <time>2022-08-01T13:08:14Z</time>
      </trkpt>
      <trkpt lat="44.90026" lon="3.93087">
        <ele>1006.64</ele>
        <time>2022-08-01T13:08:27Z</time>
      </trkpt>
      <trkpt lat="44.90021" lon="3.93088">
        <ele>1006.64</ele>
        <time>2022-08-01T13:08:32Z</time>
      </trkpt>
      <trkpt lat="44.90002" lon="3.93092">
        <ele>1008.08</ele>
        <time>2022-08-01T13:08:48Z</time>
      </trkpt>
      <trkpt lat="44.89992" lon="3.93095">
        <ele>1008.08</ele>
        <time>2022-08-01T13:08:56Z</time>
      </trkpt>
      <trkpt lat="44.89973" lon="3.93097">
        <ele>1008.56</ele>
        <time>2022-08-01T13:09:11Z</time>
      </trkpt>
      <trkpt lat="44.89958" lon="3.93102">
        <ele>1009.04</ele>
        <time>2022-08-01T13:09:23Z</time>
      </trkpt>
      <trkpt lat="44.89937" lon="3.93108">
        <ele>1009.52</ele>
        <time>2022-08-01T13:09:40Z</time>
      </trkpt>
      <trkpt lat="44.89915" lon="3.93115">
        <ele>1010</ele>
        <time>2022-08-01T13:09:57Z</time>
      </trkpt>
      <trkpt lat="44.89896" lon="3.93117">
        <ele>1009.04</ele>
        <time>2022-08-01T13:10:12Z</time>
      </trkpt>
      <trkpt lat="44.89877" lon="3.93113">
        <ele>1008.08</ele>
        <time>2022-08-01T13:10:27Z</time>
      </trkpt>
      <trkpt lat="44.89857" lon="3.93111">
        <ele>1007.12</ele>
        <time>2022-08-01T13:10:42Z</time>
      </trkpt>
      <trkpt lat="44.89835" lon="3.93111">
        <ele>1005.68</ele>
        <time>2022-08-01T13:10:59Z</time>
      </trkpt>
      <trkpt lat="44.89814" lon="3.93112">
        <ele>1004.23</ele>
        <time>2022-08-01T13:11:15Z</time>
      </trkpt>
      <trkpt lat="44.89793" lon="3.93112">
        <ele>1003.75</ele>
        <time>2022-08-01T13:11:31Z</time>
      </trkpt>
      <trkpt lat="44.89775" lon="3.93115">
        <ele>1002.31</ele>
        <time>2022-08-01T13:11:45Z</time>
      </trkpt>
      <trkpt lat="44.89754" lon="3.93121">
        <ele>1000.87</ele>
        <time>2022-08-01T13:12:02Z</time>
      </trkpt>
      <trkpt lat="44.89731" lon="3.93124">
        <ele>999.91</ele>
        <time>2022-08-01T13:12:19Z</time>
      </trkpt>
      <trkpt lat="44.8971" lon="3.93128">
        <ele>998.95</ele>
        <time>2022-08-01T13:12:35Z</time>
      </trkpt>
      <trkpt lat="44.8969" lon="3.93133">
        <ele>997.02</ele>
        <time>2022-08-01T13:12:51Z</time>
      </trkpt>
      <trkpt lat="44.89666" lon="3.93136">
        <ele>996.06</ele>
        <time>2022-08-01T13:13:09Z</time>
      </trkpt>
      <trkpt lat="44.89645" lon="3.93138">
        <ele>996.06</ele>
        <time>2022-08-01T13:13:24Z</time>
      </trkpt>
      <trkpt lat="44.89624" lon="3.93141">
        <ele>995.58</ele>
        <time>2022-08-01T13:13:40Z</time>
      </trkpt>
      <trkpt lat="44.89605" lon="3.93145">
        <ele>995.1</ele>
        <time>2022-08-01T13:13:55Z</time>
      </trkpt>
      <trkpt lat="44.89579" lon="3.93148">
        <ele>995.1</ele>
        <time>2022-08-01T13:14:14Z</time>
      </trkpt>
      <trkpt lat="44.89556" lon="3.93152">
        <ele>995.1</ele>
        <time>2022-08-01T13:14:31Z</time>
      </trkpt>
      <trkpt lat="44.89533" lon="3.9315">
        <ele>993.18</ele>
        <time>2022-08-01T13:14:48Z</time>
      </trkpt>
      <trkpt lat="44.89513" lon="3.93143">
        <ele>992.7</ele>
        <time>2022-08-01T13:15:03Z</time>
      </trkpt>
      <trkpt lat="44.89498" lon="3.9313">
        <ele>989.81</ele>
        <time>2022-08-01T13:15:18Z</time>
      </trkpt>
      <trkpt lat="44.89481" lon="3.93112">
        <ele>986.93</ele>
        <time>2022-08-01T13:15:34Z</time>
      </trkpt>
      <trkpt lat="44.89461" lon="3.93096">
        <ele>984.05</ele>
        <time>2022-08-01T13:15:51Z</time>
      </trkpt>
      <trkpt lat="44.89458" lon="3.93094">
        <ele>983.57</ele>
        <time>2022-08-01T13:15:54Z</time>
      </trkpt>
      <trkpt lat="44.89441" lon="3.93084">
        <ele>979.72</ele>
        <time>2022-08-01T13:16:09Z</time>
      </trkpt>
      <trkpt lat="44.89438" lon="3.93082">
        <ele>979.24</ele>
        <time>2022-08-01T13:16:11Z</time>
      </trkpt>
      <trkpt lat="44.89422" lon="3.9306">
        <ele>977.8</ele>
        <time>2022-08-01T13:16:27Z</time>
      </trkpt>
      <trkpt lat="44.89414" lon="3.9303">
        <ele>977.32</ele>
        <time>2022-08-01T13:16:43Z</time>
      </trkpt>
      <trkpt lat="44.89414" lon="3.93021">
        <ele>976.84</ele>
        <time>2022-08-01T13:16:47Z</time>
      </trkpt>
      <trkpt lat="44.89418" lon="3.93008">
        <ele>978.28</ele>
        <time>2022-08-01T13:16:54Z</time>
      </trkpt>
      <trkpt lat="44.89429" lon="3.92986">
        <ele>977.8</ele>
        <time>2022-08-01T13:17:09Z</time>
      </trkpt>
      <trkpt lat="44.89431" lon="3.92982">
        <ele>977.32</ele>
        <time>2022-08-01T13:17:12Z</time>
      </trkpt>
      <trkpt lat="44.89429" lon="3.92963">
        <ele>974.91</ele>
        <time>2022-08-01T13:17:23Z</time>
      </trkpt>
      <trkpt lat="44.89406" lon="3.92939">
        <ele>972.51</ele>
        <time>2022-08-01T13:17:42Z</time>
      </trkpt>
      <trkpt lat="44.8939" lon="3.92919">
        <ele>973.47</ele>
        <time>2022-08-01T13:17:57Z</time>
      </trkpt>
      <trkpt lat="44.89367" lon="3.92903">
        <ele>970.59</ele>
        <time>2022-08-01T13:18:13Z</time>
      </trkpt>
      <trkpt lat="44.8936" lon="3.929">
        <ele>969.63</ele>
        <time>2022-08-01T13:18:18Z</time>
      </trkpt>
      <trkpt lat="44.89359" lon="3.92891">
        <ele>967.7</ele>
        <time>2022-08-01T13:18:25Z</time>
      </trkpt>
      <trkpt lat="44.89355" lon="3.92868">
        <ele>963.86</ele>
        <time>2022-08-01T13:18:41Z</time>
      </trkpt>
      <trkpt lat="44.89352" lon="3.92853">
        <ele>960.98</ele>
        <time>2022-08-01T13:18:50Z</time>
      </trkpt>
      <trkpt lat="44.89349" lon="3.92826">
        <ele>959.05</ele>
        <time>2022-08-01T13:19:07Z</time>
      </trkpt>
      <trkpt lat="44.89348" lon="3.92813">
        <ele>959.05</ele>
        <time>2022-08-01T13:19:21Z</time>
      </trkpt>
      <trkpt lat="44.89347" lon="3.92789">
        <ele>958.09</ele>
        <time>2022-08-01T13:19:34Z</time>
      </trkpt>
      <trkpt lat="44.89353" lon="3.92768">
        <ele>955.69</ele>
        <time>2022-08-01T13:19:48Z</time>
      </trkpt>
      <trkpt lat="44.89361" lon="3.92745">
        <ele>951.84</ele>
        <time>2022-08-01T13:20:05Z</time>
      </trkpt>
      <trkpt lat="44.89366" lon="3.92735">
        <ele>949.44</ele>
        <time>2022-08-01T13:20:14Z</time>
      </trkpt>
      <trkpt lat="44.89367" lon="3.92733">
        <ele>947.04</ele>
        <time>2022-08-01T13:20:31Z</time>
      </trkpt>
      <trkpt lat="44.89364" lon="3.92732">
        <ele>944.63</ele>
        <time>2022-08-01T13:20:54Z</time>
      </trkpt>
      <trkpt lat="44.89365" lon="3.9272">
        <ele>946.07</ele>
        <time>2022-08-01T13:21:10Z</time>
      </trkpt>
      <trkpt lat="44.89365" lon="3.92699">
        <ele>944.63</ele>
        <time>2022-08-01T13:21:27Z</time>
      </trkpt>
      <trkpt lat="44.89362" lon="3.92685">
        <ele>940.79</ele>
        <time>2022-08-01T13:21:39Z</time>
      </trkpt>
      <trkpt lat="44.8936" lon="3.92668">
        <ele>942.23</ele>
        <time>2022-08-01T13:21:53Z</time>
      </trkpt>
      <trkpt lat="44.89359" lon="3.92658">
        <ele>944.15</ele>
        <time>2022-08-01T13:22:16Z</time>
      </trkpt>
      <trkpt lat="44.89358" lon="3.92653">
        <ele>943.19</ele>
        <time>2022-08-01T13:22:31Z</time>
      </trkpt>
      <trkpt lat="44.89351" lon="3.9264">
        <ele>938.86</ele>
        <time>2022-08-01T13:22:46Z</time>
      </trkpt>
      <trkpt lat="44.89351" lon="3.92627">
        <ele>935.02</ele>
        <time>2022-08-01T13:23:00Z</time>
      </trkpt>
      <trkpt lat="44.89349" lon="3.92622">
        <ele>933.58</ele>
        <time>2022-08-01T13:23:06Z</time>
      </trkpt>
      <trkpt lat="44.89349" lon="3.9261">
        <ele>930.69</ele>
        <time>2022-08-01T13:23:16Z</time>
      </trkpt>
      <trkpt lat="44.89357" lon="3.92591">
        <ele>925.89</ele>
        <time>2022-08-01T13:23:34Z</time>
      </trkpt>
      <trkpt lat="44.89354" lon="3.92581">
        <ele>921.56</ele>
        <time>2022-08-01T13:23:46Z</time>
      </trkpt>
      <trkpt lat="44.89354" lon="3.92578">
        <ele>920.6</ele>
        <time>2022-08-01T13:23:48Z</time>
      </trkpt>
      <trkpt lat="44.8935" lon="3.92568">
        <ele>917.72</ele>
        <time>2022-08-01T13:23:56Z</time>
      </trkpt>
      <trkpt lat="44.89344" lon="3.92553">
        <ele>913.87</ele>
        <time>2022-08-01T13:24:10Z</time>
      </trkpt>
      <trkpt lat="44.89337" lon="3.92534">
        <ele>910.99</ele>
        <time>2022-08-01T13:24:23Z</time>
      </trkpt>
      <trkpt lat="44.89331" lon="3.92509">
        <ele>910.03</ele>
        <time>2022-08-01T13:24:36Z</time>
      </trkpt>
      <trkpt lat="44.89338" lon="3.92482">
        <ele>904.74</ele>
        <time>2022-08-01T13:24:55Z</time>
      </trkpt>
      <trkpt lat="44.89339" lon="3.92481">
        <ele>904.74</ele>
        <time>2022-08-01T13:24:56Z</time>
      </trkpt>
      <trkpt lat="44.89339" lon="3.92478">
        <ele>904.26</ele>
        <time>2022-08-01T13:24:58Z</time>
      </trkpt>
      <trkpt lat="44.8934" lon="3.92467">
        <ele>902.33</ele>
        <time>2022-08-01T13:25:06Z</time>
      </trkpt>
      <trkpt lat="44.89343" lon="3.92448">
        <ele>898.01</ele>
        <time>2022-08-01T13:25:21Z</time>
      </trkpt>
      <trkpt lat="44.89347" lon="3.92436">
        <ele>895.61</ele>
        <time>2022-08-01T13:25:40Z</time>
      </trkpt>
      <trkpt lat="44.89347" lon="3.92436">
        <ele>896.57</ele>
        <time>2022-08-01T13:25:59Z</time>
      </trkpt>
      <trkpt lat="44.89345" lon="3.92439">
        <ele>897.05</ele>
        <time>2022-08-01T13:26:30Z</time>
      </trkpt>
      <trkpt lat="44.89347" lon="3.92433">
        <ele>897.53</ele>
        <time>2022-08-01T13:26:56Z</time>
      </trkpt>
      <trkpt lat="44.8935" lon="3.92415">
        <ele>896.09</ele>
        <time>2022-08-01T13:27:08Z</time>
      </trkpt>
      <trkpt lat="44.89351" lon="3.92409">
        <ele>896.57</ele>
        <time>2022-08-01T13:27:11Z</time>
      </trkpt>
      <trkpt lat="44.89347" lon="3.92398">
        <ele>892.24</ele>
        <time>2022-08-01T13:27:26Z</time>
      </trkpt>
      <trkpt lat="44.8935" lon="3.92384">
        <ele>888.4</ele>
        <time>2022-08-01T13:27:42Z</time>
      </trkpt>
      <trkpt lat="44.89352" lon="3.92371">
        <ele>886.47</ele>
        <time>2022-08-01T13:27:53Z</time>
      </trkpt>
      <trkpt lat="44.89353" lon="3.92351">
        <ele>881.19</ele>
        <time>2022-08-01T13:28:09Z</time>
      </trkpt>
      <trkpt lat="44.89355" lon="3.92333">
        <ele>875.9</ele>
        <time>2022-08-01T13:28:23Z</time>
      </trkpt>
      <trkpt lat="44.89356" lon="3.92329">
        <ele>874.46</ele>
        <time>2022-08-01T13:28:26Z</time>
      </trkpt>
      <trkpt lat="44.89349" lon="3.92314">
        <ele>869.65</ele>
        <time>2022-08-01T13:28:41Z</time>
      </trkpt>
      <trkpt lat="44.89346" lon="3.92311">
        <ele>869.65</ele>
        <time>2022-08-01T13:28:55Z</time>
      </trkpt>
      <trkpt lat="44.89347" lon="3.92311">
        <ele>868.69</ele>
        <time>2022-08-01T13:29:23Z</time>
      </trkpt>
      <trkpt lat="44.89346" lon="3.92313">
        <ele>867.73</ele>
        <time>2022-08-01T13:29:44Z</time>
      </trkpt>
      <trkpt lat="44.89348" lon="3.92313">
        <ele>867.25</ele>
        <time>2022-08-01T13:30:09Z</time>
      </trkpt>
      <trkpt lat="44.8935" lon="3.9231">
        <ele>867.25</ele>
        <time>2022-08-01T13:30:13Z</time>
      </trkpt>
      <trkpt lat="44.89361" lon="3.92309">
        <ele>864.36</ele>
        <time>2022-08-01T13:30:25Z</time>
      </trkpt>
      <trkpt lat="44.89366" lon="3.9231">
        <ele>862.92</ele>
        <time>2022-08-01T13:30:30Z</time>
      </trkpt>
      <trkpt lat="44.89368" lon="3.92309">
        <ele>862.44</ele>
        <time>2022-08-01T13:30:32Z</time>
      </trkpt>
      <trkpt lat="44.89365" lon="3.92297">
        <ele>860.52</ele>
        <time>2022-08-01T13:30:41Z</time>
      </trkpt>
      <trkpt lat="44.89359" lon="3.92292">
        <ele>859.56</ele>
        <time>2022-08-01T13:30:47Z</time>
      </trkpt>
      <trkpt lat="44.89348" lon="3.92276">
        <ele>857.63</ele>
        <time>2022-08-01T13:31:00Z</time>
      </trkpt>
      <trkpt lat="44.89331" lon="3.92272">
        <ele>853.31</ele>
        <time>2022-08-01T13:31:14Z</time>
      </trkpt>
      <trkpt lat="44.89331" lon="3.92264">
        <ele>851.87</ele>
        <time>2022-08-01T13:31:21Z</time>
      </trkpt>
      <trkpt lat="44.89338" lon="3.92261">
        <ele>849.94</ele>
        <time>2022-08-01T13:31:27Z</time>
      </trkpt>
      <trkpt lat="44.89334" lon="3.92243">
        <ele>848.02</ele>
        <time>2022-08-01T13:31:41Z</time>
      </trkpt>
      <trkpt lat="44.89329" lon="3.92243">
        <ele>847.06</ele>
        <time>2022-08-01T13:31:45Z</time>
      </trkpt>
      <trkpt lat="44.89325" lon="3.92243">
        <ele>846.58</ele>
        <time>2022-08-01T13:31:50Z</time>
      </trkpt>
      <trkpt lat="44.8931" lon="3.9225">
        <ele>843.69</ele>
        <time>2022-08-01T13:32:04Z</time>
      </trkpt>
      <trkpt lat="44.89304" lon="3.92255">
        <ele>842.25</ele>
        <time>2022-08-01T13:32:10Z</time>
      </trkpt>
      <trkpt lat="44.89303" lon="3.92257">
        <ele>841.29</ele>
        <time>2022-08-01T13:32:12Z</time>
      </trkpt>
      <trkpt lat="44.8929" lon="3.92273">
        <ele>838.89</ele>
        <time>2022-08-01T13:32:27Z</time>
      </trkpt>
      <trkpt lat="44.89278" lon="3.92284">
        <ele>836.48</ele>
        <time>2022-08-01T13:32:40Z</time>
      </trkpt>
      <trkpt lat="44.8927" lon="3.92291">
        <ele>835.04</ele>
        <time>2022-08-01T13:32:48Z</time>
      </trkpt>
      <trkpt lat="44.89267" lon="3.92297">
        <ele>834.08</ele>
        <time>2022-08-01T13:32:52Z</time>
      </trkpt>
      <trkpt lat="44.89257" lon="3.92309">
        <ele>832.64</ele>
        <time>2022-08-01T13:33:04Z</time>
      </trkpt>
      <trkpt lat="44.89255" lon="3.92314">
        <ele>832.16</ele>
        <time>2022-08-01T13:33:07Z</time>
      </trkpt>
      <trkpt lat="44.89242" lon="3.92323">
        <ele>831.2</ele>
        <time>2022-08-01T13:33:19Z</time>
      </trkpt>
      <trkpt lat="44.89226" lon="3.92341">
        <ele>827.83</ele>
        <time>2022-08-01T13:33:34Z</time>
      </trkpt>
      <trkpt lat="44.89219" lon="3.92347">
        <ele>826.39</ele>
        <time>2022-08-01T13:33:41Z</time>
      </trkpt>
      <trkpt lat="44.89216" lon="3.9235">
        <ele>825.91</ele>
        <time>2022-08-01T13:33:44Z</time>
      </trkpt>
      <trkpt lat="44.89208" lon="3.92364">
        <ele>823.03</ele>
        <time>2022-08-01T13:33:55Z</time>
      </trkpt>
      <trkpt lat="44.89204" lon="3.92367">
        <ele>822.55</ele>
        <time>2022-08-01T13:33:58Z</time>
      </trkpt>
      <trkpt lat="44.89199" lon="3.92373">
        <ele>821.1</ele>
        <time>2022-08-01T13:34:04Z</time>
      </trkpt>
      <trkpt lat="44.89196" lon="3.92379">
        <ele>820.14</ele>
        <time>2022-08-01T13:34:08Z</time>
      </trkpt>
      <trkpt lat="44.89194" lon="3.92382">
        <ele>819.18</ele>
        <time>2022-08-01T13:34:10Z</time>
      </trkpt>
      <trkpt lat="44.89191" lon="3.92385">
        <ele>818.22</ele>
        <time>2022-08-01T13:34:13Z</time>
      </trkpt>
      <trkpt lat="44.89184" lon="3.92389">
        <ele>816.78</ele>
        <time>2022-08-01T13:34:28Z</time>
      </trkpt>
      <trkpt lat="44.89183" lon="3.92388">
        <ele>817.74</ele>
        <time>2022-08-01T13:34:38Z</time>
      </trkpt>
      <trkpt lat="44.8918" lon="3.92398">
        <ele>817.26</ele>
        <time>2022-08-01T13:34:44Z</time>
      </trkpt>
      <trkpt lat="44.89165" lon="3.92423">
        <ele>814.37</ele>
        <time>2022-08-01T13:35:01Z</time>
      </trkpt>
      <trkpt lat="44.89162" lon="3.92427">
        <ele>813.89</ele>
        <time>2022-08-01T13:35:04Z</time>
      </trkpt>
      <trkpt lat="44.89151" lon="3.92443">
        <ele>811.49</ele>
        <time>2022-08-01T13:35:16Z</time>
      </trkpt>
      <trkpt lat="44.8915" lon="3.92446">
        <ele>811.01</ele>
        <time>2022-08-01T13:35:18Z</time>
      </trkpt>
      <trkpt lat="44.89146" lon="3.92451">
        <ele>810.53</ele>
        <time>2022-08-01T13:35:22Z</time>
      </trkpt>
      <trkpt lat="44.89145" lon="3.92453">
        <ele>809.57</ele>
        <time>2022-08-01T13:35:24Z</time>
      </trkpt>
      <trkpt lat="44.89138" lon="3.92463">
        <ele>808.61</ele>
        <time>2022-08-01T13:35:31Z</time>
      </trkpt>
      <trkpt lat="44.89133" lon="3.9247">
        <ele>807.16</ele>
        <time>2022-08-01T13:35:37Z</time>
      </trkpt>
      <trkpt lat="44.89121" lon="3.92491">
        <ele>803.32</ele>
        <time>2022-08-01T13:35:52Z</time>
      </trkpt>
      <trkpt lat="44.89113" lon="3.92503">
        <ele>801.4</ele>
        <time>2022-08-01T13:36:01Z</time>
      </trkpt>
      <trkpt lat="44.89104" lon="3.92505">
        <ele>802.84</ele>
        <time>2022-08-01T13:36:08Z</time>
      </trkpt>
      <trkpt lat="44.89087" lon="3.92488">
        <ele>804.28</ele>
        <time>2022-08-01T13:36:22Z</time>
      </trkpt>
      <trkpt lat="44.89075" lon="3.92472">
        <ele>799.95</ele>
        <time>2022-08-01T13:36:37Z</time>
      </trkpt>
      <trkpt lat="44.89075" lon="3.92472">
        <ele>799.47</ele>
        <time>2022-08-01T13:36:39Z</time>
      </trkpt>
      <trkpt lat="44.89052" lon="3.92467">
        <ele>793.22</ele>
        <time>2022-08-01T13:36:58Z</time>
      </trkpt>
      <trkpt lat="44.89035" lon="3.92459">
        <ele>787.46</ele>
        <time>2022-08-01T13:37:13Z</time>
      </trkpt>
      <trkpt lat="44.89014" lon="3.92451">
        <ele>783.13</ele>
        <time>2022-08-01T13:37:30Z</time>
      </trkpt>
      <trkpt lat="44.89011" lon="3.92447">
        <ele>782.17</ele>
        <time>2022-08-01T13:37:33Z</time>
      </trkpt>
      <trkpt lat="44.89005" lon="3.92447">
        <ele>780.73</ele>
        <time>2022-08-01T13:37:38Z</time>
      </trkpt>
      <trkpt lat="44.89" lon="3.92447">
        <ele>778.81</ele>
        <time>2022-08-01T13:37:47Z</time>
      </trkpt>
      <trkpt lat="44.88986" lon="3.92467">
        <ele>777.36</ele>
        <time>2022-08-01T13:38:03Z</time>
      </trkpt>
      <trkpt lat="44.88966" lon="3.9247">
        <ele>776.4</ele>
        <time>2022-08-01T13:38:19Z</time>
      </trkpt>
      <trkpt lat="44.88946" lon="3.92464">
        <ele>775.92</ele>
        <time>2022-08-01T13:38:34Z</time>
      </trkpt>
      <trkpt lat="44.8893" lon="3.9246">
        <ele>772.56</ele>
        <time>2022-08-01T13:38:47Z</time>
      </trkpt>
      <trkpt lat="44.88918" lon="3.92453">
        <ele>769.67</ele>
        <time>2022-08-01T13:38:59Z</time>
      </trkpt>
      <trkpt lat="44.88919" lon="3.92431">
        <ele>768.71</ele>
        <time>2022-08-01T13:39:12Z</time>
      </trkpt>
      <trkpt lat="44.8892" lon="3.92427">
        <ele>768.71</ele>
        <time>2022-08-01T13:39:14Z</time>
      </trkpt>
      <trkpt lat="44.88926" lon="3.92401">
        <ele>771.6</ele>
        <time>2022-08-01T13:39:29Z</time>
      </trkpt>
      <trkpt lat="44.88927" lon="3.92385">
        <ele>772.08</ele>
        <time>2022-08-01T13:39:39Z</time>
      </trkpt>
      <trkpt lat="44.88925" lon="3.92356">
        <ele>773.04</ele>
        <time>2022-08-01T13:39:56Z</time>
      </trkpt>
      <trkpt lat="44.88925" lon="3.92349">
        <ele>773.04</ele>
        <time>2022-08-01T13:40:00Z</time>
      </trkpt>
      <trkpt lat="44.88933" lon="3.92325">
        <ele>773.52</ele>
        <time>2022-08-01T13:40:16Z</time>
      </trkpt>
      <trkpt lat="44.88934" lon="3.92323">
        <ele>773.52</ele>
        <time>2022-08-01T13:40:18Z</time>
      </trkpt>
      <trkpt lat="44.88935" lon="3.92307">
        <ele>774</ele>
        <time>2022-08-01T13:40:26Z</time>
      </trkpt>
      <trkpt lat="44.8892" lon="3.92286">
        <ele>772.56</ele>
        <time>2022-08-01T13:40:42Z</time>
      </trkpt>
      <trkpt lat="44.88907" lon="3.92266">
        <ele>775.44</ele>
        <time>2022-08-01T13:40:57Z</time>
      </trkpt>
      <trkpt lat="44.88897" lon="3.92245">
        <ele>778.81</ele>
        <time>2022-08-01T13:41:12Z</time>
      </trkpt>
      <trkpt lat="44.88899" lon="3.92235">
        <ele>780.73</ele>
        <time>2022-08-01T13:41:24Z</time>
      </trkpt>
      <trkpt lat="44.88904" lon="3.92225">
        <ele>778.81</ele>
        <time>2022-08-01T13:41:38Z</time>
      </trkpt>
      <trkpt lat="44.88905" lon="3.92224">
        <ele>778.32</ele>
        <time>2022-08-01T13:41:46Z</time>
      </trkpt>
      <trkpt lat="44.88922" lon="3.92211">
        <ele>777.36</ele>
        <time>2022-08-01T13:42:03Z</time>
      </trkpt>
      <trkpt lat="44.88935" lon="3.92199">
        <ele>776.88</ele>
        <time>2022-08-01T13:42:17Z</time>
      </trkpt>
      <trkpt lat="44.88937" lon="3.922">
        <ele>777.36</ele>
        <time>2022-08-01T13:42:19Z</time>
      </trkpt>
      <trkpt lat="44.88942" lon="3.92205">
        <ele>777.36</ele>
        <time>2022-08-01T13:42:25Z</time>
      </trkpt>
      <trkpt lat="44.88944" lon="3.92214">
        <ele>778.32</ele>
        <time>2022-08-01T13:42:32Z</time>
      </trkpt>
      <trkpt lat="44.88947" lon="3.92218">
        <ele>778.32</ele>
        <time>2022-08-01T13:42:36Z</time>
      </trkpt>
      <trkpt lat="44.88956" lon="3.92222">
        <ele>778.32</ele>
        <time>2022-08-01T13:42:45Z</time>
      </trkpt>
      <trkpt lat="44.88962" lon="3.9222">
        <ele>777.84</ele>
        <time>2022-08-01T13:42:49Z</time>
      </trkpt>
      <trkpt lat="44.88969" lon="3.92214">
        <ele>777.36</ele>
        <time>2022-08-01T13:42:55Z</time>
      </trkpt>
      <trkpt lat="44.88996" lon="3.92217">
        <ele>774</ele>
        <time>2022-08-01T13:43:15Z</time>
      </trkpt>
      <trkpt lat="44.89013" lon="3.92211">
        <ele>772.08</ele>
        <time>2022-08-01T13:43:30Z</time>
      </trkpt>
      <trkpt lat="44.89033" lon="3.92199">
        <ele>769.67</ele>
        <time>2022-08-01T13:43:47Z</time>
      </trkpt>
      <trkpt lat="44.89041" lon="3.92199">
        <ele>769.19</ele>
        <time>2022-08-01T13:44:01Z</time>
      </trkpt>
      <trkpt lat="44.89041" lon="3.92199">
        <ele>769.67</ele>
        <time>2022-08-01T13:44:11Z</time>
      </trkpt>
      <trkpt lat="44.8906" lon="3.92183">
        <ele>767.75</ele>
        <time>2022-08-01T13:44:28Z</time>
      </trkpt>
      <trkpt lat="44.89074" lon="3.92166">
        <ele>766.31</ele>
        <time>2022-08-01T13:44:42Z</time>
      </trkpt>
      <trkpt lat="44.89091" lon="3.92146">
        <ele>766.31</ele>
        <time>2022-08-01T13:44:59Z</time>
      </trkpt>
      <trkpt lat="44.89103" lon="3.92127">
        <ele>766.31</ele>
        <time>2022-08-01T13:45:12Z</time>
      </trkpt>
      <trkpt lat="44.89107" lon="3.9212">
        <ele>765.83</ele>
        <time>2022-08-01T13:45:17Z</time>
      </trkpt>
      <trkpt lat="44.89107" lon="3.9211">
        <ele>766.31</ele>
        <time>2022-08-01T13:45:30Z</time>
      </trkpt>
      <trkpt lat="44.89106" lon="3.92112">
        <ele>764.39</ele>
        <time>2022-08-01T13:45:50Z</time>
      </trkpt>
      <trkpt lat="44.89111" lon="3.92106">
        <ele>767.75</ele>
        <time>2022-08-01T13:45:59Z</time>
      </trkpt>
      <trkpt lat="44.8911" lon="3.92094">
        <ele>767.75</ele>
        <time>2022-08-01T13:46:08Z</time>
      </trkpt>
      <trkpt lat="44.89109" lon="3.92091">
        <ele>767.75</ele>
        <time>2022-08-01T13:46:10Z</time>
      </trkpt>
      <trkpt lat="44.89107" lon="3.92073">
        <ele>768.71</ele>
        <time>2022-08-01T13:46:27Z</time>
      </trkpt>
      <trkpt lat="44.89107" lon="3.92072">
        <ele>768.71</ele>
        <time>2022-08-01T13:46:44Z</time>
      </trkpt>
      <trkpt lat="44.89105" lon="3.92071">
        <ele>769.19</ele>
        <time>2022-08-01T13:47:07Z</time>
      </trkpt>
      <trkpt lat="44.89109" lon="3.92073">
        <ele>765.83</ele>
        <time>2022-08-01T13:47:30Z</time>
      </trkpt>
      <trkpt lat="44.89107" lon="3.92075">
        <ele>765.35</ele>
        <time>2022-08-01T13:48:02Z</time>
      </trkpt>
      <trkpt lat="44.89107" lon="3.92076">
        <ele>767.27</ele>
        <time>2022-08-01T13:48:31Z</time>
      </trkpt>
      <trkpt lat="44.8911" lon="3.92074">
        <ele>770.15</ele>
        <time>2022-08-01T13:49:05Z</time>
      </trkpt>
      <trkpt lat="44.89109" lon="3.92074">
        <ele>771.11</ele>
        <time>2022-08-01T13:49:42Z</time>
      </trkpt>
      <trkpt lat="44.8911" lon="3.92076">
        <ele>774.96</ele>
        <time>2022-08-01T13:50:14Z</time>
      </trkpt>
      <trkpt lat="44.89108" lon="3.92081">
        <ele>777.36</ele>
        <time>2022-08-01T13:50:40Z</time>
      </trkpt>
      <trkpt lat="44.89107" lon="3.92074">
        <ele>775.44</ele>
        <time>2022-08-01T13:51:14Z</time>
      </trkpt>
      <trkpt lat="44.89106" lon="3.92073">
        <ele>774.48</ele>
        <time>2022-08-01T13:51:51Z</time>
      </trkpt>
      <trkpt lat="44.89107" lon="3.92072">
        <ele>775.92</ele>
        <time>2022-08-01T13:52:17Z</time>
      </trkpt>
      <trkpt lat="44.89107" lon="3.92078">
        <ele>774.48</ele>
        <time>2022-08-01T13:52:53Z</time>
      </trkpt>
      <trkpt lat="44.89108" lon="3.92072">
        <ele>771.6</ele>
        <time>2022-08-01T13:53:28Z</time>
      </trkpt>
      <trkpt lat="44.89109" lon="3.92075">
        <ele>769.67</ele>
        <time>2022-08-01T13:54:12Z</time>
      </trkpt>
      <trkpt lat="44.89107" lon="3.92073">
        <ele>770.63</ele>
        <time>2022-08-01T13:54:49Z</time>
      </trkpt>
      <trkpt lat="44.89107" lon="3.92076">
        <ele>768.71</ele>
        <time>2022-08-01T13:55:11Z</time>
      </trkpt>
      <trkpt lat="44.89109" lon="3.92073">
        <ele>767.75</ele>
        <time>2022-08-01T13:55:36Z</time>
      </trkpt>
    </trkseg>
  </trk>
</gpx>